[[{"header":{"parameterUnit":"m.s-1","parameterCategory":1,"la1":30.6,"la2":29.2853,"lo1":-89.7004,"lo2":-87.6739,"dy":0.0162,"dx":0.0183,"nx":112,"ny":82,"refTime":"2023-06-21T12:00:00:Z","depth":0,"parameterNumber":2,"parameterNumberName":"U-component_of_WINDS"},"data":[0.0,0.0,0.0,0.0,0.0,0.0,0.0,0.0,0.0,0.0,0.0,0.0,0.0,0.0,0.0,0.0,0.0,0.0,0.0,0.0,0.0,0.0,0.0,0.0,0.0,0.0,0.0,0.0,0.0,0.0,0.0,0.0,0.0,0.0,0.0,0.0,0.0,0.0,0.0,0.0,0.0,0.0,0.0,0.0,0.0,0.0,0.0,0.0,0.0,0.0,0.0,0.0,0.0,0.0,0.0,0.0,0.0,0.0,0.0,0.0,0.0,0.0,0.0,0.0,0.0,0.0,0.0,0.0,0.0,0.0,0.0,0.0,0.0,0.0,0.0,0.0,0.0,0.0,0.0,0.0,0.0,0.0,0.0,0.0,0.0,0.0,0.0,0.0,0.0,0.0,-5.3518,-5.3518,-5.3518,-5.3076,-5.1993,-5.0968,-4.9931,-4.8882,0.0,0.0,0.0,0.0,0.0,0.0,0.0,0.0,0.0,0.0,0.0,0.0,0.0,0.0,0.0,0.0,0.0,0.0,0.0,0.0,0.0,0.0,0.0,0.0,0.0,0.0,0.0,0.0,0.0,0.0,0.0,0.0,0.0,0.0,0.0,0.0,0.0,0.0,0.0,0.0,0.0,0.0,0.0,0.0,0.0,0.0,0.0,0.0,0.0,0.0,0.0,0.0,0.0,0.0,0.0,0.0,0.0,0.0,0.0,0.0,0.0,0.0,0.0,0.0,0.0,0.0,0.0,0.0,0.0,0.0,0.0,0.0,0.0,0.0,0.0,0.0,0.0,0.0,0.0,0.0,0.0,0.0,0.0,0.0,0.0,0.0,0.0,0.0,0.0,0.0,0.0,0.0,0.0,0.0,0.0,0.0,0.0,0.0,0.0,0.0,0.0,0.0,0.0,0.0,-5.3518,-5.3518,-5.3518,-5.3076,-5.1993,-5.0968,-4.9931,-4.8882,0.0,0.0,0.0,0.0,0.0,0.0,0.0,0.0,0.0,0.0,0.0,0.0,0.0,0.0,0.0,0.0,0.0,0.0,0.0,0.0,0.0,0.0,0.0,0.0,0.0,0.0,0.0,0.0,0.0,0.0,0.0,0.0,0.0,0.0,0.0,0.0,0.0,0.0,0.0,0.0,0.0,0.0,0.0,0.0,0.0,0.0,0.0,0.0,0.0,0.0,0.0,0.0,0.0,0.0,0.0,0.0,0.0,0.0,0.0,0.0,0.0,0.0,0.0,0.0,0.0,0.0,0.0,0.0,0.0,0.0,0.0,0.0,0.0,0.0,0.0,0.0,0.0,0.0,0.0,0.0,0.0,0.0,0.0,0.0,0.0,0.0,0.0,0.0,0.0,0.0,0.0,0.0,0.0,0.0,0.0,0.0,0.0,0.0,0.0,0.0,0.0,0.0,0.0,-5.3518,-5.3518,-5.3518,-5.2973,-5.2205,-5.1155,-5.0126,-4.9085,-4.8072,-4.7538,0.0,0.0,0.0,0.0,0.0,0.0,0.0,0.0,0.0,0.0,0.0,0.0,0.0,0.0,0.0,0.0,0.0,0.0,0.0,0.0,0.0,0.0,0.0,0.0,0.0,0.0,0.0,0.0,0.0,0.0,0.0,0.0,0.0,0.0,0.0,0.0,0.0,0.0,0.0,0.0,0.0,0.0,0.0,0.0,0.0,0.0,0.0,0.0,0.0,0.0,0.0,0.0,0.0,0.0,0.0,0.0,0.0,0.0,0.0,0.0,0.0,0.0,0.0,0.0,0.0,0.0,0.0,0.0,0.0,0.0,0.0,0.0,0.0,0.0,0.0,0.0,0.0,0.0,0.0,0.0,0.0,0.0,0.0,0.0,0.0,0.0,0.0,0.0,0.0,0.0,0.0,0.0,0.0,0.0,0.0,0.0,0.0,0.0,0.0,0.0,0.0,0.0,-5.3518,-5.3382,-5.3144,-5.2383,-5.1377,-5.0126,-4.9256,-4.8377,-4.7352,-4.7309,0.0,0.0,0.0,0.0,0.0,0.0,0.0,0.0,0.0,0.0,0.0,0.0,0.0,0.0,0.0,0.0,0.0,0.0,0.0,0.0,0.0,0.0,0.0,0.0,0.0,0.0,0.0,0.0,0.0,0.0,0.0,0.0,0.0,0.0,0.0,0.0,0.0,0.0,0.0,0.0,0.0,0.0,0.0,0.0,0.0,0.0,0.0,0.0,0.0,0.0,0.0,0.0,0.0,0.0,0.0,0.0,0.0,0.0,0.0,0.0,0.0,0.0,0.0,0.0,0.0,0.0,0.0,0.0,0.0,0.0,0.0,0.0,0.0,0.0,0.0,0.0,0.0,0.0,0.0,0.0,0.0,0.0,0.0,0.0,0.0,0.0,0.0,0.0,0.0,0.0,0.0,0.0,0.0,0.0,0.0,0.0,0.0,0.0,0.0,0.0,0.0,0.0,-5.3518,-5.311,-5.2101,-5.1957,-5.1117,-4.9094,-4.881,-4.8377,-4.7352,-4.7309,0.0,0.0,0.0,0.0,0.0,0.0,0.0,0.0,0.0,0.0,0.0,0.0,0.0,0.0,0.0,0.0,0.0,0.0,0.0,0.0,0.0,0.0,0.0,0.0,0.0,0.0,0.0,0.0,0.0,0.0,0.0,0.0,0.0,0.0,0.0,0.0,0.0,0.0,0.0,0.0,0.0,0.0,0.0,0.0,0.0,0.0,0.0,0.0,0.0,0.0,0.0,0.0,0.0,0.0,0.0,0.0,0.0,0.0,0.0,0.0,0.0,0.0,0.0,0.0,0.0,0.0,0.0,0.0,0.0,0.0,0.0,0.0,0.0,0.0,0.0,0.0,0.0,0.0,0.0,0.0,0.0,0.0,0.0,0.0,0.0,0.0,0.0,0.0,0.0,0.0,0.0,0.0,0.0,0.0,0.0,0.0,0.0,0.0,0.0,0.0,0.0,0.0,-5.2576,-5.2025,0.0,-5.0614,-4.9623,-4.8882,-4.821,-4.7679,-4.7352,0.0,0.0,0.0,0.0,0.0,0.0,0.0,0.0,0.0,0.0,0.0,0.0,0.0,0.0,0.0,0.0,0.0,0.0,0.0,0.0,0.0,0.0,0.0,0.0,0.0,0.0,0.0,0.0,0.0,0.0,0.0,0.0,0.0,0.0,0.0,0.0,0.0,0.0,0.0,0.0,0.0,0.0,0.0,0.0,0.0,0.0,0.0,0.0,0.0,0.0,0.0,0.0,0.0,0.0,0.0,0.0,0.0,0.0,0.0,0.0,0.0,0.0,0.0,0.0,0.0,0.0,0.0,0.0,0.0,0.0,0.0,0.0,0.0,0.0,0.0,0.0,0.0,0.0,0.0,0.0,0.0,0.0,0.0,0.0,0.0,0.0,0.0,0.0,0.0,0.0,0.0,0.0,0.0,0.0,0.0,0.0,0.0,0.0,0.0,0.0,0.0,0.0,-5.3226,-5.2359,-5.1574,0.0,-5.0153,-4.9325,-4.8979,-4.8102,-4.7608,-4.7608,0.0,0.0,0.0,0.0,0.0,0.0,0.0,0.0,0.0,0.0,0.0,0.0,0.0,0.0,0.0,0.0,0.0,0.0,0.0,0.0,0.0,0.0,0.0,0.0,0.0,0.0,0.0,0.0,0.0,0.0,0.0,0.0,0.0,0.0,0.0,0.0,0.0,0.0,0.0,0.0,0.0,0.0,0.0,0.0,0.0,0.0,0.0,0.0,0.0,0.0,0.0,0.0,0.0,0.0,0.0,0.0,0.0,0.0,0.0,0.0,0.0,0.0,0.0,0.0,0.0,0.0,0.0,0.0,0.0,0.0,0.0,0.0,0.0,0.0,0.0,0.0,0.0,0.0,0.0,0.0,0.0,0.0,0.0,0.0,0.0,0.0,0.0,0.0,0.0,0.0,0.0,0.0,0.0,0.0,0.0,0.0,0.0,0.0,0.0,0.0,0.0,0.0,-5.3803,-5.296,-5.1878,-5.0898,-5.077,-5.0371,-4.9389,-4.87,-4.8297,0.0,0.0,0.0,0.0,0.0,0.0,0.0,0.0,0.0,0.0,0.0,0.0,0.0,0.0,0.0,0.0,0.0,0.0,0.0,0.0,0.0,0.0,0.0,0.0,0.0,0.0,0.0,0.0,0.0,0.0,0.0,0.0,0.0,0.0,0.0,0.0,0.0,0.0,0.0,0.0,0.0,0.0,0.0,0.0,0.0,0.0,0.0,0.0,0.0,0.0,0.0,0.0,0.0,0.0,0.0,0.0,0.0,0.0,0.0,0.0,0.0,0.0,0.0,0.0,0.0,0.0,0.0,0.0,0.0,0.0,0.0,0.0,0.0,0.0,0.0,0.0,0.0,0.0,0.0,0.0,0.0,0.0,0.0,0.0,0.0,0.0,0.0,0.0,0.0,0.0,0.0,0.0,0.0,0.0,0.0,0.0,0.0,0.0,0.0,0.0,0.0,0.0,0.0,-5.2503,-5.1512,-5.0709,-5.0381,-4.9988,-4.9627,-4.9299,-4.9149,-4.882,-4.8327,0.0,0.0,0.0,0.0,0.0,0.0,0.0,0.0,0.0,0.0,0.0,0.0,0.0,0.0,0.0,0.0,0.0,0.0,0.0,0.0,0.0,0.0,0.0,0.0,0.0,0.0,0.0,0.0,0.0,0.0,0.0,0.0,0.0,0.0,0.0,0.0,0.0,0.0,0.0,0.0,0.0,0.0,0.0,0.0,0.0,0.0,0.0,0.0,0.0,0.0,0.0,0.0,0.0,0.0,0.0,0.0,0.0,0.0,0.0,0.0,0.0,0.0,0.0,0.0,0.0,0.0,0.0,0.0,0.0,0.0,0.0,0.0,0.0,0.0,0.0,0.0,0.0,0.0,0.0,0.0,0.0,0.0,0.0,0.0,0.0,0.0,0.0,0.0,0.0,0.0,0.0,0.0,0.0,0.0,0.0,0.0,0.0,0.0,0.0,0.0,0.0,0.0,-5.2268,-5.1304,-5.0584,-5.0584,-5.0272,-5.0062,-5.0062,-4.9793,-4.9494,-4.9075,0.0,0.0,0.0,0.0,0.0,0.0,0.0,0.0,0.0,0.0,0.0,0.0,0.0,0.0,0.0,0.0,0.0,0.0,0.0,0.0,0.0,0.0,0.0,0.0,0.0,0.0,0.0,0.0,0.0,0.0,0.0,0.0,0.0,0.0,0.0,0.0,0.0,0.0,0.0,0.0,0.0,0.0,0.0,0.0,0.0,0.0,0.0,0.0,0.0,0.0,0.0,0.0,0.0,0.0,0.0,0.0,0.0,0.0,0.0,0.0,0.0,0.0,0.0,0.0,0.0,0.0,0.0,0.0,0.0,0.0,0.0,0.0,0.0,0.0,0.0,0.0,0.0,0.0,0.0,0.0,0.0,0.0,0.0,0.0,0.0,0.0,0.0,0.0,0.0,0.0,0.0,0.0,0.0,0.0,0.0,0.0,0.0,0.0,0.0,0.0,0.0,0.0,-5.262,-5.1865,-5.1229,-5.1229,-5.1229,-5.1229,-5.1229,-5.0614,-5.0255,-5.0196,0.0,0.0,0.0,0.0,0.0,0.0,0.0,0.0,0.0,0.0,0.0,0.0,0.0,0.0,0.0,0.0,0.0,0.0,0.0,0.0,0.0,0.0,0.0,0.0,0.0,0.0,0.0,0.0,0.0,0.0,0.0,0.0,0.0,0.0,0.0,0.0,0.0,0.0,0.0,0.0,0.0,0.0,0.0,0.0,0.0,0.0,0.0,0.0,0.0,0.0,0.0,0.0,0.0,0.0,0.0,0.0,0.0,0.0,0.0,0.0,-5.6055,0.0,0.0,0.0,0.0,0.0,0.0,0.0,0.0,0.0,0.0,0.0,0.0,0.0,0.0,0.0,0.0,0.0,0.0,0.0,0.0,0.0,0.0,0.0,0.0,0.0,0.0,0.0,0.0,0.0,0.0,0.0,0.0,0.0,0.0,0.0,0.0,0.0,0.0,0.0,0.0,0.0,-5.1635,-5.1339,-5.1229,-5.1229,-5.1229,-5.1229,-5.1229,-5.1079,-5.0734,-5.0226,-5.0076,0.0,0.0,0.0,0.0,0.0,0.0,0.0,0.0,0.0,0.0,0.0,0.0,0.0,0.0,0.0,0.0,0.0,0.0,0.0,0.0,0.0,0.0,0.0,0.0,0.0,0.0,0.0,0.0,0.0,0.0,0.0,0.0,0.0,0.0,0.0,0.0,0.0,0.0,0.0,0.0,0.0,0.0,0.0,0.0,0.0,0.0,0.0,0.0,0.0,0.0,0.0,0.0,0.0,0.0,0.0,0.0,0.0,0.0,0.0,0.0,-5.6664,0.0,0.0,0.0,0.0,0.0,0.0,0.0,0.0,0.0,0.0,0.0,0.0,0.0,0.0,0.0,0.0,0.0,0.0,0.0,0.0,0.0,0.0,0.0,0.0,0.0,0.0,0.0,0.0,0.0,0.0,0.0,0.0,0.0,0.0,0.0,0.0,0.0,0.0,0.0,0.0,-5.1246,-5.1229,-5.1229,-5.1229,-5.1229,-5.1229,-5.1229,-5.1229,-5.1079,-5.0674,-5.0674,0.0,0.0,0.0,0.0,0.0,0.0,0.0,0.0,0.0,0.0,0.0,0.0,0.0,0.0,0.0,0.0,0.0,0.0,0.0,0.0,0.0,0.0,0.0,0.0,0.0,0.0,0.0,0.0,0.0,0.0,0.0,0.0,0.0,0.0,0.0,0.0,0.0,0.0,0.0,0.0,0.0,0.0,0.0,0.0,0.0,0.0,0.0,0.0,0.0,0.0,0.0,0.0,0.0,-5.5615,-5.6292,-5.7002,-5.7002,-5.7306,-5.7848,-5.7273,-5.734,-5.7881,-5.7881,0.0,0.0,0.0,0.0,0.0,0.0,0.0,0.0,0.0,0.0,0.0,0.0,0.0,0.0,0.0,0.0,0.0,0.0,0.0,0.0,0.0,0.0,0.0,0.0,-5.4683,-5.4299,0.0,0.0,0.0,0.0,0.0,0.0,0.0,0.0,0.0,0.0,0.0,0.0,-5.1229,-5.1229,-5.1229,-5.1229,-5.1229,-5.1229,-5.1229,-5.1229,-5.1229,-5.1229,-5.1229,-5.0913,0.0,0.0,0.0,0.0,0.0,0.0,0.0,0.0,0.0,0.0,0.0,0.0,0.0,0.0,0.0,0.0,0.0,0.0,0.0,0.0,0.0,0.0,0.0,0.0,0.0,0.0,0.0,0.0,0.0,0.0,0.0,0.0,-5.2401,-5.3112,0.0,0.0,0.0,0.0,0.0,0.0,0.0,0.0,0.0,0.0,0.0,0.0,0.0,-5.4431,-5.4465,-5.5209,-5.5886,-5.6528,-5.6596,-5.7036,-5.7746,-5.7746,-5.7814,-5.7881,-5.778,0.0,-5.7881,-5.7881,0.0,0.0,0.0,0.0,0.0,0.0,0.0,0.0,0.0,0.0,0.0,0.0,0.0,0.0,0.0,0.0,0.0,0.0,0.0,0.0,0.0,0.0,-5.4899,-5.4409,-5.3838,-5.3357,0.0,-5.3941,-5.4129,-5.2395,-5.221,0.0,0.0,0.0,0.0,0.0,0.0,0.0,-5.1229,-5.1229,-5.1229,-5.1229,-5.1229,-5.1229,-5.1229,-5.1229,-5.1229,-5.1229,-5.1229,-5.1169,-5.1079,-5.1169,0.0,0.0,0.0,0.0,0.0,0.0,0.0,0.0,0.0,0.0,0.0,0.0,0.0,0.0,0.0,0.0,0.0,0.0,0.0,0.0,0.0,0.0,0.0,0.0,0.0,0.0,0.0,0.0,0.0,-5.2773,-5.3112,-5.345,-5.3518,-5.3518,0.0,0.0,0.0,0.0,0.0,0.0,0.0,0.0,0.0,-5.4735,-5.5074,-5.5209,-5.5209,-5.5953,-5.6494,-5.6799,-5.7205,-5.7577,-5.7881,-5.7881,-5.8118,-5.8524,-5.8524,-5.8761,-5.9099,-5.8693,-5.8964,-5.9641,0.0,0.0,0.0,0.0,-6.0757,-6.0825,-6.1231,-6.1177,0.0,-6.0891,0.0,0.0,0.0,0.0,0.0,0.0,0.0,0.0,0.0,0.0,-5.512,-5.484,-5.4521,-5.4311,-5.4311,-5.4726,-5.4589,0.0,-5.2755,-5.2665,-5.2366,0.0,0.0,0.0,0.0,-5.1229,-5.1229,-5.1229,-5.1229,-5.1229,-5.1229,-5.1229,-5.1229,-5.1229,-5.1229,-5.1229,-5.1229,-5.1229,-5.1229,-5.1229,-5.1079,0.0,0.0,0.0,0.0,0.0,0.0,0.0,0.0,0.0,0.0,0.0,0.0,0.0,0.0,0.0,0.0,0.0,0.0,0.0,0.0,0.0,0.0,0.0,0.0,0.0,0.0,0.0,0.0,-5.3518,-5.3518,-5.3518,-5.3518,-5.3518,0.0,0.0,0.0,0.0,0.0,0.0,-5.4837,-5.4871,-5.5141,-5.5647,-5.5886,-5.5987,-5.5987,-5.6697,-5.707,-5.7103,-5.7645,-5.7983,-5.8186,-5.8186,-5.8592,-5.9302,-5.9302,-5.9708,-6.0351,-5.9607,-5.9742,-6.0419,-6.0419,-6.052,-6.0757,-6.1366,-6.1569,-6.167,-6.2212,-6.1797,-6.0995,-6.0703,0.0,-5.8409,-5.8024,0.0,0.0,0.0,0.0,-5.518,-5.5189,-5.5228,-5.5179,-5.5179,-5.5179,-5.5179,-5.5179,-5.5179,-5.485,0.0,-5.3443,-5.3384,-5.3204,0.0,0.0,0.0,0.0,-5.1648,-5.1498,-5.1468,-5.1409,-5.1229,-5.1229,-5.1229,-5.1229,-5.1229,-5.1229,-5.1229,-5.1229,-5.1229,-5.1229,-5.1229,-5.1229,-5.1229,0.0,0.0,0.0,0.0,0.0,0.0,0.0,0.0,0.0,0.0,0.0,0.0,0.0,0.0,0.0,0.0,0.0,0.0,0.0,0.0,0.0,0.0,0.0,0.0,0.0,0.0,0.0,0.0,0.0,-5.3518,-5.3518,0.0,0.0,0.0,0.0,-5.4465,-5.4532,-5.4871,-5.5615,-5.5649,-5.5647,-5.5681,-5.6393,-5.6731,-5.6731,-5.7476,-5.7814,-5.7848,-5.7881,-5.8254,-5.8964,-5.8964,-5.937,-6.0047,-6.0047,-6.0486,-6.1197,-6.0385,-6.052,-6.1231,-6.1231,-6.167,-6.2279,-6.2313,-6.2347,-6.2347,-6.2381,-6.2341,-6.211,-6.0953,-5.9286,-5.7397,-5.586,-5.5411,0.0,0.0,-5.517,-5.5179,-5.52,-5.52,-5.5179,-5.5179,-5.5179,-5.5179,-5.5179,-5.5179,-5.497,0.0,-5.4162,-5.3952,-5.3294,0.0,-5.3144,-5.3144,-5.3114,-5.2845,-5.2247,-5.2157,-5.1917,-5.1289,-5.1229,-5.1229,-5.1229,-5.1229,-5.1229,-5.1229,-5.1229,-5.1229,-5.1229,-5.1229,-5.1229,-5.1229,-5.1199,0.0,0.0,0.0,0.0,0.0,0.0,0.0,0.0,0.0,0.0,0.0,0.0,0.0,0.0,0.0,0.0,0.0,0.0,0.0,0.0,0.0,0.0,0.0,0.0,0.0,0.0,0.0,0.0,-5.3518,-5.3923,0.0,-5.4194,-5.4634,-5.504,-5.531,-5.531,-5.5649,-5.6393,-5.6427,-5.663,-5.7103,-5.7374,-5.7509,-5.7509,-5.7746,-5.8118,-5.8626,-5.8626,-5.8998,-5.9708,-5.9708,-6.0148,-6.0858,-6.0858,-6.1298,-6.1975,-6.1704,-6.1738,-6.2009,-6.2009,-6.2144,-6.2381,-6.2381,-6.2381,-6.2302,-6.148,-6.0745,-5.974,-5.7761,-5.6651,-5.594,-5.536,-5.5179,-5.5179,-5.5179,-5.5179,-5.5179,-5.5179,-5.5179,-5.5179,-5.5179,-5.5179,-5.5179,-5.5179,-5.5179,-5.5119,-5.488,-5.485,-5.476,-5.4521,-5.4132,-5.3832,-5.3832,-5.3473,-5.3084,-5.2845,-5.2815,-5.2576,-5.1917,-5.1858,-5.1678,-5.1259,-5.1229,-5.1229,-5.1229,-5.1229,-5.1229,-5.1229,-5.1229,-5.1229,-5.1229,-5.1229,-5.1033,0.0,0.0,0.0,0.0,0.0,0.0,0.0,0.0,0.0,0.0,0.0,0.0,0.0,0.0,0.0,0.0,0.0,0.0,0.0,0.0,0.0,0.0,0.0,0.0,0.0,0.0,-5.3856,-5.3856,-5.4532,-5.4972,-5.4972,-5.5412,-5.5783,-5.6055,-5.6089,-5.6393,-5.7137,-5.7171,-5.7408,-5.7881,-5.8118,-5.8254,-5.8254,-5.8524,-5.8896,-5.937,-5.937,-5.9776,-6.052,-6.052,-6.0926,-6.167,-6.167,-6.1941,-6.2381,-6.2381,-6.2381,-6.2381,-6.2381,-6.2381,-6.2381,-6.2381,-6.2381,-6.2302,-6.148,-6.0161,-5.8542,-5.6896,-5.5869,-5.5179,-5.5179,-5.5179,-5.5179,-5.5179,-5.5179,-5.5179,-5.5179,-5.5179,-5.5179,-5.5179,-5.5179,-5.5179,-5.5179,-5.5179,-5.5179,-5.5179,-5.5179,-5.5179,-5.5179,-5.482,-5.4551,-5.4551,-5.4162,-5.3773,-5.3563,-5.3533,-5.3264,-5.2606,-5.2336,-5.2037,-5.1588,-5.1349,-5.1229,-5.1229,-5.1229,-5.1229,-5.1229,-5.1229,-5.1229,-5.1229,-5.1229,-5.1229,-5.1229,0.0,0.0,0.0,0.0,0.0,0.0,0.0,0.0,0.0,0.0,0.0,0.0,0.0,0.0,0.0,0.0,0.0,0.0,0.0,0.0,0.0,0.0,0.0,-5.3653,-5.416,-5.4634,-5.4634,-5.5277,-5.5715,-5.5715,-5.5784,-5.6089,-5.6799,-5.6833,-5.7171,-5.7881,-5.7915,-5.7915,-5.7949,-5.866,-5.9032,-5.9032,-5.9742,-6.0114,-6.0148,-6.0148,-6.0554,-6.1332,-6.1332,-6.1704,-6.2381,-6.2381,-6.2381,-6.2381,-6.2381,-6.2381,-6.2381,-6.2381,-6.2381,-6.2381,-6.2381,-6.2341,-6.2302,-6.2302,-6.0745,-5.8677,-5.8677,-5.7086,-5.5179,-5.5179,-5.5179,-5.5179,-5.5179,-5.5179,-5.5179,-5.5179,-5.5179,-5.5179,-5.5179,-5.5179,-5.5179,-5.5179,-5.5179,-5.5179,-5.5179,-5.5179,-5.5179,-5.5179,-5.5179,-5.5179,-5.5179,-5.5179,0.0,-5.4311,-5.4251,-5.3982,-5.3294,-5.2636,-5.2247,-5.2187,-5.1618,-5.1229,-5.1229,-5.1229,-5.1229,-5.1229,-5.1229,-5.1229,-5.1229,-5.1229,-5.1229,-5.1229,0.0,0.0,0.0,0.0,0.0,0.0,0.0,0.0,0.0,0.0,0.0,0.0,0.0,0.0,0.0,0.0,0.0,0.0,0.0,0.0,0.0,0.0,-5.5141,-5.4397,-5.4938,-5.5412,-5.5412,-5.6055,-5.6494,-5.6494,-5.6968,-5.7374,-5.7577,-5.7577,-5.7915,-5.866,-5.8693,-5.893,-5.9471,-5.9708,-5.981,-5.981,-6.0013,-6.0385,-6.096,-6.096,-6.1366,-6.211,-6.211,-6.2212,-6.2381,-6.2381,-6.2381,-6.2381,-6.2381,-6.2381,-6.2381,-6.2381,-6.2381,-6.2381,-6.2381,-6.1317,-5.9784,-5.9784,-5.8223,-5.6183,-5.6183,-5.572,-5.5179,-5.5179,-5.5179,-5.5179,-5.5179,-5.5179,-5.5179,-5.5179,-5.5179,-5.5179,-5.5179,-5.5179,-5.5179,-5.5179,-5.5179,-5.5179,-5.5179,-5.5179,-5.5179,-5.5179,-5.5179,-5.5179,-5.5179,-5.5179,0.0,-5.494,-5.491,-5.467,-5.4012,-5.3773,-5.3264,-5.2276,-5.2037,-5.1738,-5.1259,-5.1229,-5.1229,-5.1229,-5.1229,-5.1229,-5.1229,-5.1229,-5.1229,0.0,0.0,0.0,0.0,0.0,0.0,0.0,0.0,0.0,0.0,0.0,0.0,0.0,0.0,0.0,0.0,0.0,0.0,0.0,0.0,0.0,0.0,-5.5987,-5.6021,-5.5581,-5.5886,-5.6156,-5.6156,-5.6799,-5.7273,-5.7273,-5.7645,-5.8017,-5.8355,-5.8355,-5.8693,-5.9438,-5.9471,-5.9674,-6.008,-6.0419,-6.0588,-6.0588,-6.0892,-6.1298,-6.1772,-6.1772,-6.1975,-6.2381,-6.2381,-6.2381,-6.2381,-6.2381,-6.2381,-6.2381,-6.2381,-6.2381,0.0,0.0,0.0,0.0,0.0,-6.148,-6.0247,-5.974,-5.8632,-5.7323,-5.628,-5.5937,-5.5869,-5.5381,-5.5179,-5.5179,-5.5179,-5.5179,-5.5179,-5.5179,-5.5179,-5.5179,-5.5179,-5.5179,-5.5179,-5.5179,-5.5179,-5.5179,-5.5179,-5.5179,0.0,-5.5179,-5.5179,-5.5179,-5.5179,-5.5179,-5.5179,-5.5179,-5.5179,-5.5029,-5.467,-5.4371,-5.3892,-5.3114,-5.2516,0.0,0.0,0.0,-5.1229,-5.1229,-5.1229,0.0,0.0,0.0,-5.1229,-5.1229,0.0,0.0,0.0,-4.7616,-4.6117,0.0,0.0,0.0,0.0,0.0,0.0,0.0,0.0,0.0,0.0,0.0,0.0,0.0,0.0,0.0,0.0,-5.6494,-5.6934,-5.6934,-5.6934,-5.6934,-5.6934,-5.7476,-5.7915,-5.8017,-5.8017,-5.8321,-5.9066,-5.9133,-5.9471,-6.0216,0.0,0.0,0.0,0.0,-6.1434,-6.1434,-6.2076,-6.2381,-6.2381,-6.2381,-6.2381,-6.2381,-6.2381,-6.2381,-6.2381,-6.2381,-6.2381,-6.2381,-6.2381,-6.2381,-6.2381,-6.2381,-6.2381,-6.2381,-6.2381,-6.2302,-6.203,-6.0953,0.0,0.0,-5.7761,-5.6991,-5.6752,-5.5551,-5.5179,-5.5179,-5.5179,-5.5179,-5.5179,-5.5179,-5.5179,-5.5179,-5.5179,-5.5179,-5.5179,-5.5179,-5.5179,-5.5179,-5.5179,-5.5179,-5.5179,-5.5179,-5.5179,-5.5179,-5.5179,-5.5179,-5.5179,-5.5179,-5.5179,-5.5179,-5.5179,0.0,0.0,-5.4331,-5.3223,-5.2504,-5.2336,-5.1631,-5.1212,-5.1212,-5.1182,-5.1229,-5.1229,-5.1229,-5.1229,-5.1229,-5.1229,-5.1229,-5.1105,-4.7871,-4.6394,0.0,0.0,0.0,0.0,0.0,0.0,0.0,0.0,0.0,0.0,0.0,0.0,0.0,0.0,0.0,-5.7049,-5.7577,-5.7679,-5.7679,-5.7679,-5.7679,-5.7679,-5.7814,-5.8118,-5.8727,-5.8795,-5.9099,-5.9844,-5.9877,-6.0216,-6.1028,-6.1061,-6.1332,-6.1941,-6.211,-6.2178,-6.2178,-6.2313,-6.2381,-6.2381,0.0,0.0,-6.2381,-6.2381,-6.2381,-6.2381,-6.2381,-6.2381,-6.2381,-6.2381,-6.2381,-6.2381,-6.2381,-6.2381,-6.2381,-6.2381,-6.1797,-6.0912,-6.067,-5.9957,-5.8902,-5.748,-5.6991,-5.6752,-5.5551,-5.5179,0.0,-5.5179,-5.5179,-5.5179,-5.5179,-5.5179,-5.5179,-5.5179,-5.5179,-5.5179,-5.5179,-5.5179,-5.5179,-5.5179,-5.5179,-5.5179,-5.5179,-5.5179,-5.5179,-5.5179,-5.5179,-5.5179,-5.5179,-5.5179,-5.5179,-5.5179,-5.5089,-5.501,-5.4999,-5.4759,-5.3702,-5.1609,-5.1309,-5.1197,-5.1197,-5.1178,-5.1229,-5.1229,-5.1229,-5.1229,-5.1229,-5.1229,-5.1229,-5.1105,-4.8247,-4.6929,0.0,0.0,0.0,0.0,0.0,0.0,0.0,0.0,0.0,0.0,0.0,-5.0802,0.0,0.0,-5.5542,-5.756,-5.7881,-5.7881,-5.7881,-5.822,-5.8457,-5.8457,-5.8457,-5.8727,-5.9471,-5.9573,-5.9877,-6.0655,-6.0689,-6.1028,-6.1806,-6.1839,-6.2009,-6.2381,-6.2381,-6.2381,-6.2381,-6.2381,-6.2381,-6.2381,-6.2381,-6.2381,-6.2381,-6.2381,-6.2381,-6.2381,-6.2381,-6.2381,-6.2381,-6.2381,-6.2381,-6.2381,-6.2381,-6.2381,-6.2381,-6.2381,-6.1635,-6.0501,-5.9913,-5.9302,-5.8496,-5.6686,-5.6493,-5.6752,-5.5551,-5.5179,-5.5179,-5.5179,-5.5179,-5.5179,-5.5179,-5.5179,-5.5179,-5.5179,-5.5179,-5.5179,-5.5179,-5.5179,-5.5179,-5.5179,-5.5179,-5.5179,-5.5179,-5.5179,-5.5179,-5.5179,-5.5179,-5.5179,-5.5179,-5.5179,-5.5179,-5.5179,-5.5179,-5.52,-5.52,-5.523,-5.4359,-5.2356,-5.2845,-5.2912,-5.2234,-5.2444,-5.2312,-5.1845,-5.1738,-5.1558,-5.1229,-5.1229,-5.1229,-5.1152,-4.9112,-4.7757,0.0,0.0,0.0,0.0,0.0,0.0,0.0,0.0,-4.8356,-4.8626,-5.0239,-5.2027,-5.3519,-5.4939,-5.6321,-5.7665,-5.8017,-5.8118,-5.8118,-5.8761,-5.9268,-5.9438,-5.9336,-5.9505,-6.025,-6.0317,-6.0655,-6.1467,-6.1501,-6.1772,-6.2347,-6.2381,-6.2381,-6.2381,-6.2381,-6.2448,-6.2618,-6.2618,-6.2685,-6.2821,-6.2821,-6.2821,-6.2821,-6.2821,-6.2821,-6.2821,-6.2821,-6.2821,-6.2821,-6.2821,-6.2821,-6.2821,-6.2821,-6.2821,-6.2787,-6.2482,-6.1635,-6.0459,-5.9478,-5.8992,-5.8451,-5.628,-5.6232,-5.6752,-5.5551,-5.5179,-5.5179,-5.5179,-5.5179,-5.5179,-5.5179,-5.5179,-5.5179,-5.5179,-5.5179,-5.5179,-5.5179,-5.5179,-5.5179,-5.5179,-5.5179,-5.5179,-5.5179,-5.5179,-5.5179,-5.5179,-5.5179,-5.5179,-5.5179,-5.5179,-5.5179,-5.5179,-5.5179,-5.5179,-5.5179,-5.52,-5.4739,-5.3672,-5.4624,-5.4703,-5.3601,-5.3807,-5.3537,-5.278,-5.2504,-5.2127,-5.1588,-5.1468,-5.1409,-5.1362,-4.9611,-4.8189,-4.7309,-4.7309,-4.7309,-4.7309,-4.7309,-4.7459,0.0,0.0,-4.8626,-4.9717,-5.0214,-5.1241,-5.3988,-5.4649,-5.545,-5.7554,-5.8457,-5.8896,-5.8896,-5.9505,-6.025,-6.096,-6.0419,-6.0283,-6.1095,-6.1163,-6.1467,-6.2212,-6.2279,-6.2313,-6.2381,-6.2381,-6.2381,-6.2381,-6.2381,-6.2719,-6.3396,-6.3396,-6.3734,-6.4343,-6.4343,-6.4343,-6.4343,-6.4343,-6.4343,-6.4343,-6.4343,-6.4343,-6.4343,-6.4343,-6.4343,-6.4343,-6.4343,-6.4343,-6.4208,-6.2888,-6.1635,-6.0586,-6.0459,-5.9697,-5.8587,-5.7198,-5.6896,-5.6752,-5.5551,-5.5179,-5.5179,-5.5179,-5.5179,-5.5179,-5.5179,-5.5179,-5.5179,-5.5179,-5.5179,-5.5179,-5.5179,-5.5179,-5.5179,-5.5179,-5.5179,-5.5179,-5.5179,-5.5179,-5.5179,-5.5179,-5.5179,-5.5179,-5.5179,-5.5179,-5.5179,-5.5179,-5.5179,-5.5179,-5.5179,-5.5229,-5.514,-5.497,-5.512,-5.5099,-5.4959,-5.4296,-5.3826,-5.3766,-5.3301,-5.3025,-5.2965,-5.2366,-5.2097,-5.2019,-4.8795,-4.7248,-4.7309,-4.7309,-4.7309,0.0,-4.7578,-4.7938,-4.8237,-4.8865,-4.9583,-5.0076,-5.1031,-5.237,-5.4232,-5.5093,-5.6179,0.0,-5.8795,-5.9167,-5.9573,-6.0317,-6.0926,-6.1264,-6.1366,-6.1569,-6.1907,-6.1941,-6.2076,-6.2381,-6.2381,-6.2381,-6.2381,-6.2821,-6.3057,-6.3057,-6.3463,-6.3835,-6.414,-6.414,-6.4309,-6.4613,-6.4613,-6.4613,-6.4613,-6.4613,-6.4613,-6.4613,-6.4613,-6.4613,-6.4613,-6.4613,-6.4613,-6.4613,-6.4613,-6.4613,-6.4431,-6.3099,-6.1795,-6.0631,-5.9859,-5.8829,-5.7666,-5.6785,-5.6545,-5.6384,-5.5501,-5.5179,-5.5179,-5.5179,-5.5179,-5.5179,-5.5179,-5.5179,-5.5179,-5.5179,-5.5179,-5.5179,-5.5179,-5.5179,-5.5179,-5.5179,-5.5179,-5.5179,-5.5179,-5.5179,-5.5179,-5.5179,-5.5179,-5.5179,-5.5179,-5.5179,-5.5179,-5.5179,-5.5179,-5.5179,-5.5179,-5.5179,-5.5179,-5.5179,-5.519,-5.518,-5.518,-5.485,-5.449,-5.4051,-5.3882,-5.3593,-5.3174,-5.2905,-5.2785,-5.2755,-5.1326,-5.0205,-4.7309,-4.7309,0.0,-4.7519,-4.7938,-4.8386,-4.8745,-4.9553,-5.0255,-5.0435,-5.1773,-5.3253,-5.4379,-5.5653,-5.7083,-5.871,-5.937,-5.9844,-6.0351,-6.1095,-6.1603,-6.1603,-6.2076,-6.2381,-6.2381,-6.2381,-6.2381,-6.2381,-6.2584,-6.2685,-6.2685,-6.3396,-6.3802,-6.3802,-6.4343,-6.4681,-6.4884,-6.4884,-6.5019,-6.5222,-6.5222,-6.5222,-6.5222,-6.5222,-6.5222,-6.5222,-6.5222,-6.5222,-6.5222,-6.5222,-6.5222,-6.5222,-6.5222,-6.4982,-6.4497,-6.3265,-6.1983,-6.0767,-5.9804,-5.8408,-5.7034,-5.6585,-5.6436,-5.6346,-5.5867,-5.5718,-5.5718,-5.5718,-5.5718,-5.5658,-5.5257,-5.5197,-5.5167,-5.5209,-5.5179,-5.5179,-5.5179,-5.5179,-5.5179,-5.5179,-5.5179,-5.5179,-5.5179,-5.5179,-5.5179,-5.5179,-5.5179,-5.5179,-5.5179,-5.5179,-5.5179,-5.5179,-5.5179,-5.5179,-5.5179,-5.5179,-5.5179,-5.5179,-5.5179,-5.5179,-5.5179,-5.5179,-5.497,-5.4491,-5.4491,-5.4251,-5.3743,-5.3563,-5.3473,-5.3443,-5.2891,-5.185,-4.7309,0.0,-4.7459,-4.8087,-4.8267,-4.8626,-4.9837,-5.0166,-5.0375,-5.105,-5.2078,-5.3253,-5.4379,-5.6116,-5.7713,-5.8811,-6.025,-6.1231,-6.1264,-6.1907,-6.2347,-6.2347,-6.2381,-6.2381,0.0,-6.2381,-6.2381,-6.2381,-6.3057,-6.3497,-6.3497,-6.4174,-6.458,-6.458,-6.458,-6.4952,-6.5662,-6.5662,-6.6034,-6.6745,-6.6745,-6.6745,-6.6745,-6.6745,-6.6745,-6.6745,-6.6745,-6.6745,-6.6745,-6.6745,-6.6745,-6.6745,-6.6745,-6.5962,-6.4712,-6.3464,-6.2092,-6.0892,-6.0846,-5.9171,-5.7094,-5.7064,-5.7064,-5.7064,-5.7034,-5.7034,-5.7034,-5.7034,-5.7034,-5.6773,-5.5529,-5.521,-5.5202,-5.5188,-5.5179,-5.5179,-5.5179,-5.5179,-5.5179,-5.5179,-5.5179,-5.5179,-5.5179,-5.5179,-5.5179,-5.5179,-5.5179,-5.5179,-5.5179,-5.5179,-5.5179,-5.5179,-5.5179,-5.5179,-5.5179,-5.5179,-5.5179,-5.5179,-5.5179,-5.5179,-5.5179,-5.5179,-5.5179,-5.5149,-5.5149,-5.5149,-5.5119,-5.4491,-5.4192,-5.4112,-5.2092,-5.0388,-4.7309,0.0,-4.7997,-4.8237,-4.8955,-4.9657,-5.0076,-5.0524,-5.1162,-5.2139,-5.3596,-5.5123,-5.6238,-5.7945,-5.9497,-6.0376,-6.096,-6.1467,-6.1941,-6.2245,-6.2381,-6.2381,-6.2381,0.0,0.0,0.0,0.0,-6.3125,-6.3802,-6.4241,-6.4241,-6.4918,-6.5324,-6.5324,-6.5797,-6.6203,-6.644,-6.644,-6.6542,-6.6812,-6.6812,-6.6812,-6.6812,-6.6812,-6.6812,-6.6812,-6.6812,-6.632,-6.5559,-6.5559,-6.5036,-6.4276,-6.4276,-6.4045,-6.3591,-6.3148,-6.2153,-6.0858,-6.0014,-5.9144,-5.8351,-5.7932,-5.7782,-5.7693,-5.7244,-5.7094,-5.7094,-5.7094,-5.7094,-5.7004,-5.6571,-5.6258,-5.6087,-5.6072,-5.6466,-5.6792,-5.6179,-5.5948,-5.5718,-5.5269,-5.5179,-5.5179,-5.5179,-5.5179,-5.5179,-5.5179,-5.5179,-5.5179,-5.5179,-5.5179,-5.5179,-5.5179,-5.5179,-5.5179,-5.5179,-5.5179,-5.5179,-5.5179,-5.5179,-5.5179,-5.5179,-5.5179,-5.5179,-5.5179,-5.5179,-5.5179,-5.5179,-5.497,-5.485,-5.485,-5.4128,-5.3033,-4.7578,-4.7967,-4.8386,-4.8865,-4.9568,-5.0255,-5.0495,-5.1225,-5.2018,-5.2723,-5.474,-5.6514,-5.7277,-5.9087,-6.0689,-6.1231,-6.1535,-6.1839,-6.2313,-6.2381,-6.2381,-6.2381,-6.2618,-6.299,0.0,0.0,0.0,-6.3937,-6.458,-6.4986,-6.4986,-6.5696,-6.6102,-6.6102,-6.6542,-6.6812,-6.6812,-6.6812,-6.6812,-6.6812,-6.6812,-6.6812,-6.6812,-6.6812,-6.6812,-6.6812,-6.6812,-6.632,-6.5559,-6.5081,-6.4414,-6.3638,-6.3196,-6.2714,-6.2291,-6.2291,-6.1477,-6.0307,-5.9917,-5.9469,-5.9039,-5.862,-5.8471,-5.8381,-5.7962,-5.7812,-5.7812,-5.7812,-5.7812,-5.7752,-5.7513,-5.7258,-5.7027,-5.6982,-5.7236,-5.7453,-5.7062,-5.6569,-5.6047,-5.5628,-5.5359,-5.5179,-5.5179,-5.5179,-5.5179,-5.5179,-5.5179,-5.5179,-5.5179,-5.5179,-5.5179,-5.5179,-5.5179,-5.5179,-5.5179,-5.5179,-5.5179,-5.5179,-5.5179,-5.5179,-5.5179,-5.5179,-5.5179,-5.5179,-5.5179,-5.5179,-5.5179,-5.5179,-5.5179,-5.5179,-5.5179,-5.4406,-4.8117,-4.8327,-4.8656,-4.9867,-5.0226,-5.0451,-5.1126,-5.2109,-5.2945,-5.3108,-5.5407,-5.7463,0.0,0.0,-6.1366,-6.1366,-6.1941,-6.2381,-6.2381,-6.2381,-6.2415,0.0,0.0,0.0,0.0,0.0,0.0,-6.4749,0.0,-6.5764,-6.5764,-6.644,-6.6812,-6.6812,-6.6812,-6.6812,-6.6812,-6.6846,-6.688,-6.6948,-6.6948,-6.6948,-6.6948,-6.6948,-6.6872,-6.6829,-6.6796,-6.6677,-6.643,-6.5215,-6.4688,-6.4505,-6.3259,-6.1995,-6.0887,-6.0887,-6.015,-5.9231,-6.0484,-6.0097,-5.9099,-5.9099,-5.9099,-5.9099,-5.9099,-5.9099,-5.9099,-5.9099,-5.9099,-5.8949,-5.8351,-5.8171,-5.8082,-5.7903,-5.7551,-5.7296,-5.7745,-5.7041,-5.6308,-5.6248,-5.5658,-5.5179,-5.5179,-5.5179,-5.5179,-5.5179,-5.5179,-5.5179,-5.5179,-5.5179,-5.5179,-5.5179,-5.5179,-5.5179,-5.5179,-5.5179,-5.5179,-5.5179,-5.5179,-5.5179,-5.5179,-5.5179,-5.5179,-5.5179,-5.5179,-5.5179,-5.5179,-5.5179,-5.5179,-5.5179,-5.5179,-5.4406,-4.8117,-4.8626,-4.9224,-4.9986,-5.0554,-5.1222,-5.2229,-5.2678,-5.3552,-5.5795,-5.7298,-5.8668,0.0,0.0,0.0,-6.211,-6.2279,0.0,-6.2381,-6.2381,0.0,-6.3159,0.0,-6.3937,-6.5019,-6.5459,0.0,0.0,-6.6406,-6.6542,-6.6542,-6.6711,-6.6812,-6.6812,-6.6812,-6.6812,-6.6812,-6.7354,-6.7929,-6.8504,-6.8504,-6.8504,-6.8504,-6.8504,-6.7957,-6.6929,-6.641,-6.5059,-6.3168,-6.2333,-6.1445,-6.0567,-6.0233,-5.9895,-5.9576,-5.9576,-5.9392,-5.9153,-5.9469,-5.9392,-5.9099,-5.9099,-5.9099,-5.9099,-5.9099,-5.9099,-5.9099,-5.9099,-5.9099,-5.9069,-5.889,-5.886,-5.883,-5.8764,-5.8704,-5.8471,-5.8105,-5.7782,-5.7334,-5.6346,-5.5658,-5.5179,-5.5179,-5.5179,-5.5179,-5.5179,-5.5179,-5.5179,-5.5179,-5.5179,-5.5179,-5.5179,-5.5179,-5.5179,-5.5179,-5.5179,-5.5179,-5.5179,-5.5179,-5.5179,-5.5179,-5.5179,-5.5179,-5.5179,-5.5179,-5.5179,-5.5179,-5.5179,-5.5179,-5.5179,-5.5179,-5.4406,-4.8536,-4.9194,-4.9853,-5.0465,-5.0913,-5.1526,-5.2664,-5.3515,-5.474,-5.6938,-5.8654,0.0,-6.1081,-6.1907,0.0,0.0,0.0,0.0,-6.2381,-6.2685,-6.3057,0.0,-6.4072,0.0,-6.5595,-6.6,-6.6339,0.0,-6.6812,-6.6812,-6.6812,-6.7117,-6.7286,-6.7286,-6.7624,-6.7827,-6.7827,-6.8233,-6.8639,-6.9113,-6.9113,-6.9113,-6.9113,-6.9113,-6.8317,-6.6996,0.0,-6.5206,-6.3158,-6.1939,-6.1049,-6.0289,-5.9405,-5.9099,-5.9099,-5.9099,-5.9099,-5.9099,-5.9099,-5.9099,-5.9099,-5.9099,-5.9099,-5.9099,-5.9099,-5.9099,-5.9099,-5.9099,-5.9099,-5.9099,-5.9099,-5.9099,-5.9099,-5.9099,-5.9099,-5.9009,-5.865,-5.8321,-5.7723,-5.6436,-5.5867,-5.5538,-5.5239,-5.5179,-5.5179,-5.5179,-5.5179,-5.5179,-5.5179,-5.5179,-5.5179,-5.5179,-5.5179,-5.5179,-5.5179,-5.5179,-5.5179,-5.5179,-5.5179,-5.5179,-5.5179,-5.5179,-5.5179,-5.5179,-5.5179,-5.5179,-5.5179,-5.5179,-5.5179,-5.5179,-5.5179,-5.4743,-4.9239,-4.9793,-5.0345,-5.1003,-5.1229,-5.1572,-5.2935,-5.4514,-5.6131,-5.7621,0.0,-6.1332,-6.1434,-6.1975,-6.2381,-6.2381,0.0,-6.2381,-6.2381,-6.3024,-6.3565,-6.3632,-6.485,-6.573,-6.5831,-6.644,-6.6846,-6.6948,-6.6948,-6.6948,-6.6948,-6.7658,-6.8064,-6.8064,-6.8741,-6.9147,-6.9248,-6.9248,-6.9316,-6.9383,-6.9383,-6.9383,-6.9383,-6.9208,-6.8359,-6.6977,-6.6737,0.0,-6.4361,-6.2602,-6.1853,-6.1541,-5.9885,-5.9189,-5.9099,-5.9099,-5.9099,-5.9099,-5.9099,-5.9099,-5.9099,-5.9099,-5.9099,-5.9099,-5.9099,-5.9099,-5.9099,-5.9099,-5.9099,-5.9099,-5.9099,-5.9099,-5.9099,-5.9099,-5.9099,-5.9099,-5.9099,-5.859,-5.7752,-5.6526,-5.6226,-5.5957,-5.5299,-5.5179,-5.5179,-5.5179,-5.5179,-5.5179,-5.5179,-5.5179,-5.5179,-5.5179,-5.5179,-5.5179,-5.5179,-5.5179,-5.5179,-5.5179,-5.5179,-5.5179,-5.5179,-5.5179,-5.5179,-5.5179,-5.5179,-5.5179,-5.5179,-5.5179,-5.5179,-5.5179,-5.5179,-5.5078,-4.9733,-5.0106,-5.0345,-5.1003,-5.1229,-5.1924,-5.4597,-5.5464,0.0,0.0,-6.0979,-6.1501,-6.2076,-6.2313,-6.2381,-6.2381,-6.2381,-6.2381,-6.2381,0.0,-6.3734,0.0,0.0,0.0,0.0,0.0,0.0,0.0,0.0,-6.7726,-6.7726,-6.847,-6.8876,-6.8876,-6.9045,-6.9383,-6.9992,-6.9992,-7.0331,-7.0939,-7.0939,-7.0939,-7.0895,-6.9723,-6.8437,-6.7085,-6.5353,0.0,-6.2521,-6.1609,-6.0952,-6.0409,-6.0046,-5.9578,-5.9099,-5.9099,-5.9099,-5.9099,-5.9099,-5.9099,-5.9099,-5.9099,-5.9099,-5.9099,-5.9099,-5.9099,-5.9099,-5.9099,-5.9099,-5.9099,-5.9099,-5.9099,-5.9099,-5.9099,-5.9099,-5.9099,-5.9099,-5.859,-5.7872,-5.7094,-5.6526,-5.5957,-5.5299,-5.5179,-5.5179,-5.5179,-5.5179,-5.5179,-5.5179,-5.5179,-5.5179,-5.5179,-5.5179,-5.5179,-5.5179,-5.5179,-5.5179,-5.5179,-5.5179,-5.5179,-5.5179,-5.5179,-5.5179,-5.5179,-5.5179,-5.5179,-5.5179,-5.5179,-5.5179,-5.5179,-5.5179,-5.456,-5.0016,-5.0435,-5.0794,-5.1139,-5.1229,-5.197,-5.5014,0.0,0.0,0.0,-6.1603,-6.1975,-6.2313,-6.2381,0.0,-6.2381,-6.2381,0.0,0.0,0.0,0.0,0.0,0.0,0.0,0.0,0.0,0.0,0.0,0.0,-6.8944,-6.8538,-6.9248,-6.9857,-7.0229,-7.0263,-7.0432,-7.077,-7.077,-7.0591,-7.0216,-7.0216,-6.9855,-6.9121,-6.8454,-6.7419,-6.6016,-6.5062,0.0,-6.254,-6.1912,-6.1224,-6.0595,-6.0236,-5.9668,-5.9099,-5.9099,-5.9099,-5.9099,-5.9099,-5.9099,-5.9099,-5.9099,-5.9099,-5.9099,-5.9099,-5.9099,-5.9099,-5.9099,-5.9099,-5.9099,-5.9099,-5.9099,-5.9099,-5.9099,-5.9099,-5.9099,-5.9099,-5.886,-5.8321,-5.7304,-5.6855,-5.6346,-5.5359,-5.5179,-5.5179,-5.5179,-5.5179,-5.5179,-5.5179,-5.5179,-5.5179,-5.5179,-5.5179,-5.5179,-5.5179,-5.5179,-5.5179,-5.5179,-5.5179,-5.5179,-5.5179,-5.5179,-5.5179,-5.5179,-5.5179,-5.5179,-5.5179,-5.5179,-5.5179,-5.5179,-5.5179,-5.4794,-5.0375,-5.0794,-5.1229,-5.1229,-5.1229,-5.1985,-5.4857,-5.6198,0.0,0.0,-6.1818,-6.2381,-6.2381,-6.2381,-6.2381,0.0,-6.2381,-6.2651,0.0,0.0,0.0,0.0,0.0,0.0,0.0,0.0,0.0,0.0,0.0,0.0,-6.962,-7.0128,-7.0703,-7.1312,-7.1312,-7.1176,-7.0837,-7.0837,-7.017,-6.8748,-6.8748,-6.8256,-6.7164,-6.6855,-6.6154,-6.5056,-6.4813,0.0,0.0,-6.251,-6.1822,-6.1074,-6.0505,-5.9817,-5.9099,-5.9099,-5.9099,-5.9099,-5.9099,-5.9099,-5.9099,-5.9099,-5.9099,-5.9099,-5.9099,-5.9099,-5.9099,-5.9099,-5.9099,-5.9099,-5.9099,-5.9099,-5.9099,-5.9099,-5.9099,-5.9099,-5.9099,-5.9099,-5.871,-5.7363,-5.7094,-5.6705,-5.5418,-5.5179,-5.5179,-5.5179,-5.5179,-5.5179,-5.5179,-5.5179,-5.5179,-5.5179,-5.5179,-5.5179,-5.5179,-5.5179,-5.5179,-5.5179,-5.5179,-5.5179,-5.5179,-5.5179,-5.5179,-5.5179,-5.5179,-5.5179,-5.5179,-5.5179,-5.5179,-5.5179,-5.5179,-5.4845,-5.096,-5.1169,-5.1229,-5.1229,-5.1229,-5.1904,-5.4482,0.0,0.0,-6.0107,-6.1568,-6.2381,-6.2381,-6.2381,-6.2381,-6.2381,0.0,-6.2651,0.0,0.0,0.0,0.0,0.0,0.0,0.0,0.0,0.0,0.0,0.0,0.0,-7.1109,-7.1176,-7.1244,-7.1312,-7.1312,-7.0699,-6.9409,-6.9409,-6.8699,-6.7368,-6.7368,-6.7317,-6.7164,-6.5888,-6.5219,-6.5032,-6.3789,0.0,0.0,-6.3019,-6.2241,-6.1104,-6.1044,-6.0236,-5.9099,-5.9099,-5.9099,-5.9099,-5.9099,-5.9099,-5.9099,-5.9099,-5.9099,-5.9099,-5.9099,-5.9099,-5.9099,-5.9099,-5.9099,-5.9099,-5.9099,-5.9099,-5.9099,-5.9099,-5.9099,-5.9099,-5.9099,-5.9099,-5.871,-5.7363,-5.7094,-5.6705,-5.5418,-5.5179,-5.5179,-5.5179,-5.5179,-5.5179,-5.5179,-5.5179,-5.5179,-5.5179,-5.5179,-5.5179,-5.5179,-5.5179,-5.5179,-5.5179,-5.5179,-5.5179,-5.5179,-5.5179,-5.5179,-5.5179,-5.5179,-5.5179,-5.5179,-5.5179,-5.5179,-5.5179,-5.5179,-5.3727,-5.1139,-5.1229,-5.1229,-5.1229,-5.1498,-5.2339,-5.4499,0.0,-5.6929,-5.9076,-5.987,-6.0459,-6.116,-6.1317,-6.1521,-6.2302,0.0,0.0,-6.4072,0.0,0.0,0.0,0.0,0.0,0.0,0.0,0.0,0.0,0.0,0.0,-7.1312,-7.1312,-7.0882,-7.0043,-7.0043,-6.9394,-6.7974,-6.8007,-6.7317,-6.5941,-6.5941,-6.5544,-6.4734,-6.4153,-6.3902,-6.3845,-6.3337,0.0,0.0,-6.3079,-6.2301,-6.1104,-6.1104,-6.0296,-5.9099,-5.9099,-5.9099,-5.9099,-5.9099,-5.9099,-5.9099,-5.9099,-5.9099,-5.9099,-5.9099,-5.9099,-5.9099,-5.9099,-5.9099,-5.9099,-5.9099,-5.9099,-5.9099,-5.9099,-5.9099,-5.9099,-5.9099,-5.88,-5.8231,-5.7274,-5.6795,-5.6256,-5.5359,-5.5179,-5.5179,-5.5179,-5.5179,-5.5179,-5.5179,-5.5179,-5.5179,-5.5179,-5.5179,-5.5179,-5.5179,-5.5179,-5.5179,-5.5179,-5.5179,-5.5179,-5.5179,-5.5179,-5.5179,-5.5179,-5.5179,-5.5179,-5.5179,-5.5179,-5.5179,-5.5179,-5.5179,-5.4068,-5.1229,-5.1229,-5.1229,-5.1229,-5.1708,-5.2605,0.0,0.0,-5.6435,-5.7927,-5.8542,-5.9081,-5.9913,-6.0374,-6.0787,0.0,0.0,-6.3647,-6.4035,0.0,0.0,0.0,0.0,-6.7354,0.0,0.0,0.0,0.0,0.0,0.0,-7.0699,-7.0699,-7.0216,-6.9217,-6.9217,-6.8355,-6.6627,-6.6574,-6.5888,-6.4512,-6.4512,-6.3984,-6.3079,-6.3079,-6.3079,-6.3079,-6.3079,0.0,0.0,-6.2869,-6.2121,-6.1104,-6.0894,-6.0116,-5.9099,-5.9099,-5.9099,-5.9099,-5.9099,-5.9099,-5.9099,-5.9099,-5.9099,-5.9099,-5.9099,-5.9099,-5.9099,-5.9099,-5.9099,-5.9099,-5.9099,-5.9099,-5.9099,-5.9099,-5.9099,-5.9099,-5.9099,-5.859,-5.7932,-5.7244,-5.6585,-5.5957,-5.5299,-5.5179,-5.5179,-5.5179,-5.5179,-5.5179,-5.5179,-5.5179,-5.5179,-5.5179,-5.5179,-5.5179,-5.5179,-5.5179,-5.5179,-5.5179,-5.5179,-5.5179,-5.5179,-5.5179,-5.5179,-5.5179,-5.5179,-5.5179,-5.5179,-5.5179,-5.5179,-5.5179,-5.5179,-5.4171,-5.1229,-5.1229,-5.1229,-5.1229,-5.1708,-5.2366,0.0,0.0,-5.6201,-5.6884,-5.7993,-5.8812,-5.8812,-5.9784,-6.0204,-5.9036,-6.1423,0.0,-6.2878,0.0,0.0,0.0,0.0,0.0,0.0,0.0,0.0,0.0,0.0,0.0,-6.9313,-6.9217,-6.9217,-6.9217,-6.9217,-6.7874,-6.5165,-6.5111,-6.4457,-6.3137,-6.3137,-6.3137,-6.3079,-6.3079,-6.3079,0.0,0.0,0.0,0.0,-6.2361,-6.1702,-6.1044,-6.0356,-5.9697,-5.9099,-5.9099,-5.9099,-5.9099,-5.9099,-5.9099,-5.9099,-5.9099,-5.9099,-5.9099,-5.9099,-5.9099,-5.9099,-5.9099,-5.9099,-5.9099,-5.9099,-5.9099,-5.9099,-5.9099,-5.9099,-5.9099,-5.9099,-5.859,-5.7932,-5.7244,-5.6585,-5.5957,-5.5299,-5.5179,-5.5179,-5.5179,-5.5179,-5.5179,-5.5179,-5.5179,-5.5179,-5.5179,-5.5179,-5.5179,-5.5179,-5.5179,-5.5179,-5.5179,-5.5179,-5.5179,-5.5179,-5.5179,-5.5179,-5.5179,-5.5179,-5.5179,-5.5179,-5.5179,-5.5179,-5.5179,-5.5179,-5.3623,-5.1229,-5.1229,-5.1229,-5.1229,-5.2067,-5.2935,-5.3144,-5.4356,-5.5527,-5.5739,-5.6085,-5.659,-5.7386,-5.79,-5.8282,-5.8722,-6.0437,0.0,0.0,0.0,0.0,0.0,0.0,0.0,0.0,0.0,0.0,0.0,0.0,0.0,-6.9217,-6.9217,-6.8355,-6.6438,-6.6385,-6.5544,-6.3732,-6.3732,-6.3535,-6.3079,-6.3079,-6.3079,-6.3079,-6.3079,-6.3079,0.0,0.0,0.0,0.0,-6.2361,-6.1702,-6.1044,-6.0356,-5.9668,-5.9099,-5.9099,-5.9099,-5.9099,-5.9099,-5.9099,-5.9099,-5.9099,-5.9099,-5.9099,-5.9099,-5.9099,-5.9099,-5.9099,-5.9099,-5.9099,-5.9099,-5.9099,-5.9099,-5.9099,-5.9099,-5.8979,-5.853,-5.7902,-5.7244,-5.6585,-5.5957,-5.5448,-5.5239,-5.5179,-5.5179,-5.5179,-5.5179,-5.5179,-5.5179,-5.5179,-5.5179,-5.5179,-5.5179,-5.5179,-5.5179,-5.5179,-5.5179,-5.5179,-5.5179,-5.5179,-5.5179,-5.5179,-5.5179,-5.5179,-5.5179,-5.5179,-5.5179,-5.5179,-5.5179,-5.5128,-5.3121,-5.159,0.0,-5.1229,-5.1289,-5.1528,-5.2396,-5.3264,-5.3503,-5.4401,-5.5179,-5.5179,-5.5179,-5.5431,-5.6183,-5.6704,-5.7086,-5.7418,-5.9395,0.0,0.0,0.0,0.0,-6.3405,0.0,0.0,0.0,0.0,0.0,0.0,0.0,0.0,-6.7673,-6.7673,-6.6647,-6.4401,-6.4813,-6.4457,-6.3137,-6.3079,-6.3079,-6.3079,-6.3079,-6.3079,-6.3079,-6.3079,-6.3079,0.0,0.0,0.0,0.0,-6.2002,-6.1343,-6.0655,-5.9967,-5.9458,-5.9099,-5.9099,-5.9099,-5.9099,-5.9099,-5.9099,-5.9099,-5.9099,-5.9099,-5.9099,-5.9099,-5.9099,-5.9099,-5.9099,-5.9099,-5.9099,-5.9099,-5.9099,-5.9099,-5.9099,-5.9099,-5.8919,-5.8261,-5.7573,-5.6915,-5.6338,-5.5658,-5.5179,-5.5179,-5.5179,-5.5179,-5.5179,-5.5179,-5.5179,-5.5179,-5.5179,-5.5179,-5.5179,-5.5179,-5.5179,-5.5179,-5.5179,-5.5179,-5.5179,-5.5179,-5.5179,-5.5179,-5.5179,-5.5179,-5.5179,-5.5179,-5.5179,-5.5179,-5.5179,-5.4926,-5.4304,-5.1835,-5.038,0.0,-5.1349,-5.1498,-5.2127,-5.2755,-5.3414,-5.4072,-5.473,0.0,-5.5179,-5.5179,-5.5179,-5.5179,-5.6134,-5.6493,-5.5381,-5.8252,-6.0234,0.0,-6.1145,0.0,0.0,-6.4374,0.0,0.0,0.0,0.0,0.0,0.0,0.0,-6.5165,-6.5111,-6.4512,-6.3137,-6.432,-6.4346,-6.3137,-6.3079,-6.3079,-6.3079,-6.3079,-6.3079,-6.3079,-6.3079,-6.3049,0.0,0.0,0.0,0.0,-6.1313,-6.0655,-6.0027,-5.9368,-5.9099,-5.9099,-5.9099,-5.9099,-5.9099,-5.9099,-5.9099,-5.9099,-5.9099,-5.9099,-5.9099,-5.9099,-5.9099,-5.9099,-5.9099,-5.9099,-5.9099,-5.9099,-5.9099,-5.9099,-5.9099,-5.9069,-5.886,-5.8201,-5.7513,-5.6855,-5.6226,-5.5598,-5.5179,-5.5179,-5.5179,-5.5179,-5.5179,-5.5179,-5.5179,-5.5179,-5.5179,-5.5179,-5.5179,-5.5179,-5.5179,-5.5179,-5.5179,-5.5179,-5.5179,-5.5179,-5.5179,-5.5179,-5.5179,-5.5179,-5.5179,-5.5179,-5.5179,-5.5179,-5.5078,-5.4355,-5.2963,-5.1318,-4.9847,-5.2755,0.0,-5.2755,-5.2905,-5.3473,-5.4012,0.0,-5.473,-5.5179,-5.5179,-5.5179,-5.5179,-5.5179,-5.5431,-5.5551,-5.5229,-5.6788,-5.7912,-5.7635,0.0,0.0,-6.1563,-6.1471,-6.1944,0.0,0.0,0.0,0.0,0.0,-6.5436,-6.5111,-6.5111,-6.4512,-6.3137,-6.3394,-6.3451,-6.3079,-6.3079,-6.3079,-6.3079,-6.3079,-6.3079,-6.3079,-6.3079,-6.281,0.0,0.0,0.0,-6.1283,-6.0595,-6.0236,-6.0027,-5.9368,-5.9099,-5.9099,-5.9099,-5.9099,-5.9099,-5.9099,-5.9099,-5.9099,-5.9099,-5.9099,-5.9099,-5.9099,-5.9099,-5.9099,-5.9099,-5.9099,-5.9099,-5.9099,-5.9099,-5.9099,-5.9099,-5.871,-5.8171,-5.7483,-5.6825,-5.6196,-5.5538,-5.5299,-5.5179,-5.5179,-5.5179,-5.5179,-5.5179,-5.5179,-5.5179,-5.5179,-5.5179,-5.5179,-5.5179,-5.5179,-5.5179,-5.5179,-5.5179,-5.5179,-5.5179,-5.5179,-5.5179,-5.5179,-5.5179,-5.5179,-5.5179,-5.5179,-5.5179,-5.5179,-5.4068,-5.3361,-5.2963,-5.024,-4.8851,-5.3653,-5.3414,-5.3264,-5.3563,-5.3922,-5.4281,-5.4581,-5.494,-5.5179,-5.5179,-5.5179,-5.5179,-5.5179,-5.5179,-5.5179,-5.5179,-5.6256,0.0,0.0,0.0,-5.9339,-6.0045,-6.0126,0.0,0.0,0.0,0.0,0.0,0.0,-6.4209,-6.4209,-6.4209,-6.3845,-6.3137,-6.3079,-6.3079,-6.3079,-6.3079,-6.3079,-6.3079,-6.3079,-6.3079,-6.3079,-6.278,-6.2421,0.0,0.0,0.0,-6.0625,-6.0236,-5.9907,-5.9608,-5.9249,-5.9099,-5.9099,-5.9099,-5.9099,-5.9099,-5.9099,-5.9099,-5.9099,-5.9099,-5.9099,-5.9099,-5.9099,-5.9099,-5.9099,-5.9099,-5.9099,-5.9099,-5.9099,-5.9099,-5.9039,-5.871,-5.8381,-5.7872,-5.6885,-5.6406,-5.5987,-5.5329,-5.5179,-5.5179,-5.5179,-5.5179,-5.5179,-5.5179,-5.5179,-5.5179,-5.5179,-5.5179,-5.5179,-5.5179,-5.5179,-5.5179,-5.5179,-5.5179,-5.5179,-5.5179,-5.5179,-5.5179,-5.5179,-5.5179,-5.5179,-5.5179,-5.5179,-5.4845,-5.42,-5.3413,-5.2295,-5.0906,-4.9251,-4.8152,-5.4371,-5.3922,-5.3623,-5.4221,-5.4371,-5.4491,-5.5059,0.0,0.0,0.0,0.0,0.0,0.0,-5.5179,0.0,0.0,0.0,0.0,-5.8919,-5.9099,-5.9099,-5.9099,0.0,0.0,0.0,0.0,0.0,0.0,0.0,-6.3079,-6.3079,-6.3079,-6.3079,-6.3079,-6.3079,-6.3019,-6.2929,-6.3019,-6.3079,-6.3079,-6.2989,-6.2929,-6.2899,-6.2241,-6.1882,-6.1762,0.0,0.0,-5.9937,-5.9937,-5.9608,-5.9099,-5.9099,-5.9099,-5.9099,-5.9099,-5.9099,-5.9099,-5.9099,-5.9099,-5.9099,-5.9099,-5.9099,-5.9099,-5.9099,-5.9099,-5.9099,-5.9099,-5.9099,-5.9099,-5.9099,-5.9039,-5.88,-5.8261,-5.7962,-5.7513,-5.6406,-5.6107,-5.5867,-5.5299,-5.5179,-5.5179,-5.5179,-5.5179,-5.5179,-5.5179,-5.5179,-5.5179,-5.5179,-5.5179,-5.5179,-5.5179,-5.5179,-5.5179,-5.5179,-5.5179,-5.5179,-5.5179,-5.5179,-5.5179,-5.5179,-5.5179,-5.5179,-5.5179,-5.4976,-5.4252,-5.3016,-5.2509,-5.1016,-4.8474,-4.8268,-4.7475,-5.5029,-5.497,-5.491,-5.4999,-5.5029,-5.5059,-5.5179,-5.5179,0.0,0.0,0.0,0.0,0.0,-5.5179,-5.5388,0.0,0.0,-5.8231,0.0,0.0,-5.9099,-5.9099,0.0,0.0,0.0,0.0,0.0,0.0,0.0,-6.3079,-6.3079,-6.3079,-6.3079,-6.3079,-6.3079,-6.281,-6.2241,-6.281,-6.3079,-6.3079,-6.251,-6.2241,-6.2211,-6.1553,-6.0954,-6.0386,0.0,-5.9877,-5.9249,-5.9249,-5.9189,-5.9099,-5.9099,-5.9099,-5.9099,-5.9099,-5.9099,-5.9099,-5.9099,-5.9099,-5.9099,-5.9099,-5.9099,-5.9099,-5.9099,-5.9099,-5.9099,-5.9099,-5.9099,-5.9099,-5.9099,-5.868,-5.8261,-5.8141,-5.7274,-5.6406,-5.6226,-5.5718,-5.5299,-5.5209,-5.5179,-5.5179,-5.5179,-5.5179,-5.5179,-5.5179,-5.5179,-5.5179,-5.5179,-5.5179,-5.5179,-5.5179,-5.5179,-5.5179,-5.5179,-5.5179,-5.5179,-5.5179,-5.5179,-5.5179,-5.5179,-5.5179,-5.5179,-5.5179,-5.3964,-5.3256,-5.2963,-5.0407,-4.8935,-4.8474,-4.7205,-4.6541,-5.5179,-5.5179,-5.5179,-5.5179,-5.5179,-5.5179,-5.5179,-5.5179,0.0,0.0,0.0,0.0,0.0,0.0,-5.5508,-5.6496,0.0,-5.8351,-5.9009,-5.9099,-5.9099,0.0,0.0,0.0,0.0,0.0,0.0,0.0,0.0,0.0,-6.2032,-6.2032,-6.2032,-6.2032,-6.2032,-6.1882,-6.1553,-6.1882,-6.2032,-6.2002,-6.1702,-6.1553,-6.1553,-6.0864,-6.0386,-6.0057,0.0,-5.9368,-5.9099,-5.9099,-5.9099,-5.9099,-5.9099,-5.9099,-5.9099,-5.9099,-5.9099,-5.9099,-5.9099,-5.9099,-5.9099,-5.9099,-5.9099,-5.9099,-5.9099,-5.886,-5.859,-5.859,-5.859,-5.859,-5.859,-5.8082,-5.7483,-5.7154,-5.6615,-5.6128,-5.5718,-5.5418,-5.5179,-5.5179,-5.5179,-5.5179,-5.5179,-5.5179,-5.5179,-5.5179,-5.5179,-5.5179,-5.5179,-5.5179,-5.5179,-5.5179,-5.5179,-5.5179,-5.5179,-5.5179,-5.5179,-5.5179,-5.5179,-5.5179,-5.5179,-5.5179,-5.5179,-5.5179,-5.4509,-5.3808,-5.3016,-5.0796,-4.9308,-4.8474,-4.6968,-4.6301,-5.5179,-5.5179,-5.5179,-5.5179,-5.5179,-5.5179,-5.5179,-5.5179,-5.5179,0.0,0.0,0.0,0.0,-5.5448,0.0,-5.6944,-5.7812,-5.853,-5.9039,-5.9099,-5.9099,0.0,0.0,0.0,0.0,0.0,0.0,0.0,0.0,0.0,-6.1104,-6.1104,-6.1104,-6.1104,-6.1104,-6.1044,-6.0864,-6.0864,-6.0954,-6.1104,-6.0954,-6.0864,-6.0835,-6.0176,-5.9847,-5.9817,-5.9308,-5.9099,-5.9099,-5.9099,-5.9099,-5.9099,-5.9099,-5.9099,-5.9099,-5.9099,-5.9099,-5.9099,-5.9099,-5.9099,-5.9099,-5.9099,-5.9099,-5.9069,-5.8919,-5.853,-5.8082,-5.7932,-5.7782,-5.7693,-5.7842,-5.7393,-5.6765,-5.6286,-5.6098,-5.5807,-5.5299,-5.5179,-5.5179,-5.5179,-5.5179,-5.5179,-5.5179,-5.5179,-5.5179,-5.5179,-5.5179,-5.5179,-5.5179,-5.5179,-5.5179,-5.5179,-5.5179,-5.5179,-5.5179,-5.5179,-5.5179,-5.5179,-5.5179,-5.5179,-5.5179,-5.5179,-5.5179,-5.5179,-5.4845,-5.3964,-5.2455,-5.0933,-4.9451,-4.7977,-4.6815,-4.6301,-5.5179,-5.5179,-5.5179,-5.5179,-5.5179,-5.5179,-5.5179,-5.5179,0.0,-5.5179,0.0,0.0,0.0,-5.6166,-5.6974,-5.7094,-5.8171,-5.9039,-5.9099,0.0,0.0,0.0,0.0,0.0,0.0,0.0,0.0,0.0,0.0,0.0,-6.1104,-6.1104,-6.1104,-6.1104,-6.1104,-6.0805,-6.0176,-6.0146,-6.0475,-6.1104,-6.0475,-6.0146,-6.0146,-5.9488,-5.9189,-5.9189,-5.9129,-5.9099,-5.9099,-5.9099,-5.9099,-5.9099,-5.9099,-5.9099,-5.9099,-5.9099,-5.9099,-5.9099,-5.9099,-5.9099,-5.9099,-5.9099,-5.9099,-5.8979,-5.8381,-5.8171,-5.7992,-5.7363,-5.6765,-5.6436,-5.7034,-5.6705,-5.6226,-5.6248,-5.5718,-5.5239,-5.5209,-5.5179,-5.5179,-5.5179,-5.5179,-5.5179,-5.5179,-5.5179,-5.5179,-5.5179,-5.5179,-5.5179,-5.5179,-5.5179,-5.5179,-5.5179,-5.5179,-5.5179,-5.5179,-5.5179,-5.5179,-5.5179,-5.5179,-5.5179,-5.5179,-5.5179,-5.5179,-5.5179,-5.386,-5.2402,-5.0878,-4.9395,-4.7919,-4.6481,-4.6361,-4.6301,-5.5179,-5.4509,-5.4068,-5.4976,-5.4509,0.0,0.0,-5.5179,-5.5179,-5.5179,-5.5179,0.0,0.0,0.0,-5.7094,-5.7094,-5.8231,-5.9099,0.0,0.0,0.0,0.0,0.0,0.0,0.0,0.0,0.0,0.0,0.0,0.0,-5.9877,-5.9877,-5.9877,-5.9877,-5.9877,-5.9727,-5.9488,-5.9488,-5.9608,-5.9847,-5.9608,-5.9488,-5.9458,-5.9219,-5.9099,-5.9099,-5.9099,-5.9099,-5.9099,-5.9099,-5.9099,-5.9099,-5.9099,-5.9099,-5.9099,-5.9099,-5.9099,-5.9099,-5.9099,-5.9099,-5.9039,-5.862,-5.8501,-5.8351,-5.7693,-5.7214,-5.6855,-5.6585,-5.6077,-5.5718,-5.6346,-5.6047,-5.5568,-5.5568,-5.5359,-5.5179,-5.5179,-5.5179,-5.5179,-5.5179,-5.5179,-5.5179,-5.5179,-5.5179,-5.5179,-5.5179,-5.5179,-5.5179,-5.5179,-5.5179,-5.5179,-5.5179,-5.5179,-5.5179,-5.5179,-5.5179,-5.5179,-5.5179,-5.5179,-5.5179,-5.5179,-5.5179,-5.5179,-5.5179,-5.3756,-5.2722,-5.2105,-4.9705,-4.821,-4.7652,-4.6755,-4.6301,-5.4509,-5.3756,-5.3121,-5.3675,0.0,0.0,-5.4304,-5.4845,-5.5179,-5.5179,-5.5179,-5.5179,-5.5179,0.0,0.0,0.0,-5.8231,0.0,0.0,0.0,0.0,0.0,0.0,0.0,0.0,0.0,0.0,0.0,0.0,0.0,0.0,-5.9099,-5.9099,-5.9099,-5.9099,-5.9099,-5.9099,-5.9099,-5.9099,-5.9099,-5.9099,-5.9099,-5.9099,-5.9099,-5.9099,-5.9099,-5.9099,-5.9099,-5.9099,-5.9099,-5.9099,-5.9099,-5.9099,-5.9099,-5.9099,-5.9099,-5.9099,-5.9069,-5.886,-5.88,-5.868,-5.8022,-5.7812,-5.7663,-5.7004,-5.6496,-5.6188,-5.5927,-5.5538,-5.5299,-5.5748,-5.5538,-5.5179,-5.5179,-5.5179,-5.5179,-5.5179,-5.5179,-5.5179,-5.5179,-5.5179,-5.5179,-5.5179,-5.5179,-5.5179,-5.5179,-5.5179,-5.5179,-5.5179,-5.5179,-5.5179,-5.5179,-5.5179,-5.5179,-5.5179,-5.5179,-5.5179,-5.5179,-5.4743,-5.4692,-5.5179,-5.4743,-5.4509,-5.4509,-5.3069,-5.2051,-5.1592,-4.9535,-4.8268,-4.7743,-4.6755,-4.6301,-5.2963,-5.2963,-5.2562,-5.1098,0.0,0.0,-5.2963,-5.4119,-5.5179,-5.5179,-5.5179,-5.5179,-5.5179,0.0,0.0,-5.7094,0.0,0.0,0.0,0.0,0.0,0.0,0.0,0.0,0.0,0.0,0.0,0.0,0.0,0.0,0.0,-5.9099,-5.9099,-5.9099,-5.9099,-5.9099,-5.9099,-5.9099,-5.9099,-5.9099,-5.9099,-5.9099,-5.9099,-5.9099,-5.9099,-5.9099,-5.9099,-5.9099,-5.9099,-5.9099,-5.9099,-5.9099,-5.9099,-5.9099,-5.9099,-5.9099,-5.9099,-5.9009,-5.8351,-5.8112,-5.7992,-5.7304,-5.7094,-5.6974,-5.6346,-5.6218,-5.6017,-5.5388,-5.5179,-5.5179,-5.5179,-5.5179,-5.5179,-5.5179,-5.5179,-5.5179,-5.5179,-5.5179,-5.5179,-5.5179,-5.5179,-5.5179,-5.5179,-5.5179,-5.5179,-5.5179,-5.5179,-5.5179,-5.5179,-5.5179,-5.5179,-5.5179,-5.5179,-5.5179,-5.5179,-5.5179,-5.5179,-5.5179,-5.3808,-5.3675,-5.5128,-5.3756,-5.2963,-5.2963,-5.1427,-4.9932,-4.8474,-4.8474,-4.7769,-4.6301,-4.6301,-4.6301,-5.1672,-5.0629,0.0,-5.0546,0.0,0.0,0.0,-5.2562,0.0,0.0,-5.5179,-5.5179,-5.5179,0.0,0.0,0.0,0.0,0.0,0.0,0.0,0.0,0.0,0.0,0.0,0.0,0.0,0.0,0.0,0.0,0.0,0.0,-5.9099,-5.9099,-5.9099,-5.9099,-5.9099,-5.9099,-5.9099,-5.9099,-5.9099,-5.9099,-5.9099,-5.9099,-5.9099,-5.9099,-5.9099,-5.9099,-5.9099,-5.9099,-5.9099,-5.9099,-5.9099,-5.9099,-5.9099,-5.9039,-5.859,-5.8411,-5.8321,-5.7633,-5.7393,-5.7304,-5.6645,-5.6436,-5.6316,-5.5688,-5.5478,-5.5448,-5.5239,-5.5179,-5.5179,-5.5179,-5.5179,-5.5179,-5.5179,-5.5179,-5.5179,-5.5179,-5.5179,-5.5179,-5.5179,-5.5179,-5.5179,-5.5179,-5.5179,-5.5179,-5.5179,-5.5179,-5.5179,-5.5179,-5.5179,-5.5179,-5.5179,-5.5179,-5.5179,-5.5179,-5.5179,-5.4743,-5.3727,-5.3256,-5.3174,-5.3623,-5.2159,-5.1372,-5.1372,-4.9903,-4.8908,-4.8474,-4.7475,-4.6755,-4.6301,-4.6301,-4.6301,-5.0072,-4.9194,0.0,-4.8908,-4.8736,-4.8762,-4.9621,0.0,0.0,0.0,0.0,-5.4598,-5.5436,-5.6406,0.0,0.0,0.0,0.0,0.0,0.0,0.0,0.0,0.0,0.0,0.0,0.0,0.0,0.0,0.0,0.0,0.0,-5.9099,-5.9099,-5.9099,-5.9099,-5.9099,-5.9099,-5.9099,-5.9099,-5.9099,-5.9099,-5.9099,-5.9099,-5.9099,-5.9099,-5.9099,-5.9099,-5.9099,-5.9099,-5.9099,-5.9099,-5.9069,-5.883,-5.871,-5.862,-5.7962,-5.7723,-5.7633,-5.6944,-5.6735,-5.6615,-5.5987,-5.5777,-5.5718,-5.5299,-5.5179,-5.5179,-5.5179,-5.5179,-5.5179,-5.5179,-5.5179,-5.5179,-5.5179,-5.5179,-5.5179,-5.5179,-5.5179,-5.5179,-5.5179,-5.5179,-5.5179,-5.5179,-5.5179,-5.5179,-5.5179,-5.5179,-5.5179,-5.5179,-5.5179,-5.5179,-5.5179,-5.5179,-5.4976,-5.4355,-5.4355,-5.3675,-5.2159,-5.1509,-5.1181,-5.1181,-5.0351,-4.9847,-4.9847,-4.8358,-4.7652,-4.7652,-4.6755,-4.6301,-4.6301,-4.6301,-4.6301,-4.83,0.0,0.0,-4.6636,-4.7324,0.0,-4.83,-4.9338,-5.0768,-5.2455,0.0,-5.3377,-5.5419,0.0,0.0,0.0,0.0,0.0,0.0,0.0,0.0,0.0,0.0,0.0,0.0,0.0,0.0,0.0,0.0,0.0,0.0,-5.9099,-5.9099,-5.9099,-5.9099,-5.9099,-5.9099,-5.9099,-5.9099,-5.9099,-5.9099,-5.9099,-5.9099,-5.9099,-5.9099,-5.9099,-5.9099,-5.9069,-5.9009,-5.9009,-5.8979,-5.886,-5.8261,-5.8022,-5.7962,-5.7274,-5.7004,-5.6915,-5.6286,-5.6077,-5.5987,-5.5388,-5.5179,-5.5179,-5.5179,-5.5179,-5.5179,-5.5179,-5.5179,-5.5179,-5.5179,-5.5179,-5.5179,-5.5179,-5.5179,-5.5179,-5.5179,-5.5179,-5.5179,-5.5179,-5.5179,-5.5179,-5.5179,-5.5179,-5.5179,-5.5179,-5.5179,-5.5179,-5.5179,-5.5179,-5.5128,-5.5027,-5.5027,-5.4406,-5.291,-5.2804,-5.2133,-5.0602,-4.9224,-4.8416,-4.83,-4.83,-4.83,-4.83,-4.6968,-4.6301,-4.6301,-4.6301,-4.6301,-4.6301,-4.6301,-4.6301,-4.7087,-4.6755,0.0,0.0,-4.6541,-4.6755,-4.6755,-4.7027,-4.8009,-5.0657,-5.1208,-5.1458,0.0,0.0,0.0,0.0,0.0,0.0,0.0,0.0,0.0,0.0,0.0,0.0,0.0,0.0,0.0,0.0,0.0,0.0,-5.9099,-5.9099,-5.9099,-5.9099,-5.9099,-5.9099,-5.9099,-5.9099,-5.9099,0.0,-5.9099,-5.9099,-5.9099,-5.9099,-5.9099,-5.9099,-5.9099,-5.88,-5.8351,-5.8351,-5.8022,-5.7513,-5.7363,-5.7304,-5.7244,-5.6615,-5.6376,-5.6286,-5.5628,-5.5418,-5.5388,-5.5239,-5.5179,-5.5179,-5.5179,-5.5179,-5.5179,-5.5179,-5.5179,-5.5179,-5.5179,-5.5179,-5.5179,-5.5179,-5.5179,-5.5179,-5.5179,-5.5179,-5.5179,-5.5179,-5.5179,-5.5179,-5.5179,-5.5179,-5.5179,-5.5179,-5.5179,-5.5179,-5.5179,-5.5179,-5.4743,-5.3571,-5.3466,-5.2828,-5.1318,-5.1208,-5.0546,-4.908,-4.8705,-4.7977,-4.6815,-4.6755,-4.6755,-4.6755,-4.6481,-4.6301,-4.6301,-4.6301,-4.6301,-4.6301,-4.6301,-4.6301,-4.6541,0.0,0.0,-4.6301,0.0,-4.6301,-4.6301,-4.6301,-4.6755,-4.83,0.0,0.0,0.0,0.0,0.0,0.0,0.0,0.0,0.0,0.0,0.0,0.0,0.0,0.0,0.0,0.0,0.0,0.0,0.0,-5.9099,-5.9099,-5.9099,-5.9099,-5.9099,-5.9099,-5.9099,-5.9099,-5.9099,-5.9099,-5.9099,-5.9099,-5.8949,-5.865,-5.8949,-5.8919,-5.865,-5.865,-5.8261,-5.7633,-5.7633,-5.7423,-5.7064,-5.6765,-5.6645,-5.6585,-5.5927,-5.5718,-5.5658,-5.5299,-5.5179,-5.5179,-5.5179,-5.5179,-5.5179,-5.5179,-5.5179,-5.5179,-5.5179,-5.5179,-5.5179,-5.5179,-5.5179,-5.5179,-5.5179,-5.5179,-5.5179,-5.5179,-5.5179,-5.5179,-5.5179,-5.5179,-5.5179,-5.5179,-5.5179,-5.5179,-5.5179,-5.5179,-5.4976,-5.4252,-5.4119,-5.3571,-5.2051,-5.1889,-5.1291,-4.9791,-4.9678,-4.9022,-4.7534,-4.7416,-4.7087,-4.6301,-4.6301,-4.6301,-4.6301,-4.6301,-4.6301,-4.6301,-4.6301,-4.6301,-4.6301,-4.6301,-4.6301,-4.6301,0.0,-4.6301,-4.6301,-4.6301,0.0,-4.6301,-4.6301,-4.6301,0.0,0.0,0.0,0.0,0.0,0.0,0.0,0.0,0.0,0.0,0.0,0.0,0.0,0.0,0.0,0.0,0.0,0.0,0.0,0.0,-5.9099,-5.9099,-5.9099,-5.9099,-5.9099,-5.9099,-5.9099,-5.9099,-5.9009,-5.8949,-5.8949,-5.883,-5.8471,-5.7962,-5.8501,-5.8471,-5.7932,-5.7932,-5.7573,-5.6944,-5.6944,-5.6885,-5.6705,-5.6196,-5.6068,-5.5927,-5.5388,-5.5179,-5.5179,-5.5179,-5.5179,-5.5179,-5.5179,-5.5179,-5.5179,-5.5179,-5.5179,-5.5179,-5.5179,-5.5179,-5.5179,-5.5179,-5.5179,-5.5179,-5.5179,-5.5179,-5.5179,-5.5179,-5.5179,-5.5179,-5.5179,-5.5179,-5.5179,-5.5179,-5.5179,-5.5179,-5.5179,-5.4976,-5.4355,-5.3174,-5.2804,-5.1997,-5.0491,-5.0324,-4.9734,-4.8268,-4.8152,-4.7593,-4.6361,-4.6301,-4.6301,-4.6301,-4.6301,-4.6301,-4.6301,-4.6301,-4.6301,-4.6301,-4.6301,-4.6301,-4.6301,-4.6301,-4.6301,0.0,0.0,-4.6301,0.0,-4.6301,-4.6301,0.0,0.0,0.0,0.0,0.0,0.0,0.0,0.0,0.0,0.0,0.0,0.0,0.0,0.0,0.0,0.0,0.0,0.0,0.0,0.0,0.0,0.0,-5.9099,-5.9099,-5.9099,-5.9099,-5.9099,-5.9099,-5.9099,-5.9099,-5.9099,-5.853,-5.8261,-5.8261,-5.7633,-5.7304,-5.7244,-5.7334,-5.7304,-5.7244,-5.7244,-5.6885,-5.6286,-5.6286,-5.5957,-5.5448,-5.5359,-5.5329,-5.5299,-5.5209,-5.5179,-5.5179,-5.5179,-5.5179,-5.5179,-5.5179,-5.5179,-5.5179,-5.5179,-5.5179,-5.5179,-5.5179,-5.5179,-5.5179,-5.5179,-5.5179,-5.5179,-5.5179,-5.5179,-5.5179,-5.5179,-5.5179,-5.5179,-5.5179,-5.5179,-5.5179,-5.5179,-5.5179,-5.5179,-5.5179,-5.4119,-5.3256,-5.3016,-5.1835,-5.0435,-4.8965,-4.8793,-4.8184,-4.6695,-4.6601,-4.6541,-4.6301,-4.6301,-4.6301,-4.6301,-4.6301,-4.6301,-4.6301,-4.6301,-4.6301,-4.6301,-4.6301,-4.6301,-4.6301,-4.6301,-4.6301,-4.6301,-4.6301,-4.6301,0.0,-4.6301,-4.6301,0.0,0.0,0.0,0.0,0.0,0.0,0.0,0.0,0.0,0.0,0.0,0.0,0.0,0.0,0.0,0.0,0.0,0.0,0.0,0.0,0.0,0.0,-5.672,-5.7129,-5.7909,-5.7992,-5.7992,-5.7992,-5.7992,-5.7992,-5.7992,-5.7693,-5.7543,-5.7543,-5.6885,-5.6585,-5.6555,-5.6196,-5.6226,-5.6585,-5.6585,-5.6226,-5.5628,-5.5628,-5.5448,-5.5179,-5.5179,-5.5179,-5.5179,-5.5179,-5.5179,-5.5179,-5.5179,-5.5179,-5.5179,-5.5179,-5.5179,-5.5179,-5.5179,-5.5179,-5.5179,-5.5179,-5.5179,-5.5179,-5.5179,-5.5179,-5.5179,-5.5179,-5.5179,-5.5179,-5.5179,-5.5179,-5.5179,-5.5179,-5.5179,-5.5179,-5.5179,-5.5179,-5.5179,-5.5179,-5.3964,-5.3016,-5.3016,-5.0961,-4.9251,-4.8589,-4.7769,-4.6968,-4.6361,-4.6301,-4.6301,-4.6301,-4.6301,-4.6301,-4.6301,-4.6301,-4.6301,-4.6301,-4.6301,-4.6301,-4.6301,-4.6301,-4.6301,-4.6301,-4.6301,-4.6301,0.0,0.0,-4.6301,-4.6301,-4.6301,0.0,0.0,0.0,0.0,0.0,0.0,0.0,0.0,0.0,0.0,0.0,0.0,0.0,0.0,0.0,0.0,0.0,0.0,0.0,0.0,0.0,0.0,0.0,-5.467,-5.5409,-5.6486,-5.6937,-5.7094,-5.7094,-5.7094,-5.7094,-5.7094,-5.6944,-5.6765,-5.6615,-5.6137,-5.5927,-5.5897,-5.5418,-5.5448,-5.5927,-5.5927,-5.5658,-5.5179,-5.5179,-5.5179,-5.5179,-5.5179,-5.5179,-5.5179,-5.5179,-5.5179,-5.5179,-5.5179,-5.5179,-5.5179,-5.5179,-5.5179,-5.5179,-5.5179,-5.5179,-5.5179,-5.5179,-5.5179,-5.5179,-5.5179,-5.5179,-5.5179,-5.5179,-5.5179,-5.5179,-5.5179,-5.5179,-5.5179,-5.5179,-5.5179,-5.5179,-5.5179,-5.5179,-5.5078,-5.4692,-5.3332,-5.2295,-5.1917,-4.9592,-4.7919,-4.7919,-4.6968,-4.6301,-4.6301,-4.6301,-4.6301,-4.6301,-4.6301,-4.6301,-4.6301,-4.6301,-4.6301,-4.6301,-4.6301,-4.6301,-4.6301,-4.6301,-4.6301,-4.6301,-4.6301,-4.6301,0.0,-4.6301,0.0,0.0,0.0,0.0,0.0,0.0,0.0,0.0,0.0,0.0,0.0,0.0,0.0,0.0,0.0,0.0,0.0,0.0,0.0,0.0,0.0,0.0,0.0,0.0,0.0,0.0,-5.4088,-5.4944,-5.4999,-5.635,-5.7094,-5.7094,-5.7094,-5.7094,-5.7094,-5.6526,-5.5897,-5.5299,-5.5269,-5.5239,-5.5239,-5.5209,-5.5209,-5.5239,-5.5239,-5.5209,-5.5179,-5.5179,-5.5179,-5.5179,-5.5179,-5.5179,-5.5179,-5.5179,-5.5179,-5.5179,-5.5179,-5.5179,-5.5179,-5.5179,-5.5179,-5.5179,-5.5179,-5.5179,-5.5179,-5.5179,-5.5179,-5.5179,-5.5179,-5.5179,-5.5179,-5.5179,-5.5179,-5.5179,-5.5179,-5.5179,-5.5179,-5.5179,-5.5179,-5.5179,-5.5179,-5.5179,-5.4743,-5.3308,-5.1835,-5.0324,-4.8908,-4.7357,-4.6421,-4.6421,-4.6361,-4.6301,-4.6301,-4.6301,-4.6301,-4.6301,-4.6301,-4.6301,-4.6301,-4.6301,-4.6301,-4.6301,-4.6301,-4.6301,-4.6301,-4.6301,-4.6301,-4.6301,-4.6301,-4.6301,0.0,0.0,0.0,0.0,0.0,0.0,0.0,0.0,0.0,0.0,0.0,0.0,0.0,0.0,0.0,0.0,0.0,0.0,0.0,0.0,0.0,0.0,0.0,0.0,0.0,0.0,0.0,0.0,0.0,-5.1235,-5.2154,-5.3625,-5.4481,-5.4481,-5.5375,-5.5867,-5.5867,-5.5658,-5.5418,-5.5179,-5.5179,-5.5179,-5.5179,-5.5179,-5.5179,-5.5179,-5.5179,-5.5179,-5.5179,-5.5179,-5.5179,-5.5179,-5.5179,-5.5179,-5.5179,-5.5179,-5.5179,-5.5179,-5.5179,-5.5179,-5.5179,-5.5179,-5.5179,-5.5179,-5.5179,-5.5179,-5.5179,-5.5179,-5.5179,-5.5179,-5.5179,-5.5179,-5.5179,-5.5179,-5.5179,-5.4976,-5.3964,-5.4509,-5.5179,-5.5179,-5.5179,-5.5179,-5.5179,-5.4406,-5.3623,-5.3069,-5.0906,-4.9451,-4.9847,-4.7802,-4.6636,-4.7593,-4.6874,-4.6301,-4.6301,-4.6301,-4.6301,-4.6301,-4.6301,-4.6301,-4.6301,-4.6301,-4.6301,-4.6301,-4.6301,-4.6301,-4.6301,-4.6301,-4.6301,-4.6301,-4.6301,-4.6301,-4.6301,0.0,0.0,0.0,0.0,0.0,0.0,0.0,0.0,0.0,0.0,0.0,0.0,0.0,0.0,0.0,0.0,0.0,0.0,0.0,0.0,0.0,0.0,0.0,0.0,0.0,0.0,0.0,0.0,0.0,-4.9876,-5.14,-5.2455,-5.2963,-5.4406,-5.5179,-5.5179,-5.5179,-5.5179,-5.5179,-5.5179,-5.5179,-5.5179,-5.5179,-5.5179,-5.5179,-5.5179,-5.5179,-5.5179,-5.5179,-5.5179,-5.5179,-5.5179,-5.5179,-5.5179,-5.5179,-5.5179,-5.5179,-5.5179,-5.5179,-5.5179,-5.5179,-5.5179,-5.5179,-5.5179,-5.5179,-5.5179,-5.5179,-5.5179,-5.5078,-5.459,-5.4068,-5.3675,-5.3675,-5.3675,-5.3384,-5.2455,-5.3413,-5.4304,-5.3779,-5.3675,-5.3675,-5.3675,-5.2881,-5.2051,-5.1564,-4.9761,-4.8705,-4.9167,-4.7534,-4.6695,-4.7652,-4.6874,-4.6301,-4.6301,-4.6301,-4.6301,-4.6301,-4.6301,-4.6301,-4.6301,-4.6301,-4.6301,-4.6301,-4.6301,-4.6301,-4.6301,-4.6301,-4.6301,-4.6301,-4.6301,-4.6301,0.0,0.0,0.0,0.0,0.0,0.0,0.0,0.0,0.0,0.0,0.0,0.0,0.0,0.0,0.0,0.0,0.0,0.0,0.0,0.0,0.0,0.0,0.0,0.0,0.0,0.0,0.0,0.0,-4.7652,-4.8416,-4.8416,-4.982,-5.1372,-5.2963,-5.4406,-5.5128,-5.5179,-5.5179,-5.5179,-5.5179,-5.5179,-5.5179,-5.5179,-5.5179,-5.5179,-5.5179,-5.5179,-5.5179,-5.5179,-5.5179,-5.5179,-5.5179,-5.5179,-5.5179,-5.5179,-5.5179,-5.5179,-5.5128,-5.5128,-5.5128,-5.5128,-5.5078,-5.5128,-5.5179,-5.5128,-5.5128,-5.5128,-5.5128,-5.5078,-5.4743,-5.3279,-5.1835,-5.0713,-5.0713,-5.0713,-5.0713,-5.0657,-5.1835,-5.2455,-5.0989,-5.0713,-5.0713,-5.0713,-5.0657,-5.0157,-4.8705,-4.8474,-4.7919,-4.6481,-4.6301,-4.6301,-4.6301,-4.6301,-4.6301,-4.6301,-4.6301,-4.6301,-4.6301,-4.6301,-4.6301,-4.6301,-4.6301,-4.6301,-4.6301,-4.6301,-4.6301,-4.6301,-4.6301,-4.6301,-4.6301,-4.6301,-4.6301,-4.6301,0.0,0.0,0.0,0.0,0.0,0.0,0.0,0.0,0.0,0.0,0.0,0.0,0.0,0.0,0.0,0.0,0.0,0.0,0.0,0.0,0.0,0.0,0.0,0.0,0.0,0.0,0.0,-4.6695,-4.6934,-4.6934,-4.83,-5.0296,-5.291,-5.3413,-5.4119,-5.5179,-5.5179,-5.5179,-5.5179,-5.5179,-5.5179,-5.5179,-5.5179,-5.5179,-5.5179,-5.5179,-5.5179,-5.5179,-5.5179,-5.5179,-5.5179,-5.5179,-5.5179,-5.5179,-5.5179,-5.4509,-5.3623,-5.3623,-5.3623,-5.3413,-5.232,-5.3437,-5.5027,-5.3912,-5.3623,-5.3623,-5.3623,-5.2775,-5.1889,-5.1427,-5.1044,-5.0713,-5.0713,-5.0713,-5.0435,-4.9338,-4.9478,-4.9903,-5.0602,-5.0713,-5.0713,-5.0713,-4.9847,-4.8965,-4.8532,-4.7593,-4.6755,-4.6361,-4.6301,-4.6301,-4.6301,-4.6301,-4.6301,-4.6301,-4.6301,-4.6301,-4.6301,-4.6301,-4.6301,-4.6301,-4.6301,-4.6301,-4.6301,-4.6301,-4.6301,-4.6301,-4.6301,-4.6301,-4.6301,-4.6301,-4.6301,0.0,0.0,0.0,0.0,0.0,0.0,-4.6301,-4.6301,0.0,0.0,0.0,0.0,0.0,0.0,0.0,0.0,0.0,0.0,0.0,0.0,0.0,0.0,0.0,0.0,0.0,-4.6301,-4.6301,-4.6301,-4.6301,-4.6301,-4.6301,-4.771,-4.9308,-5.1071,-5.2348,-5.3413,-5.4252,-5.4896,-5.5179,-5.5179,-5.5179,-5.5179,-5.5179,-5.5179,-5.5179,-5.5179,-5.5179,-5.4845,-5.4304,-5.4304,-5.4641,-5.5179,-5.5179,-5.4794,-5.4304,-5.4304,-5.3332,-5.2051,-5.2051,-5.2051,-5.1889,-5.0989,-5.1889,-5.3174,-5.2295,-5.2051,-5.2051,-5.2051,-5.0933,-4.9791,-4.9791,-4.9338,-4.8824,-4.8824,-4.8824,-4.8621,-4.7743,-4.7593,-4.786,-4.8678,-4.8824,-4.8824,-4.8824,-4.8126,-4.7593,-4.7593,-4.6874,-4.6301,-4.6301,-4.6301,-4.6301,-4.6301,-4.6301,-4.6301,-4.6301,-4.6301,-4.6301,-4.6301,-4.6301,-4.6301,-4.6301,-4.6301,-4.6301,-4.6301,-4.6301,-4.6301,-4.6301,-4.6301,-4.6301,-4.6301,-4.6301,-4.6301,0.0,0.0,0.0,0.0,0.0,0.0,-4.6301,-4.6301,-4.6301,0.0,0.0,0.0,0.0,0.0,0.0,0.0,0.0,0.0,0.0,0.0,0.0,0.0,0.0,0.0,-4.6301,-4.6301,-4.6301,-4.6301,-4.6301,-4.6301,-4.6301,-4.7534,-4.83,-4.8474,-5.1071,-5.2591,-5.2751,-5.4171,-5.4976,-5.4976,-5.5128,-5.5179,-5.5179,-5.5027,-5.4976,-5.4976,-5.4794,-5.3964,-5.2722,-5.2722,-5.3518,-5.4692,-5.4692,-5.3912,-5.2722,-5.2722,-5.1781,-5.0435,-5.0435,-5.0435,-5.0435,-5.0268,-5.0435,-5.0657,-5.0491,-5.0435,-5.0435,-5.0268,-4.9281,-4.8268,-4.8268,-4.7265,-4.6301,-4.6301,-4.6301,-4.6301,-4.6301,-4.6301,-4.6301,-4.6301,-4.6301,-4.6301,-4.6301,-4.6301,-4.6301,-4.6301,-4.6301,-4.6301,-4.6301,-4.6301,-4.6301,-4.6301,-4.6301,-4.6301,-4.6301,-4.6301,-4.6301,-4.6301,-4.6301,-4.6301,-4.6301,-4.6301,-4.6301,-4.6301,-4.6301,-4.6301,-4.6301,-4.6301,-4.6301,-4.6301,-4.6301,-4.6301,0.0,0.0,0.0,0.0,0.0,0.0,-4.6301,-4.6301,-4.6301,0.0,0.0,0.0,0.0,0.0,0.0,0.0,0.0,0.0,0.0,0.0,0.0,0.0,0.0,0.0,-4.6301,-4.6301,-4.6301,-4.6301,-4.6301,-4.6301,-4.6301,-4.6601,-4.7265,-4.8474,-4.908,-4.996,-5.1153,-5.2669,-5.3413,-5.3466,-5.4641,-5.5179,-5.5128,-5.3964,-5.3413,-5.3361,-5.2105,-5.1427,-5.1153,-5.1153,-5.1318,-5.159,-5.159,-5.1372,-5.1153,-5.1153,-5.024,-4.8908,-4.8908,-4.8908,-4.8736,-4.7534,-4.8793,-5.0491,-4.9281,-4.8908,-4.8678,-4.7475,-4.6968,-4.6755,-4.6755,-4.6541,-4.6301,-4.6301,-4.6301,-4.6301,-4.6301,-4.6301,-4.6301,-4.6301,-4.6301,-4.6301,-4.6301,-4.6301,-4.6301,-4.6301,-4.6301,-4.6301,-4.6301,-4.6301,-4.6301,-4.6301,-4.6301,-4.6301,-4.6301,-4.6301,-4.6301,-4.6301,-4.6301,-4.6301,-4.6301,-4.6301,-4.6301,-4.6301,-4.6301,-4.6301,-4.6301,-4.6301,-4.6301,-4.6301,-4.6301,-4.6295,0.0,0.0,0.0,-4.6301,0.0,0.0,0.0,-4.6301,-4.6301,0.0,0.0,0.0,0.0,0.0,0.0,0.0,0.0,0.0,0.0,0.0,0.0,0.0,0.0,0.0,-4.6301,-4.6301,-4.6301,-4.6301,-4.6301,-4.6301,-4.6301,-4.6301,-4.6636,-4.7357,-4.8152,-4.8851,-4.9621,-5.1098,-5.1835,-5.1889,-5.2615,-5.2934,-5.2934,-5.2159,-5.1835,-5.1835,-5.1044,-5.0268,-4.9621,-4.9621,-4.9167,-4.8678,-5.0157,-5.0268,-4.9621,-4.9621,-4.8678,-4.7416,-4.7416,-4.7416,-4.7265,-4.6541,-4.7298,-4.8358,-4.7652,-4.7416,-4.7265,-4.6541,-4.6301,-4.6301,-4.6301,-4.6301,-4.6301,-4.6301,-4.6301,-4.6301,-4.6301,-4.6301,-4.6301,-4.6301,-4.6301,-4.6301,-4.6301,-4.6301,-4.6301,-4.6301,-4.6301,-4.6301,-4.6301,-4.6301,-4.6301,-4.6301,-4.6301,-4.6301,-4.6301,-4.6301,-4.6301,-4.6301,-4.6301,-4.6301,-4.6301,-4.6301,-4.6301,-4.6301,-4.6301,-4.6301,-4.6301,-4.633,-4.633,-4.6301,-4.633,-4.6272,0.0,0.0,0.0,0.0,0.0,-4.6301,0.0,0.0,0.0,0.0,0.0,0.0,0.0,0.0,0.0,0.0,0.0,0.0,0.0,0.0,0.0,0.0,0.0,0.0,0.0,-4.6301,-4.6301,-4.6301,-4.6301,-4.6301,-4.6301,-4.6301,-4.6301,-4.6301,-4.7475,-4.8094,-4.8094,-4.9565,-5.0268,-5.0268,-5.0546,-5.0713,-5.0713,-5.0435,-5.0268,-5.0268,-4.9988,-4.9167,-4.8094,-4.8094,-4.7357,-4.6541,-4.8881,-4.911,-4.8094,-4.8094,-4.7324,-4.6301,-4.6301,-4.6301,-4.6301,-4.6301,-4.6301,-4.6301,-4.6301,-4.6301,-4.6301,-4.6301,-4.6301,-4.6301,-4.6301,-4.6301,-4.6301,-4.6301,-4.6301,-4.6301,-4.6301,-4.6301,-4.6301,-4.6301,-4.6301,-4.6301,-4.6301,-4.6301,-4.6301,-4.6301,-4.6301,-4.6301,-4.6301,-4.6301,-4.6301,-4.6301,-4.6301,-4.6301,-4.6301,-4.6301,-4.6301,-4.6301,-4.6301,-4.6301,-4.6301,-4.6301,-4.6301,-4.6301,-4.6301,-4.6276,-4.6285,-4.6307,-4.6307,-4.632,-4.629,-4.607,0.0,0.0,0.0,0.0,-4.6301,0.0,0.0,0.0,-4.6301,-4.6301,0.0,0.0,0.0,0.0,0.0,0.0,0.0,0.0,0.0,0.0,0.0,0.0,0.0,0.0,0.0,-4.6301,-4.6301,-4.6301,-4.6301,-4.6301,-4.6301,-4.6301,-4.6301,-4.6301,-4.6481,-4.6541,-4.6541,-4.8035,-4.8762,-4.8762,-5.0101,-5.0713,-5.0657,-4.9338,-4.8762,-4.8705,-4.7357,-4.6695,-4.6541,-4.6541,-4.6481,-4.6301,-4.6695,-4.6695,-4.6541,-4.6541,-4.6421,-4.6301,-4.6301,-4.6301,-4.6301,-4.6301,-4.6301,-4.6301,-4.6301,-4.6301,-4.6301,-4.6301,-4.6301,-4.6301,-4.6301,-4.6301,-4.6301,-4.6301,-4.6301,-4.6301,-4.6301,-4.6301,-4.6301,-4.6301,-4.6301,-4.6301,-4.6301,-4.6301,-4.6301,-4.6301,-4.6301,-4.6301,-4.6301,-4.6301,-4.6301,-4.6301,-4.6301,-4.6301,-4.6301,-4.6301,-4.6301,-4.6301,-4.6301,-4.6301,-4.6301,-4.6301,-4.6301,-4.6301,-4.6301,-4.6295,-4.629,-4.6324,-4.6324,-4.629,-4.6313,-4.5258,0.0,0.0,0.0,0.0,0.0,0.0,-4.6301,0.0,-4.6301,0.0,0.0,0.0,0.0,0.0,0.0,0.0,-4.615,0.0,0.0,0.0,0.0,0.0,0.0,0.0,0.0,0.0,0.0,0.0,-4.6301,-4.6301,-4.6301,-4.6301,-4.6301,-4.6301,-4.6301,-4.6301,-4.6301,-4.6934,-4.7205,-4.7265,-4.786,-4.8126,-4.8126,-4.7534,-4.7205,-4.7205,-4.6601,-4.6301,-4.6301,-4.6301,-4.6301,-4.6301,-4.6301,-4.6301,-4.6301,-4.6301,-4.6301,-4.6301,-4.6301,-4.6301,-4.6301,-4.6301,-4.6301,-4.6301,-4.6301,-4.6301,-4.6301,-4.6301,-4.6301,-4.6301,-4.6301,-4.6301,-4.6301,-4.6301,-4.6301,-4.6301,-4.6301,-4.6301,-4.6301,-4.6301,-4.6301,-4.6301,-4.6301,-4.6301,-4.6301,-4.6301,-4.6301,-4.6301,-4.6301,-4.6301,-4.6301,-4.6301,-4.6301,-4.6301,-4.6301,-4.6301,-4.6301,-4.6301,-4.6301,-4.6301,-4.6301,-4.6301,-4.6301,-4.6301,-4.6305,-4.6307,-4.6298,-4.5011,-4.441,-4.4385,-4.4375,-4.3908,-4.6301,0.0,0.0,0.0,0.0,0.0,0.0,0.0,0.0,0.0,0.0,0.0,0.0,0.0,0.0,0.0,0.0,-4.625,0.0,0.0,0.0,0.0,0.0,0.0,0.0,0.0,0.0,-4.6301,-4.6301,-4.6301,-4.6301,-4.6301,-4.6301,-4.6301,-4.6301,-4.6301,-4.6301,-4.6301,-4.6301,-4.6301,-4.6301,-4.6301,-4.6301,-4.6301,-4.6301,-4.6301,-4.6301,-4.6301,-4.6301,-4.6301,-4.6301,-4.6301,-4.6301,-4.6301,-4.6301,-4.6301,-4.6301,-4.6301,-4.6301,-4.6301,-4.6301,-4.6301,-4.6301,-4.6301,-4.6301,-4.6301,-4.6301,-4.6301,-4.6301,-4.6301,-4.6301,-4.6301,-4.6301,-4.6301,-4.6301,-4.6301,-4.6301,-4.6301,-4.6301,-4.6301,-4.6301,-4.6301,-4.6301,-4.6301,-4.6301,-4.6301,-4.6301,-4.6301,-4.6301,-4.6301,-4.6301,-4.6301,-4.6301,-4.6301,-4.6301,-4.6301,-4.6301,-4.6301,-4.6301,-4.6301,-4.6301,-4.6301,-4.6336,-4.6295,-4.6307,-4.6011,-4.5405,-4.3786,-4.2985,-4.2999,-4.2999,-4.2999,0.0,0.0,0.0,-4.6301,0.0,0.0,0.0,0.0,-4.6301,0.0,0.0,0.0,0.0,0.0,0.0,0.0,0.0,0.0,0.0,0.0,0.0,0.0,0.0,0.0,0.0,0.0,0.0,-4.6301,-4.6301,-4.6301,-4.6301,-4.6301,-4.6301,-4.6301,-4.6301,-4.6301,-4.6301,-4.6301,-4.6301,-4.6301,-4.6301,-4.6301,-4.6301,-4.6301,-4.6301,-4.6301,-4.6301,-4.6301,-4.6301,-4.6301,-4.6301,-4.6301,-4.6301,-4.6301,-4.6301,-4.6301,-4.6301,-4.6301,-4.6301,-4.6301,-4.6301,-4.6301,-4.6301,-4.6301,-4.6301,-4.6301,-4.6301,-4.6301,-4.6301,-4.6301,-4.6301,-4.6301,-4.6301,-4.6301,-4.6301,-4.6301,-4.6301,-4.6301,-4.6301,-4.6301,-4.6301,-4.6301,-4.6301,-4.6301,-4.6301,-4.6301,-4.6301,-4.6301,-4.6301,-4.6301,-4.6301,-4.6301,-4.6301,-4.6301,-4.6301,-4.6301,-4.6301,-4.6301,-4.6301,-4.6301,-4.6301,-4.6301,-4.627,-4.6324,-4.6298,-4.5246,-4.3084,-4.3035,-4.3031,-4.2986,-4.2986,-4.2986,0.0,0.0,-4.6301,-4.6301,0.0,0.0,0.0,0.0,0.0,0.0,0.0,0.0,0.0,0.0,0.0,0.0,0.0,0.0,0.0,0.0,0.0,0.0,0.0,0.0,0.0,0.0,0.0,-4.6301,-4.6301,-4.6301,-4.6301,-4.6301,-4.6301,-4.6301,-4.6301,-4.6301,-4.6301,-4.6301,-4.6301,-4.6301,-4.6301,-4.6301,-4.6301,-4.6301,-4.6301,-4.6301,-4.6301,-4.6301,-4.6301,-4.6301,-4.6301,-4.6301,-4.6301,-4.6301,-4.6301,-4.6301,-4.6301,-4.6301,-4.6301,-4.6301,-4.6301,-4.6301,-4.6301,-4.6301,-4.6301,-4.6301,-4.6301,-4.6301,-4.6301,-4.6301,-4.6301,-4.6301,-4.6301,-4.6301,-4.6301,-4.6301,-4.6301,-4.6301,-4.6301,-4.6301,-4.6301,-4.6301,-4.6301,-4.6301,-4.6301,-4.6301,-4.6301,-4.6301,-4.6301,-4.6301,-4.6301,-4.6301,-4.6301,-4.6301,-4.6301,-4.6301,-4.6301,-4.6301,-4.6301,-4.6301,-4.6301,-4.5949,-4.5698,-4.5581,-4.532,-4.4464,-4.301,-4.3012,-4.2975,-4.2986,-4.2986,-4.2986,-4.6301,-4.6301,0.0,-4.6301,-4.6301,0.0,-4.6301,0.0,0.0,0.0,0.0,0.0,0.0,0.0,0.0,0.0,0.0,0.0,0.0,-4.615,0.0,0.0,0.0,0.0,0.0,0.0,-4.61,-4.6301,-4.6301,-4.6301,0.0,0.0,-4.6301,-4.6301,-4.6301,-4.6301,-4.6301,-4.6301,-4.6301,-4.6301,-4.6301,-4.6301,-4.6301,-4.6301,-4.6301,-4.6301,-4.6301,-4.6301,-4.6301,-4.6301,-4.6301,-4.6301,-4.6301,-4.6175,-4.605,-4.6225,-4.6301,-4.6301,-4.6301,-4.6175,-4.6024,-4.6024,-4.6024,-4.6024,-4.6024,-4.615,-4.6301,-4.6301,-4.6301,-4.6301,-4.6301,-4.6301,-4.6301,-4.6301,-4.6301,-4.6301,-4.6301,-4.6301,-4.6301,-4.6301,-4.6301,-4.6301,-4.6301,-4.6301,-4.6301,-4.6301,-4.6301,-4.6301,-4.6301,-4.6301,-4.6301,-4.6301,-4.6301,-4.6301,-4.6301,-4.6301,-4.6301,-4.6301,-4.6301,-4.6225,-4.6024,-4.5673,-4.5321,-4.5003,-4.4738,-4.4093,-4.3006,-4.3031,-4.2986,-4.2986,-4.2986,-4.2986]},{"header":{"parameterUnit":"m.s-1","parameterCategory":1,"la1":30.6,"la2":29.2853,"lo1":-89.7004,"lo2":-87.6739,"dy":0.0162,"dx":0.0183,"nx":112,"ny":82,"refTime":"2023-06-21T12:00:00:Z","depth":0,"parameterNumber":3,"parameterNumberName":"V-component_of_WINDS"},"data":[0.0,0.0,0.0,0.0,0.0,0.0,0.0,0.0,0.0,0.0,0.0,0.0,0.0,0.0,0.0,0.0,0.0,0.0,0.0,0.0,0.0,0.0,0.0,0.0,0.0,0.0,0.0,0.0,0.0,0.0,0.0,0.0,0.0,0.0,0.0,0.0,0.0,0.0,0.0,0.0,0.0,0.0,0.0,0.0,0.0,0.0,0.0,0.0,0.0,0.0,0.0,0.0,0.0,0.0,0.0,0.0,0.0,0.0,0.0,0.0,0.0,0.0,0.0,0.0,0.0,0.0,0.0,0.0,0.0,0.0,0.0,0.0,0.0,0.0,0.0,0.0,0.0,0.0,0.0,0.0,0.0,0.0,0.0,0.0,0.0,0.0,0.0,0.0,0.0,0.0,-3.0898,-3.0898,-3.0898,-3.1498,-3.2964,-3.4459,-3.5945,-3.7423,0.0,0.0,0.0,0.0,0.0,0.0,0.0,0.0,0.0,0.0,0.0,0.0,0.0,0.0,0.0,0.0,0.0,0.0,0.0,0.0,0.0,0.0,0.0,0.0,0.0,0.0,0.0,0.0,0.0,0.0,0.0,0.0,0.0,0.0,0.0,0.0,0.0,0.0,0.0,0.0,0.0,0.0,0.0,0.0,0.0,0.0,0.0,0.0,0.0,0.0,0.0,0.0,0.0,0.0,0.0,0.0,0.0,0.0,0.0,0.0,0.0,0.0,0.0,0.0,0.0,0.0,0.0,0.0,0.0,0.0,0.0,0.0,0.0,0.0,0.0,0.0,0.0,0.0,0.0,0.0,0.0,0.0,0.0,0.0,0.0,0.0,0.0,0.0,0.0,0.0,0.0,0.0,0.0,0.0,0.0,0.0,0.0,0.0,0.0,0.0,0.0,0.0,0.0,0.0,-3.0898,-3.0898,-3.0898,-3.1498,-3.2964,-3.4459,-3.5945,-3.7423,0.0,0.0,0.0,0.0,0.0,0.0,0.0,0.0,0.0,0.0,0.0,0.0,0.0,0.0,0.0,0.0,0.0,0.0,0.0,0.0,0.0,0.0,0.0,0.0,0.0,0.0,0.0,0.0,0.0,0.0,0.0,0.0,0.0,0.0,0.0,0.0,0.0,0.0,0.0,0.0,0.0,0.0,0.0,0.0,0.0,0.0,0.0,0.0,0.0,0.0,0.0,0.0,0.0,0.0,0.0,0.0,0.0,0.0,0.0,0.0,0.0,0.0,0.0,0.0,0.0,0.0,0.0,0.0,0.0,0.0,0.0,0.0,0.0,0.0,0.0,0.0,0.0,0.0,0.0,0.0,0.0,0.0,0.0,0.0,0.0,0.0,0.0,0.0,0.0,0.0,0.0,0.0,0.0,0.0,0.0,0.0,0.0,0.0,0.0,0.0,0.0,0.0,0.0,-3.0898,-3.0898,-3.0898,-3.1594,-3.2701,-3.4181,-3.5672,-3.7156,-3.8582,-3.9362,0.0,0.0,0.0,0.0,0.0,0.0,0.0,0.0,0.0,0.0,0.0,0.0,0.0,0.0,0.0,0.0,0.0,0.0,0.0,0.0,0.0,0.0,0.0,0.0,0.0,0.0,0.0,0.0,0.0,0.0,0.0,0.0,0.0,0.0,0.0,0.0,0.0,0.0,0.0,0.0,0.0,0.0,0.0,0.0,0.0,0.0,0.0,0.0,0.0,0.0,0.0,0.0,0.0,0.0,0.0,0.0,0.0,0.0,0.0,0.0,0.0,0.0,0.0,0.0,0.0,0.0,0.0,0.0,0.0,0.0,0.0,0.0,0.0,0.0,0.0,0.0,0.0,0.0,0.0,0.0,0.0,0.0,0.0,0.0,0.0,0.0,0.0,0.0,0.0,0.0,0.0,0.0,0.0,0.0,0.0,0.0,0.0,0.0,0.0,0.0,0.0,0.0,-3.0898,-3.1054,-3.1383,-3.2416,-3.3845,-3.5672,-3.6865,-3.8137,-3.9645,-3.9697,0.0,0.0,0.0,0.0,0.0,0.0,0.0,0.0,0.0,0.0,0.0,0.0,0.0,0.0,0.0,0.0,0.0,0.0,0.0,0.0,0.0,0.0,0.0,0.0,0.0,0.0,0.0,0.0,0.0,0.0,0.0,0.0,0.0,0.0,0.0,0.0,0.0,0.0,0.0,0.0,0.0,0.0,0.0,0.0,0.0,0.0,0.0,0.0,0.0,0.0,0.0,0.0,0.0,0.0,0.0,0.0,0.0,0.0,0.0,0.0,0.0,0.0,0.0,0.0,0.0,0.0,0.0,0.0,0.0,0.0,0.0,0.0,0.0,0.0,0.0,0.0,0.0,0.0,0.0,0.0,0.0,0.0,0.0,0.0,0.0,0.0,0.0,0.0,0.0,0.0,0.0,0.0,0.0,0.0,0.0,0.0,0.0,0.0,0.0,0.0,0.0,0.0,-3.0898,-3.1441,-3.2794,-3.3021,-3.4236,-3.7079,-3.7453,-3.8137,-3.9645,-3.9697,0.0,0.0,0.0,0.0,0.0,0.0,0.0,0.0,0.0,0.0,0.0,0.0,0.0,0.0,0.0,0.0,0.0,0.0,0.0,0.0,0.0,0.0,0.0,0.0,0.0,0.0,0.0,0.0,0.0,0.0,0.0,0.0,0.0,0.0,0.0,0.0,0.0,0.0,0.0,0.0,0.0,0.0,0.0,0.0,0.0,0.0,0.0,0.0,0.0,0.0,0.0,0.0,0.0,0.0,0.0,0.0,0.0,0.0,0.0,0.0,0.0,0.0,0.0,0.0,0.0,0.0,0.0,0.0,0.0,0.0,0.0,0.0,0.0,0.0,0.0,0.0,0.0,0.0,0.0,0.0,0.0,0.0,0.0,0.0,0.0,0.0,0.0,0.0,0.0,0.0,0.0,0.0,0.0,0.0,0.0,0.0,0.0,0.0,0.0,0.0,0.0,0.0,-3.3576,-3.4353,0.0,-3.5523,-3.6302,-3.7423,-3.8348,-3.9129,-3.9645,0.0,0.0,0.0,0.0,0.0,0.0,0.0,0.0,0.0,0.0,0.0,0.0,0.0,0.0,0.0,0.0,0.0,0.0,0.0,0.0,0.0,0.0,0.0,0.0,0.0,0.0,0.0,0.0,0.0,0.0,0.0,0.0,0.0,0.0,0.0,0.0,0.0,0.0,0.0,0.0,0.0,0.0,0.0,0.0,0.0,0.0,0.0,0.0,0.0,0.0,0.0,0.0,0.0,0.0,0.0,0.0,0.0,0.0,0.0,0.0,0.0,0.0,0.0,0.0,0.0,0.0,0.0,0.0,0.0,0.0,0.0,0.0,0.0,0.0,0.0,0.0,0.0,0.0,0.0,0.0,0.0,0.0,0.0,0.0,0.0,0.0,0.0,0.0,0.0,0.0,0.0,0.0,0.0,0.0,0.0,0.0,0.0,0.0,0.0,0.0,0.0,0.0,-3.4154,-3.54,-3.6534,0.0,-3.7622,-3.8192,-3.8698,-3.9476,-3.9948,-3.9948,0.0,0.0,0.0,0.0,0.0,0.0,0.0,0.0,0.0,0.0,0.0,0.0,0.0,0.0,0.0,0.0,0.0,0.0,0.0,0.0,0.0,0.0,0.0,0.0,0.0,0.0,0.0,0.0,0.0,0.0,0.0,0.0,0.0,0.0,0.0,0.0,0.0,0.0,0.0,0.0,0.0,0.0,0.0,0.0,0.0,0.0,0.0,0.0,0.0,0.0,0.0,0.0,0.0,0.0,0.0,0.0,0.0,0.0,0.0,0.0,0.0,0.0,0.0,0.0,0.0,0.0,0.0,0.0,0.0,0.0,0.0,0.0,0.0,0.0,0.0,0.0,0.0,0.0,0.0,0.0,0.0,0.0,0.0,0.0,0.0,0.0,0.0,0.0,0.0,0.0,0.0,0.0,0.0,0.0,0.0,0.0,0.0,0.0,0.0,0.0,0.0,0.0,-3.4774,-3.5975,-3.7519,-3.8967,-3.9133,-3.9709,-4.1168,-4.0774,-4.0526,0.0,0.0,0.0,0.0,0.0,0.0,0.0,0.0,0.0,0.0,0.0,0.0,0.0,0.0,0.0,0.0,0.0,0.0,0.0,0.0,0.0,0.0,0.0,0.0,0.0,0.0,0.0,0.0,0.0,0.0,0.0,0.0,0.0,0.0,0.0,0.0,0.0,0.0,0.0,0.0,0.0,0.0,0.0,0.0,0.0,0.0,0.0,0.0,0.0,0.0,0.0,0.0,0.0,0.0,0.0,0.0,0.0,0.0,0.0,0.0,0.0,0.0,0.0,0.0,0.0,0.0,0.0,0.0,0.0,0.0,0.0,0.0,0.0,0.0,0.0,0.0,0.0,0.0,0.0,0.0,0.0,0.0,0.0,0.0,0.0,0.0,0.0,0.0,0.0,0.0,0.0,0.0,0.0,0.0,0.0,0.0,0.0,0.0,0.0,0.0,0.0,0.0,0.0,-3.8321,-3.9706,-4.0789,-4.1255,-4.0933,-4.0819,-4.1275,-4.115,-4.0874,-4.0551,0.0,0.0,0.0,0.0,0.0,0.0,0.0,0.0,0.0,0.0,0.0,0.0,0.0,0.0,0.0,0.0,0.0,0.0,0.0,0.0,0.0,0.0,0.0,0.0,0.0,0.0,0.0,0.0,0.0,0.0,0.0,0.0,0.0,0.0,0.0,0.0,0.0,0.0,0.0,0.0,0.0,0.0,0.0,0.0,0.0,0.0,0.0,0.0,0.0,0.0,0.0,0.0,0.0,0.0,0.0,0.0,0.0,0.0,0.0,0.0,0.0,0.0,0.0,0.0,0.0,0.0,0.0,0.0,0.0,0.0,0.0,0.0,0.0,0.0,0.0,0.0,0.0,0.0,0.0,0.0,0.0,0.0,0.0,0.0,0.0,0.0,0.0,0.0,0.0,0.0,0.0,0.0,0.0,0.0,0.0,0.0,0.0,0.0,0.0,0.0,0.0,0.0,-4.0197,-4.1545,-4.2539,-4.2539,-4.2183,-4.2007,-4.2007,-4.1781,-4.153,-4.1178,0.0,0.0,0.0,0.0,0.0,0.0,0.0,0.0,0.0,0.0,0.0,0.0,0.0,0.0,0.0,0.0,0.0,0.0,0.0,0.0,0.0,0.0,0.0,0.0,0.0,0.0,0.0,0.0,0.0,0.0,0.0,0.0,0.0,0.0,0.0,0.0,0.0,0.0,0.0,0.0,0.0,0.0,0.0,0.0,0.0,0.0,0.0,0.0,0.0,0.0,0.0,0.0,0.0,0.0,0.0,0.0,0.0,0.0,0.0,0.0,0.0,0.0,0.0,0.0,0.0,0.0,0.0,0.0,0.0,0.0,0.0,0.0,0.0,0.0,0.0,0.0,0.0,0.0,0.0,0.0,0.0,0.0,0.0,0.0,0.0,0.0,0.0,0.0,0.0,0.0,0.0,0.0,0.0,0.0,0.0,0.0,0.0,0.0,0.0,0.0,0.0,0.0,-4.1019,-4.2093,-4.2986,-4.2986,-4.2986,-4.2986,-4.2986,-4.2564,-4.2263,-4.2213,0.0,0.0,0.0,0.0,0.0,0.0,0.0,0.0,0.0,0.0,0.0,0.0,0.0,0.0,0.0,0.0,0.0,0.0,0.0,0.0,0.0,0.0,0.0,0.0,0.0,0.0,0.0,0.0,0.0,0.0,0.0,0.0,0.0,0.0,0.0,0.0,0.0,0.0,0.0,0.0,0.0,0.0,0.0,0.0,0.0,0.0,0.0,0.0,0.0,0.0,0.0,0.0,0.0,0.0,0.0,0.0,0.0,0.0,0.0,0.0,-3.2363,0.0,0.0,0.0,0.0,0.0,0.0,0.0,0.0,0.0,0.0,0.0,0.0,0.0,0.0,0.0,0.0,0.0,0.0,0.0,0.0,0.0,0.0,0.0,0.0,0.0,0.0,0.0,0.0,0.0,0.0,0.0,0.0,0.0,0.0,0.0,0.0,0.0,0.0,0.0,0.0,0.0,-4.2375,-4.2793,-4.2986,-4.2986,-4.2986,-4.2986,-4.2986,-4.2861,-4.2665,-4.2238,-4.2112,0.0,0.0,0.0,0.0,0.0,0.0,0.0,0.0,0.0,0.0,0.0,0.0,0.0,0.0,0.0,0.0,0.0,0.0,0.0,0.0,0.0,0.0,0.0,0.0,0.0,0.0,0.0,0.0,0.0,0.0,0.0,0.0,0.0,0.0,0.0,0.0,0.0,0.0,0.0,0.0,0.0,0.0,0.0,0.0,0.0,0.0,0.0,0.0,0.0,0.0,0.0,0.0,0.0,0.0,0.0,0.0,0.0,0.0,0.0,0.0,-3.2715,0.0,0.0,0.0,0.0,0.0,0.0,0.0,0.0,0.0,0.0,0.0,0.0,0.0,0.0,0.0,0.0,0.0,0.0,0.0,0.0,0.0,0.0,0.0,0.0,0.0,0.0,0.0,0.0,0.0,0.0,0.0,0.0,0.0,0.0,0.0,0.0,0.0,0.0,0.0,0.0,-4.2905,-4.2986,-4.2986,-4.2986,-4.2986,-4.2986,-4.2986,-4.2986,-4.2861,-4.2615,-4.2615,0.0,0.0,0.0,0.0,0.0,0.0,0.0,0.0,0.0,0.0,0.0,0.0,0.0,0.0,0.0,0.0,0.0,0.0,0.0,0.0,0.0,0.0,0.0,0.0,0.0,0.0,0.0,0.0,0.0,0.0,0.0,0.0,0.0,0.0,0.0,0.0,0.0,0.0,0.0,0.0,0.0,0.0,0.0,0.0,0.0,0.0,0.0,0.0,0.0,0.0,0.0,0.0,0.0,-3.2109,-3.25,-3.291,-3.291,-3.3086,-3.3398,-3.3066,-3.3105,-3.3418,-3.3418,0.0,0.0,0.0,0.0,0.0,0.0,0.0,0.0,0.0,0.0,0.0,0.0,0.0,0.0,0.0,0.0,0.0,0.0,0.0,0.0,0.0,0.0,0.0,0.0,-4.2819,-4.2423,0.0,0.0,0.0,0.0,0.0,0.0,0.0,0.0,0.0,0.0,0.0,0.0,-4.2986,-4.2986,-4.2986,-4.2986,-4.2986,-4.2986,-4.2986,-4.2986,-4.2986,-4.2986,-4.2986,-4.2816,0.0,0.0,0.0,0.0,0.0,0.0,0.0,0.0,0.0,0.0,0.0,0.0,0.0,0.0,0.0,0.0,0.0,0.0,0.0,0.0,0.0,0.0,0.0,0.0,0.0,0.0,0.0,0.0,0.0,0.0,0.0,0.0,-3.0254,-3.0664,0.0,0.0,0.0,0.0,0.0,0.0,0.0,0.0,0.0,0.0,0.0,0.0,0.0,-3.1426,-3.1445,-3.1875,-3.2266,-3.2637,-3.2676,-3.293,-3.334,-3.334,-3.3379,-3.3418,-3.3359,0.0,-3.3418,-3.3418,0.0,0.0,0.0,0.0,0.0,0.0,0.0,0.0,0.0,0.0,0.0,0.0,0.0,0.0,0.0,0.0,0.0,0.0,0.0,0.0,0.0,0.0,-4.5356,-4.5151,-4.4677,-4.4278,0.0,-4.3003,-4.2386,-4.348,-4.3519,0.0,0.0,0.0,0.0,0.0,0.0,0.0,-4.2986,-4.2986,-4.2986,-4.2986,-4.2986,-4.2986,-4.2986,-4.2986,-4.2986,-4.2986,-4.2986,-4.2936,-4.2861,-4.2936,0.0,0.0,0.0,0.0,0.0,0.0,0.0,0.0,0.0,0.0,0.0,0.0,0.0,0.0,0.0,0.0,0.0,0.0,0.0,0.0,0.0,0.0,0.0,0.0,0.0,0.0,0.0,0.0,0.0,-3.0469,-3.0664,-3.0859,-3.0898,-3.0898,0.0,0.0,0.0,0.0,0.0,0.0,0.0,0.0,0.0,-3.1601,-3.1797,-3.1875,-3.1875,-3.2305,-3.2617,-3.2793,-3.3027,-3.3242,-3.3418,-3.3418,-3.3555,-3.3789,-3.3789,-3.3926,-3.4121,-3.3887,-3.4043,-3.4434,0.0,0.0,0.0,0.0,-3.5078,-3.5117,-3.5351,-3.6216,0.0,-3.7223,0.0,0.0,0.0,0.0,0.0,0.0,0.0,0.0,0.0,0.0,-4.5945,-4.5914,-4.5748,-4.5573,-4.5573,-4.5012,-4.4502,0.0,-4.4267,-4.4192,-4.394,0.0,0.0,0.0,0.0,-4.2986,-4.2986,-4.2986,-4.2986,-4.2986,-4.2986,-4.2986,-4.2986,-4.2986,-4.2986,-4.2986,-4.2986,-4.2986,-4.2986,-4.2986,-4.2861,0.0,0.0,0.0,0.0,0.0,0.0,0.0,0.0,0.0,0.0,0.0,0.0,0.0,0.0,0.0,0.0,0.0,0.0,0.0,0.0,0.0,0.0,0.0,0.0,0.0,0.0,0.0,0.0,-3.0898,-3.0898,-3.0898,-3.0898,-3.0898,0.0,0.0,0.0,0.0,0.0,0.0,-3.166,-3.168,-3.1836,-3.2209,-3.2266,-3.2324,-3.2324,-3.2734,-3.2949,-3.2969,-3.3281,-3.3476,-3.3594,-3.3594,-3.3828,-3.4238,-3.4238,-3.4473,-3.4844,-3.4414,-3.4492,-3.4883,-3.4883,-3.4941,-3.5078,-3.543,-3.5547,-3.5605,-3.5918,-3.6856,-3.8021,-3.8486,0.0,-4.1952,-4.2351,0.0,0.0,0.0,0.0,-4.5995,-4.4691,-4.5324,-4.6301,-4.6301,-4.6301,-4.6301,-4.6301,-4.6301,-4.6024,0.0,-4.4844,-4.4794,-4.4644,0.0,0.0,0.0,0.0,-4.3338,-4.3212,-4.3187,-4.3137,-4.2986,-4.2986,-4.2986,-4.2986,-4.2986,-4.2986,-4.2986,-4.2986,-4.2986,-4.2986,-4.2986,-4.2986,-4.2986,0.0,0.0,0.0,0.0,0.0,0.0,0.0,0.0,0.0,0.0,0.0,0.0,0.0,0.0,0.0,0.0,0.0,0.0,0.0,0.0,0.0,0.0,0.0,0.0,0.0,0.0,0.0,0.0,0.0,-3.0898,-3.0898,0.0,0.0,0.0,0.0,-3.1445,-3.1484,-3.168,-3.2109,-3.2129,-3.2209,-3.2229,-3.2559,-3.2754,-3.2754,-3.3184,-3.3379,-3.3398,-3.3418,-3.3633,-3.4043,-3.4043,-3.4277,-3.4668,-3.4668,-3.4922,-3.5332,-3.4863,-3.4941,-3.5351,-3.5351,-3.5605,-3.5957,-3.5976,-3.5996,-3.5996,-3.6016,-3.6084,-3.6403,-3.8088,-4.0841,-4.3844,-4.5538,-4.6084,0.0,0.0,-4.619,-4.6301,-4.6215,-4.6215,-4.6301,-4.6301,-4.6301,-4.6301,-4.6301,-4.6301,-4.6125,0.0,-4.5447,-4.5271,-4.4719,0.0,-4.4593,-4.4593,-4.4568,-4.4342,-4.384,-4.3765,-4.3564,-4.3037,-4.2986,-4.2986,-4.2986,-4.2986,-4.2986,-4.2986,-4.2986,-4.2986,-4.2986,-4.2986,-4.2986,-4.2986,-4.2961,0.0,0.0,0.0,0.0,0.0,0.0,0.0,0.0,0.0,0.0,0.0,0.0,0.0,0.0,0.0,0.0,0.0,0.0,0.0,0.0,0.0,0.0,0.0,0.0,0.0,0.0,0.0,0.0,-3.0898,-3.1133,0.0,-3.1289,-3.1543,-3.1777,-3.1934,-3.1934,-3.2129,-3.2559,-3.2578,-3.2695,-3.2969,-3.3125,-3.3203,-3.3203,-3.334,-3.3555,-3.3848,-3.3848,-3.4062,-3.4473,-3.4473,-3.4726,-3.5137,-3.5137,-3.5391,-3.5781,-3.5625,-3.5644,-3.5801,-3.5801,-3.5879,-3.6016,-3.6016,-3.6016,-3.6152,-3.7307,-3.842,-3.9823,-4.2643,-4.436,-4.5502,-4.6145,-4.6301,-4.6301,-4.6301,-4.6301,-4.6301,-4.6301,-4.6301,-4.6301,-4.6301,-4.6301,-4.6301,-4.6301,-4.6301,-4.625,-4.605,-4.6024,-4.5949,-4.5748,-4.5422,-4.5171,-4.5171,-4.4869,-4.4543,-4.4342,-4.4317,-4.4116,-4.3564,-4.3514,-4.3363,-4.3011,-4.2986,-4.2986,-4.2986,-4.2986,-4.2986,-4.2986,-4.2986,-4.2986,-4.2986,-4.2986,-4.2916,0.0,0.0,0.0,0.0,0.0,0.0,0.0,0.0,0.0,0.0,0.0,0.0,0.0,0.0,0.0,0.0,0.0,0.0,0.0,0.0,0.0,0.0,0.0,0.0,0.0,0.0,-3.1094,-3.1094,-3.1484,-3.1738,-3.1738,-3.1992,-3.2287,-3.2363,-3.2383,-3.2559,-3.2988,-3.3008,-3.3144,-3.3418,-3.3555,-3.3633,-3.3633,-3.3789,-3.4004,-3.4277,-3.4277,-3.4512,-3.4941,-3.4941,-3.5176,-3.5605,-3.5605,-3.5762,-3.6016,-3.6016,-3.6016,-3.6016,-3.6016,-3.6016,-3.6016,-3.6016,-3.6016,-3.6152,-3.7307,-3.9256,-4.1565,-4.3855,-4.5342,-4.6301,-4.6301,-4.6301,-4.6301,-4.6301,-4.6301,-4.6301,-4.6301,-4.6301,-4.6301,-4.6301,-4.6301,-4.6301,-4.6301,-4.6301,-4.6301,-4.6301,-4.6301,-4.6301,-4.6301,-4.5999,-4.5773,-4.5773,-4.5447,-4.5121,-4.4945,-4.492,-4.4694,-4.4141,-4.3915,-4.3664,-4.3288,-4.3087,-4.2986,-4.2986,-4.2986,-4.2986,-4.2986,-4.2986,-4.2986,-4.2986,-4.2986,-4.2986,-4.2986,0.0,0.0,0.0,0.0,0.0,0.0,0.0,0.0,0.0,0.0,0.0,0.0,0.0,0.0,0.0,0.0,0.0,0.0,0.0,0.0,0.0,0.0,0.0,-3.0976,-3.1269,-3.1543,-3.1543,-3.1914,-3.2248,-3.2248,-3.2207,-3.2383,-3.2793,-3.2812,-3.3008,-3.3418,-3.3437,-3.3437,-3.3457,-3.3867,-3.4082,-3.4082,-3.4492,-3.4707,-3.4726,-3.4726,-3.4961,-3.541,-3.541,-3.5625,-3.6016,-3.6016,-3.6016,-3.6016,-3.6016,-3.6016,-3.6016,-3.6016,-3.6016,-3.6016,-3.6016,-3.6084,-3.6152,-3.6152,-3.842,-4.1373,-4.1373,-4.3606,-4.6301,-4.6301,-4.6301,-4.6301,-4.6301,-4.6301,-4.6301,-4.6301,-4.6301,-4.6301,-4.6301,-4.6301,-4.6301,-4.6301,-4.6301,-4.6301,-4.6301,-4.6301,-4.6301,-4.6301,-4.6301,-4.6301,-4.6301,-4.6301,0.0,-4.5573,-4.5522,-4.5296,-4.4719,-4.4166,-4.384,-4.379,-4.3313,-4.2986,-4.2986,-4.2986,-4.2986,-4.2986,-4.2986,-4.2986,-4.2986,-4.2986,-4.2986,-4.2986,0.0,0.0,0.0,0.0,0.0,0.0,0.0,0.0,0.0,0.0,0.0,0.0,0.0,0.0,0.0,0.0,0.0,0.0,0.0,0.0,0.0,0.0,-3.1836,-3.1406,-3.1719,-3.1992,-3.1992,-3.2363,-3.2617,-3.2617,-3.2891,-3.3125,-3.3242,-3.3242,-3.3437,-3.3867,-3.3887,-3.4023,-3.4336,-3.4473,-3.4531,-3.4531,-3.4648,-3.4863,-3.5195,-3.5195,-3.543,-3.5859,-3.5859,-3.5918,-3.6016,-3.6016,-3.6016,-3.6016,-3.6016,-3.6016,-3.6016,-3.6016,-3.6016,-3.6016,-3.6016,-3.7575,-3.9758,-3.9758,-4.2011,-4.489,-4.489,-4.5525,-4.6301,-4.6301,-4.6301,-4.6301,-4.6301,-4.6301,-4.6301,-4.6301,-4.6301,-4.6301,-4.6301,-4.6301,-4.6301,-4.6301,-4.6301,-4.6301,-4.6301,-4.6301,-4.6301,-4.6301,-4.6301,-4.6301,-4.6301,-4.6301,0.0,-4.61,-4.6075,-4.5874,-4.5321,-4.5121,-4.4694,-4.3865,-4.3664,-4.3413,-4.3011,-4.2986,-4.2986,-4.2986,-4.2986,-4.2986,-4.2986,-4.2986,-4.2986,0.0,0.0,0.0,0.0,0.0,0.0,0.0,0.0,0.0,0.0,0.0,0.0,0.0,0.0,0.0,0.0,0.0,0.0,0.0,0.0,0.0,0.0,-3.2324,-3.2344,-3.209,-3.2266,-3.2422,-3.2422,-3.2793,-3.3066,-3.3066,-3.3281,-3.3496,-3.3691,-3.3691,-3.3887,-3.4316,-3.4336,-3.4453,-3.4687,-3.4883,-3.498,-3.498,-3.5156,-3.5391,-3.5664,-3.5664,-3.5781,-3.6016,-3.6016,-3.6016,-3.6016,-3.6016,-3.6016,-3.6016,-3.6016,-3.6016,0.0,0.0,0.0,0.0,0.0,-3.7307,-3.9125,-3.9823,-4.1437,-4.3294,-4.4767,-4.5196,-4.5342,-4.6059,-4.6301,-4.6301,-4.6301,-4.6301,-4.6301,-4.6301,-4.6301,-4.6301,-4.6301,-4.6301,-4.6301,-4.6301,-4.6301,-4.6301,-4.6301,-4.6301,0.0,-4.6301,-4.6301,-4.6301,-4.6301,-4.6301,-4.6301,-4.6301,-4.6301,-4.6175,-4.5874,-4.5623,-4.5221,-4.4568,-4.4066,0.0,0.0,0.0,-4.2986,-4.2986,-4.2986,0.0,0.0,0.0,-4.2986,-4.2986,0.0,0.0,0.0,-4.4989,-4.5917,0.0,0.0,0.0,0.0,0.0,0.0,0.0,0.0,0.0,0.0,0.0,0.0,0.0,0.0,0.0,0.0,-3.2617,-3.2871,-3.2871,-3.2871,-3.2871,-3.2871,-3.3184,-3.3437,-3.3496,-3.3496,-3.3672,-3.4101,-3.4141,-3.4336,-3.4766,0.0,0.0,0.0,0.0,-3.5469,-3.5469,-3.584,-3.6016,-3.6016,-3.6016,-3.6016,-3.6016,-3.6016,-3.6016,-3.6016,-3.6016,-3.6016,-3.6016,-3.6016,-3.6016,-3.6016,-3.6016,-3.6016,-3.6016,-3.6016,-3.6152,-3.6539,-3.8088,0.0,0.0,-4.2643,-4.3731,-4.4041,-4.5793,-4.6301,-4.6301,-4.6301,-4.6301,-4.6301,-4.6301,-4.6301,-4.6301,-4.6301,-4.6301,-4.6301,-4.6301,-4.6301,-4.6301,-4.6301,-4.6301,-4.6301,-4.6301,-4.6301,-4.6301,-4.6301,-4.6301,-4.6301,-4.6301,-4.6301,-4.6301,-4.6301,0.0,0.0,-4.5488,-4.456,-4.3959,-4.3915,-4.3419,-4.3067,-4.3067,-4.3042,-4.2986,-4.2986,-4.2986,-4.2986,-4.2986,-4.2986,-4.2986,-4.3073,-4.523,-4.6192,0.0,0.0,0.0,0.0,0.0,0.0,0.0,0.0,0.0,0.0,0.0,0.0,0.0,0.0,0.0,-3.3605,-3.3242,-3.3301,-3.3301,-3.3301,-3.3301,-3.3301,-3.3379,-3.3555,-3.3906,-3.3945,-3.4121,-3.4551,-3.457,-3.4766,-3.5234,-3.5254,-3.541,-3.5762,-3.5859,-3.5898,-3.5898,-3.5976,-3.6016,-3.6016,0.0,0.0,-3.6016,-3.6016,-3.6016,-3.6016,-3.6016,-3.6016,-3.6016,-3.6016,-3.6016,-3.6016,-3.6016,-3.6016,-3.6016,-3.6016,-3.6856,-3.8154,-3.8465,-3.9497,-4.1052,-4.302,-4.3731,-4.4041,-4.5793,-4.6301,0.0,-4.6301,-4.6301,-4.6301,-4.6301,-4.6301,-4.6301,-4.6301,-4.6301,-4.6301,-4.6301,-4.6301,-4.6301,-4.6301,-4.6301,-4.6301,-4.6301,-4.6301,-4.6301,-4.6301,-4.6301,-4.6301,-4.6301,-4.6301,-4.6301,-4.6301,-4.6225,-4.5955,-4.554,-4.5341,-4.4962,-4.4469,-4.3919,-4.363,-4.363,-4.3229,-4.2986,-4.2986,-4.2986,-4.2986,-4.2986,-4.2986,-4.2986,-4.3073,-4.5685,-4.6929,0.0,0.0,0.0,0.0,0.0,0.0,0.0,0.0,0.0,0.0,0.0,-3.9602,0.0,0.0,-3.5897,-3.3737,-3.3418,-3.3418,-3.3418,-3.3613,-3.375,-3.375,-3.375,-3.3906,-3.4336,-3.4394,-3.457,-3.5019,-3.5039,-3.5234,-3.5684,-3.5703,-3.5801,-3.6016,-3.6016,-3.6016,-3.6016,-3.6016,-3.6016,-3.6016,-3.6016,-3.6016,-3.6016,-3.6016,-3.6016,-3.6016,-3.6016,-3.6016,-3.6016,-3.6016,-3.6016,-3.6016,-3.6016,-3.6016,-3.6016,-3.6016,-3.7126,-3.8729,-3.9562,-4.0472,-4.1629,-4.4189,-4.4436,-4.4041,-4.5793,-4.6301,-4.6301,-4.6301,-4.6301,-4.6301,-4.6301,-4.6301,-4.6301,-4.6301,-4.6301,-4.6301,-4.6301,-4.6301,-4.6301,-4.6301,-4.6301,-4.6301,-4.6301,-4.6301,-4.6301,-4.6301,-4.6301,-4.6301,-4.6301,-4.6301,-4.6301,-4.6301,-4.6301,-4.6215,-4.591,-4.5629,-4.521,-4.4618,-4.4342,-4.4202,-4.4219,-4.3908,-4.3701,-4.3407,-4.3413,-4.3263,-4.2986,-4.2986,-4.2986,-4.3017,-4.5102,-4.6422,0.0,0.0,0.0,0.0,0.0,0.0,0.0,0.0,-4.0576,-4.0802,-4.0501,-3.9741,-3.7911,-3.6883,-3.5622,-3.3713,-3.3496,-3.3555,-3.3555,-3.3926,-3.4219,-3.4316,-3.4258,-3.4355,-3.4785,-3.4824,-3.5019,-3.5488,-3.5508,-3.5664,-3.5996,-3.6016,-3.6016,-3.6016,-3.6016,-3.6055,-3.6152,-3.6152,-3.6191,-3.6269,-3.6269,-3.6269,-3.6269,-3.6269,-3.6269,-3.6269,-3.6269,-3.6269,-3.6269,-3.6269,-3.6269,-3.6269,-3.6269,-3.6269,-3.625,-3.6074,-3.7126,-3.8795,-4.0213,-4.0924,-4.1693,-4.4767,-4.4829,-4.4041,-4.5793,-4.6301,-4.6301,-4.6301,-4.6301,-4.6301,-4.6301,-4.6301,-4.6301,-4.6301,-4.6301,-4.6301,-4.6301,-4.6301,-4.6301,-4.6301,-4.6301,-4.6301,-4.6301,-4.6301,-4.6301,-4.6301,-4.6301,-4.6301,-4.6301,-4.6301,-4.6301,-4.6301,-4.6301,-4.6301,-4.6301,-4.591,-4.5425,-4.4937,-4.4829,-4.4794,-4.4778,-4.4652,-4.4427,-4.3994,-4.3959,-4.374,-4.3288,-4.3187,-4.3137,-4.3193,-4.467,-4.603,-3.9697,-3.9697,-3.9697,-3.9697,-3.9697,-3.9823,0.0,0.0,-4.0802,-4.181,-4.1948,-4.1125,-3.8598,-3.8,-3.6963,-3.3902,-3.375,-3.4004,-3.4004,-3.4355,-3.4785,-3.5195,-3.4883,-3.4805,-3.5273,-3.5312,-3.5488,-3.5918,-3.5957,-3.5976,-3.6016,-3.6016,-3.6016,-3.6016,-3.6016,-3.6211,-3.6601,-3.6601,-3.6797,-3.7148,-3.7148,-3.7148,-3.7148,-3.7148,-3.7148,-3.7148,-3.7148,-3.7148,-3.7148,-3.7148,-3.7148,-3.7148,-3.7148,-3.7148,-3.707,-3.6309,-3.7126,-3.8597,-3.8795,-3.9888,-4.1501,-4.3396,-4.3855,-4.4041,-4.5793,-4.6301,-4.6301,-4.6301,-4.6301,-4.6301,-4.6301,-4.6301,-4.6301,-4.6301,-4.6301,-4.6301,-4.6301,-4.6301,-4.6301,-4.6301,-4.6301,-4.6301,-4.6301,-4.6301,-4.6301,-4.6301,-4.6301,-4.6301,-4.6301,-4.6301,-4.6301,-4.6301,-4.6301,-4.6301,-4.6301,-4.624,-4.6165,-4.6125,-4.564,-4.542,-4.5405,-4.4858,-4.4568,-4.4519,-4.4527,-4.4493,-4.4443,-4.394,-4.3714,-4.3746,-4.5902,-4.694,-3.9697,-3.9697,-3.9697,0.0,-3.9923,-4.0224,-4.0475,-4.1003,-4.1605,-4.2112,-4.1694,-4.064,-3.8594,-3.7424,-3.6135,0.0,-3.3945,-3.416,-3.4394,-3.4824,-3.5176,-3.5371,-3.543,-3.5547,-3.5742,-3.5762,-3.584,-3.6016,-3.6016,-3.6016,-3.6016,-3.6269,-3.6406,-3.6406,-3.6641,-3.6855,-3.7031,-3.7031,-3.7129,-3.7305,-3.7305,-3.7305,-3.7305,-3.7305,-3.7305,-3.7305,-3.7305,-3.7305,-3.7305,-3.7305,-3.7305,-3.7305,-3.7305,-3.7305,-3.7387,-3.8102,-3.9462,-4.1089,-4.2206,-4.363,-4.5155,-4.5575,-4.5687,-4.5761,-4.6159,-4.6301,-4.6301,-4.6301,-4.6301,-4.6301,-4.6301,-4.6301,-4.6301,-4.6301,-4.6301,-4.6301,-4.6301,-4.6301,-4.6301,-4.6301,-4.6301,-4.6301,-4.6301,-4.6301,-4.6301,-4.6301,-4.6301,-4.6301,-4.6301,-4.6301,-4.6301,-4.6301,-4.6301,-4.6301,-4.6301,-4.6301,-4.6301,-4.6301,-4.6105,-4.5995,-4.5995,-4.572,-4.542,-4.5153,-4.5112,-4.497,-4.4618,-4.4392,-4.4292,-4.4267,-4.521,-4.6106,-3.9697,-3.9697,0.0,-3.9873,-4.0224,-4.0601,-4.0902,-4.158,-4.2263,-4.2414,-4.146,-4.0129,-3.8521,-3.7011,-3.5583,-3.4325,-3.4277,-3.4551,-3.4844,-3.5273,-3.5566,-3.5566,-3.584,-3.6016,-3.6016,-3.6016,-3.6016,-3.6016,-3.6133,-3.6191,-3.6191,-3.6601,-3.6836,-3.6836,-3.7148,-3.7344,-3.7461,-3.7461,-3.7539,-3.7656,-3.7656,-3.7656,-3.7656,-3.7656,-3.7656,-3.7656,-3.7656,-3.7656,-3.7656,-3.7656,-3.7656,-3.7656,-3.7656,-3.7992,-3.8658,-4.0498,-4.1808,-4.2748,-4.4151,-4.6045,-4.7857,-4.7481,-4.7355,-4.728,-4.6878,-4.6753,-4.6753,-4.6753,-4.6753,-4.6702,-4.6572,-4.6522,-4.6496,-4.6326,-4.6301,-4.6301,-4.6301,-4.6301,-4.6301,-4.6301,-4.6301,-4.6301,-4.6301,-4.6301,-4.6301,-4.6301,-4.6301,-4.6301,-4.6301,-4.6301,-4.6301,-4.6301,-4.6301,-4.6301,-4.6301,-4.6301,-4.6301,-4.6301,-4.6301,-4.6301,-4.6301,-4.6301,-4.6125,-4.5723,-4.5723,-4.5522,-4.5095,-4.4945,-4.4869,-4.4844,-4.5074,-4.5974,-3.9697,0.0,-3.9823,-4.035,-4.0501,-4.0802,-4.1911,-4.2187,-4.2363,-4.2836,-4.1704,-4.0129,-3.8521,-3.7231,-3.5976,-3.4384,-3.4785,-3.5351,-3.5371,-3.5742,-3.5996,-3.5996,-3.6016,-3.6016,0.0,-3.6016,-3.6016,-3.6016,-3.6406,-3.666,-3.666,-3.7051,-3.7285,-3.7285,-3.7285,-3.75,-3.791,-3.791,-3.8125,-3.8535,-3.8535,-3.8535,-3.8535,-3.8535,-3.8535,-3.8535,-3.8535,-3.8535,-3.8535,-3.8535,-3.8535,-3.8535,-3.8535,-3.9634,-4.1425,-4.3313,-4.3376,-4.2637,-4.2704,-4.4995,-4.7908,-4.7883,-4.7883,-4.7883,-4.7857,-4.7857,-4.7857,-4.7857,-4.7857,-4.7744,-4.7218,-4.705,-4.6939,-4.6411,-4.6301,-4.6301,-4.6301,-4.6301,-4.6301,-4.6301,-4.6301,-4.6301,-4.6301,-4.6301,-4.6301,-4.6301,-4.6301,-4.6301,-4.6301,-4.6301,-4.6301,-4.6301,-4.6301,-4.6301,-4.6301,-4.6301,-4.6301,-4.6301,-4.6301,-4.6301,-4.6301,-4.6301,-4.6301,-4.6276,-4.6276,-4.6276,-4.625,-4.5723,-4.5472,-4.5506,-4.629,-4.7401,-3.9697,0.0,-4.0275,-4.0475,-4.1078,-4.176,-4.2112,-4.2489,-4.2457,-4.1566,-4.0387,-3.8957,-3.74,-3.612,-3.5221,-3.5034,-3.5195,-3.5488,-3.5762,-3.5937,-3.6016,-3.6016,-3.6016,0.0,0.0,0.0,0.0,-3.6445,-3.6836,-3.709,-3.709,-3.748,-3.7715,-3.7715,-3.7988,-3.8223,-3.8359,-3.8359,-3.8418,-3.8574,-3.8574,-3.8574,-3.8574,-3.8574,-3.8574,-3.8574,-3.8574,-3.9261,-4.0371,-4.0371,-4.1134,-4.2241,-4.2241,-4.2591,-4.3196,-4.391,-4.4641,-4.5548,-4.6782,-4.8001,-4.8962,-4.8611,-4.8485,-4.841,-4.8033,-4.7908,-4.7908,-4.7908,-4.7908,-4.7832,-4.768,-4.7626,-4.7587,-4.7363,-4.738,-4.7233,-4.6932,-4.6842,-4.6753,-4.6376,-4.6301,-4.6301,-4.6301,-4.6301,-4.6301,-4.6301,-4.6301,-4.6301,-4.6301,-4.6301,-4.6301,-4.6301,-4.6301,-4.6301,-4.6301,-4.6301,-4.6301,-4.6301,-4.6301,-4.6301,-4.6301,-4.6301,-4.6301,-4.6301,-4.6301,-4.6301,-4.6301,-4.6125,-4.6024,-4.6024,-4.6332,-4.723,-3.9923,-4.0249,-4.0601,-4.1003,-4.1685,-4.2263,-4.2464,-4.232,-4.1842,-4.0822,-3.9226,-3.7761,-3.6666,-3.5679,-3.5039,-3.5351,-3.5527,-3.5703,-3.5976,-3.6016,-3.6016,-3.6016,-3.6152,-3.6367,0.0,0.0,0.0,-3.6914,-3.7285,-3.7519,-3.7519,-3.793,-3.8164,-3.8164,-3.8418,-3.8574,-3.8574,-3.8574,-3.8574,-3.8574,-3.8574,-3.8574,-3.8574,-3.8574,-3.8574,-3.8574,-3.8574,-3.9261,-4.0371,-4.1063,-4.2031,-4.3127,-4.3841,-4.4527,-4.505,-4.505,-4.6221,-4.7863,-4.8412,-4.9023,-4.954,-4.9188,-4.9063,-4.8987,-4.8636,-4.851,-4.851,-4.851,-4.851,-4.846,-4.8259,-4.8259,-4.817,-4.792,-4.7921,-4.7783,-4.7458,-4.7257,-4.7029,-4.6677,-4.6451,-4.6301,-4.6301,-4.6301,-4.6301,-4.6301,-4.6301,-4.6301,-4.6301,-4.6301,-4.6301,-4.6301,-4.6301,-4.6301,-4.6301,-4.6301,-4.6301,-4.6301,-4.6301,-4.6301,-4.6301,-4.6301,-4.6301,-4.6301,-4.6301,-4.6301,-4.6301,-4.6301,-4.6301,-4.6301,-4.6301,-4.7087,-4.0375,-4.0551,-4.0827,-4.1936,-4.2238,-4.2333,-4.2805,-4.1728,-4.0534,-4.0384,-3.8347,-3.652,0.0,0.0,-3.543,-3.543,-3.5762,-3.6016,-3.6016,-3.6016,-3.6035,0.0,0.0,0.0,0.0,0.0,0.0,-3.7383,0.0,-3.7969,-3.7969,-3.8359,-3.8574,-3.8574,-3.8574,-3.8574,-3.8574,-3.8594,-3.8613,-3.8652,-3.8652,-3.8652,-3.8652,-3.8652,-3.8706,-3.8779,-3.8759,-3.8885,-3.9228,-4.085,-4.1608,-4.189,-4.368,-4.5457,-4.6931,-4.6931,-4.806,-4.9371,-4.7575,-4.8126,-4.959,-4.959,-4.959,-4.959,-4.959,-4.959,-4.959,-4.959,-4.959,-4.9464,-4.8962,-4.8812,-4.8736,-4.8158,-4.7971,-4.7971,-4.792,-4.7545,-4.7143,-4.7093,-4.6702,-4.6301,-4.6301,-4.6301,-4.6301,-4.6301,-4.6301,-4.6301,-4.6301,-4.6301,-4.6301,-4.6301,-4.6301,-4.6301,-4.6301,-4.6301,-4.6301,-4.6301,-4.6301,-4.6301,-4.6301,-4.6301,-4.6301,-4.6301,-4.6301,-4.6301,-4.6301,-4.6301,-4.6301,-4.6301,-4.6301,-4.7087,-4.0375,-4.0802,-4.1304,-4.2037,-4.2514,-4.2507,-4.1452,-4.088,-3.9989,-3.7989,-3.721,-3.666,0.0,0.0,0.0,-3.5859,-3.5957,0.0,-3.6016,-3.6016,0.0,-3.6465,0.0,-3.6914,-3.7539,-3.7793,0.0,0.0,-3.834,-3.8418,-3.8418,-3.8516,-3.8574,-3.8574,-3.8574,-3.8574,-3.8574,-3.8887,-3.9219,-3.9551,-3.9551,-3.9551,-3.9551,-3.9551,-4.033,-4.172,-4.1296,-4.2756,-4.537,-4.5392,-4.6197,-4.7533,-4.8019,-4.8502,-4.8893,-4.8893,-4.9177,-4.9525,-4.9023,-4.9177,-4.959,-4.959,-4.959,-4.959,-4.959,-4.959,-4.959,-4.959,-4.959,-4.9565,-4.9414,-4.9389,-4.9364,-4.9199,-4.9149,-4.9063,-4.8648,-4.8485,-4.8109,-4.728,-4.6702,-4.6301,-4.6301,-4.6301,-4.6301,-4.6301,-4.6301,-4.6301,-4.6301,-4.6301,-4.6301,-4.6301,-4.6301,-4.6301,-4.6301,-4.6301,-4.6301,-4.6301,-4.6301,-4.6301,-4.6301,-4.6301,-4.6301,-4.6301,-4.6301,-4.6301,-4.6301,-4.6301,-4.6301,-4.6301,-4.6301,-4.7087,-4.0727,-4.1279,-4.1831,-4.2439,-4.2816,-4.2569,-4.0961,-4.0235,-3.9226,-3.6976,-3.6385,0.0,-3.5532,-3.5742,0.0,0.0,0.0,0.0,-3.6016,-3.6191,-3.6406,0.0,-3.6992,0.0,-3.7871,-3.8105,-3.8301,0.0,-3.8574,-3.8574,-3.8574,-3.875,-3.8848,-3.8848,-3.9043,-3.916,-3.916,-3.9394,-3.9629,-3.9902,-3.9902,-3.9902,-3.9902,-3.9902,-4.0947,-4.2784,0.0,-4.4086,-4.6841,-4.7099,-4.7804,-4.8821,-4.9407,-4.959,-4.959,-4.959,-4.959,-4.959,-4.959,-4.959,-4.959,-4.959,-4.959,-4.959,-4.959,-4.959,-4.959,-4.959,-4.959,-4.959,-4.959,-4.959,-4.959,-4.959,-4.959,-4.9515,-4.9213,-4.8937,-4.8435,-4.7355,-4.6878,-4.6602,-4.6351,-4.6301,-4.6301,-4.6301,-4.6301,-4.6301,-4.6301,-4.6301,-4.6301,-4.6301,-4.6301,-4.6301,-4.6301,-4.6301,-4.6301,-4.6301,-4.6301,-4.6301,-4.6301,-4.6301,-4.6301,-4.6301,-4.6301,-4.6301,-4.6301,-4.6301,-4.6301,-4.6301,-4.6301,-4.6755,-4.1225,-4.1781,-4.2338,-4.2891,-4.2986,-4.2513,-4.0803,-3.9607,-3.8398,-3.6708,0.0,-3.541,-3.5469,-3.5781,-3.6016,-3.6016,0.0,-3.6016,-3.6016,-3.6387,-3.6699,-3.6738,-3.7441,-3.7949,-3.8008,-3.8359,-3.8594,-3.8652,-3.8652,-3.8652,-3.8652,-3.9062,-3.9297,-3.9297,-3.9687,-3.9922,-3.998,-3.998,-4.0019,-4.0059,-4.0059,-4.0059,-4.0059,-4.0361,-4.1481,-4.3392,-4.3547,0.0,-4.6654,-4.7711,-4.8108,-4.819,-4.9256,-4.9665,-4.959,-4.959,-4.959,-4.959,-4.959,-4.959,-4.959,-4.959,-4.959,-4.959,-4.959,-4.959,-4.959,-4.959,-4.959,-4.959,-4.959,-4.959,-4.959,-4.959,-4.959,-4.959,-4.959,-4.9163,-4.846,-4.7431,-4.7179,-4.6954,-4.6401,-4.6301,-4.6301,-4.6301,-4.6301,-4.6301,-4.6301,-4.6301,-4.6301,-4.6301,-4.6301,-4.6301,-4.6301,-4.6301,-4.6301,-4.6301,-4.6301,-4.6301,-4.6301,-4.6301,-4.6301,-4.6301,-4.6301,-4.6301,-4.6301,-4.6301,-4.6301,-4.6301,-4.6301,-4.6421,-4.1731,-4.2137,-4.2338,-4.2891,-4.2986,-4.233,-3.9758,-3.9017,0.0,0.0,-3.5473,-3.5508,-3.584,-3.5976,-3.6016,-3.6016,-3.6016,-3.6016,-3.6016,0.0,-3.6797,0.0,0.0,0.0,0.0,0.0,0.0,0.0,0.0,-3.9101,-3.9101,-3.9531,-3.9766,-3.9766,-3.9863,-4.0059,-4.041,-4.041,-4.0605,-4.0957,-4.0957,-4.0957,-4.1034,-4.2622,-4.4443,-4.6322,-4.7482,0.0,-5.0968,-5.0787,-5.0356,-4.9909,-5.0162,-4.9992,-4.959,-4.959,-4.959,-4.959,-4.959,-4.959,-4.959,-4.959,-4.959,-4.959,-4.959,-4.959,-4.959,-4.959,-4.959,-4.959,-4.959,-4.959,-4.959,-4.959,-4.959,-4.959,-4.959,-4.9163,-4.856,-4.7908,-4.7431,-4.6954,-4.6401,-4.6301,-4.6301,-4.6301,-4.6301,-4.6301,-4.6301,-4.6301,-4.6301,-4.6301,-4.6301,-4.6301,-4.6301,-4.6301,-4.6301,-4.6301,-4.6301,-4.6301,-4.6301,-4.6301,-4.6301,-4.6301,-4.6301,-4.6301,-4.6301,-4.6301,-4.6301,-4.6301,-4.6301,-4.6909,-4.2062,-4.2414,-4.2715,-4.2911,-4.2986,-4.2273,-3.9514,0.0,0.0,0.0,-3.5566,-3.5781,-3.5976,-3.6016,0.0,-3.6016,-3.6016,0.0,0.0,0.0,0.0,0.0,0.0,0.0,0.0,0.0,0.0,0.0,0.0,-3.9805,-3.957,-3.998,-4.0332,-4.0547,-4.0566,-4.0664,-4.0859,-4.0859,-4.1478,-4.2713,-4.2713,-4.3228,-4.4247,-4.5201,-4.6662,-4.8627,-4.9251,0.0,-5.2477,-5.195,-5.1373,-5.0845,-5.0544,-5.0067,-4.959,-4.959,-4.959,-4.959,-4.959,-4.959,-4.959,-4.959,-4.959,-4.959,-4.959,-4.959,-4.959,-4.959,-4.959,-4.959,-4.959,-4.959,-4.959,-4.959,-4.959,-4.959,-4.959,-4.9389,-4.8937,-4.8083,-4.7707,-4.728,-4.6451,-4.6301,-4.6301,-4.6301,-4.6301,-4.6301,-4.6301,-4.6301,-4.6301,-4.6301,-4.6301,-4.6301,-4.6301,-4.6301,-4.6301,-4.6301,-4.6301,-4.6301,-4.6301,-4.6301,-4.6301,-4.6301,-4.6301,-4.6301,-4.6301,-4.6301,-4.6301,-4.6301,-4.6301,-4.6695,-4.2363,-4.2715,-4.2986,-4.2986,-4.2986,-4.2379,-4.0131,-3.9534,0.0,0.0,-3.6051,-3.6016,-3.6016,-3.6016,-3.6016,0.0,-3.6016,-3.6172,0.0,0.0,0.0,0.0,0.0,0.0,0.0,0.0,0.0,0.0,0.0,0.0,-4.0195,-4.0488,-4.082,-4.1172,-4.1172,-4.1405,-4.183,-4.183,-4.279,-4.4752,-4.4752,-4.55,-4.7029,-4.7467,-4.8506,-5.0032,-5.041,0.0,0.0,-5.2452,-5.1875,-5.1247,-5.077,-5.0193,-4.959,-4.959,-4.959,-4.959,-4.959,-4.959,-4.959,-4.959,-4.959,-4.959,-4.959,-4.959,-4.959,-4.959,-4.959,-4.959,-4.959,-4.959,-4.959,-4.959,-4.959,-4.959,-4.959,-4.959,-4.9264,-4.8134,-4.7908,-4.7581,-4.6502,-4.6301,-4.6301,-4.6301,-4.6301,-4.6301,-4.6301,-4.6301,-4.6301,-4.6301,-4.6301,-4.6301,-4.6301,-4.6301,-4.6301,-4.6301,-4.6301,-4.6301,-4.6301,-4.6301,-4.6301,-4.6301,-4.6301,-4.6301,-4.6301,-4.6301,-4.6301,-4.6301,-4.6301,-4.6636,-4.276,-4.2936,-4.2986,-4.2986,-4.2986,-4.2786,-4.1995,0.0,0.0,-3.8477,-3.7085,-3.6016,-3.6016,-3.6016,-3.6016,-3.6016,0.0,-3.6172,0.0,0.0,0.0,0.0,0.0,0.0,0.0,0.0,0.0,0.0,0.0,0.0,-4.1055,-4.1094,-4.1133,-4.1172,-4.1172,-4.2062,-4.3794,-4.3794,-4.4827,-4.6735,-4.6735,-4.6809,-4.7029,-4.8866,-4.9819,-5.0127,-5.1886,0.0,0.0,-5.2879,-5.2226,-5.1272,-5.1222,-5.0544,-4.959,-4.959,-4.959,-4.959,-4.959,-4.959,-4.959,-4.959,-4.959,-4.959,-4.959,-4.959,-4.959,-4.959,-4.959,-4.959,-4.959,-4.959,-4.959,-4.959,-4.959,-4.959,-4.959,-4.959,-4.9264,-4.8134,-4.7908,-4.7581,-4.6502,-4.6301,-4.6301,-4.6301,-4.6301,-4.6301,-4.6301,-4.6301,-4.6301,-4.6301,-4.6301,-4.6301,-4.6301,-4.6301,-4.6301,-4.6301,-4.6301,-4.6301,-4.6301,-4.6301,-4.6301,-4.6301,-4.6301,-4.6301,-4.6301,-4.6301,-4.6301,-4.6301,-4.6301,-4.7743,-4.2911,-4.2986,-4.2986,-4.2986,-4.3212,-4.3241,-4.2293,0.0,-4.1266,-4.0318,-3.9627,-3.8795,-3.7755,-3.7575,-3.724,-3.6152,0.0,0.0,-3.6992,0.0,0.0,0.0,0.0,0.0,0.0,0.0,0.0,0.0,0.0,0.0,-4.1172,-4.1172,-4.1753,-4.2922,-4.2922,-4.389,-4.5849,-4.5871,-4.6809,-4.8794,-4.8794,-4.9391,-5.0576,-5.1373,-5.1747,-5.1816,-5.256,0.0,0.0,-5.2929,-5.2277,-5.1272,-5.1272,-5.0594,-4.959,-4.959,-4.959,-4.959,-4.959,-4.959,-4.959,-4.959,-4.959,-4.959,-4.959,-4.959,-4.959,-4.959,-4.959,-4.959,-4.959,-4.959,-4.959,-4.959,-4.959,-4.959,-4.959,-4.9339,-4.8862,-4.8058,-4.7657,-4.7205,-4.6451,-4.6301,-4.6301,-4.6301,-4.6301,-4.6301,-4.6301,-4.6301,-4.6301,-4.6301,-4.6301,-4.6301,-4.6301,-4.6301,-4.6301,-4.6301,-4.6301,-4.6301,-4.6301,-4.6301,-4.6301,-4.6301,-4.6301,-4.6301,-4.6301,-4.6301,-4.6301,-4.6301,-4.6301,-4.7416,-4.2986,-4.2986,-4.2986,-4.2986,-4.3388,-4.3654,0.0,0.0,-4.272,-4.2086,-4.1565,-4.0795,-3.9562,-3.8927,-3.8353,0.0,0.0,-3.7025,-3.7908,0.0,0.0,0.0,0.0,-3.8887,0.0,0.0,0.0,0.0,0.0,0.0,-4.2062,-4.2062,-4.2713,-4.4096,-4.4096,-4.5351,-4.7854,-4.7927,-4.8866,-5.0857,-5.0857,-5.1583,-5.2929,-5.2929,-5.2929,-5.2929,-5.2929,0.0,0.0,-5.2754,-5.2126,-5.1272,-5.1096,-5.0444,-4.959,-4.959,-4.959,-4.959,-4.959,-4.959,-4.959,-4.959,-4.959,-4.959,-4.959,-4.959,-4.959,-4.959,-4.959,-4.959,-4.959,-4.959,-4.959,-4.959,-4.959,-4.959,-4.959,-4.9163,-4.8611,-4.8033,-4.7481,-4.6954,-4.6401,-4.6301,-4.6301,-4.6301,-4.6301,-4.6301,-4.6301,-4.6301,-4.6301,-4.6301,-4.6301,-4.6301,-4.6301,-4.6301,-4.6301,-4.6301,-4.6301,-4.6301,-4.6301,-4.6301,-4.6301,-4.6301,-4.6301,-4.6301,-4.6301,-4.6301,-4.6301,-4.6301,-4.6301,-4.7298,-4.2986,-4.2986,-4.2986,-4.2986,-4.3388,-4.394,0.0,0.0,-4.3028,-4.355,-4.2328,-4.1181,-4.1181,-3.9758,-3.919,-4.086,-3.8662,0.0,-3.9577,0.0,0.0,0.0,0.0,0.0,0.0,0.0,0.0,0.0,0.0,0.0,-4.3945,-4.4096,-4.4096,-4.4096,-4.4096,-4.5998,-4.989,-4.9961,-5.0928,-5.2861,-5.2861,-5.2861,-5.2929,-5.2929,-5.2929,0.0,0.0,0.0,0.0,-5.2327,-5.1774,-5.1222,-5.0645,-5.0092,-4.959,-4.959,-4.959,-4.959,-4.959,-4.959,-4.959,-4.959,-4.959,-4.959,-4.959,-4.959,-4.959,-4.959,-4.959,-4.959,-4.959,-4.959,-4.959,-4.959,-4.959,-4.959,-4.959,-4.9163,-4.8611,-4.8033,-4.7481,-4.6954,-4.6401,-4.6301,-4.6301,-4.6301,-4.6301,-4.6301,-4.6301,-4.6301,-4.6301,-4.6301,-4.6301,-4.6301,-4.6301,-4.6301,-4.6301,-4.6301,-4.6301,-4.6301,-4.6301,-4.6301,-4.6301,-4.6301,-4.6301,-4.6301,-4.6301,-4.6301,-4.6301,-4.6301,-4.6301,-4.786,-4.2986,-4.2986,-4.2986,-4.2986,-4.3689,-4.4418,-4.4593,-4.4908,-4.5267,-4.544,-4.5013,-4.4312,-4.3146,-4.2454,-4.1861,-4.1309,-4.0957,0.0,0.0,0.0,0.0,0.0,0.0,0.0,0.0,0.0,0.0,0.0,0.0,0.0,-4.4096,-4.4096,-4.5351,-4.8049,-4.8121,-4.9391,-5.1956,-5.1956,-5.2258,-5.2929,-5.2929,-5.2929,-5.2929,-5.2929,-5.2929,0.0,0.0,0.0,0.0,-5.2327,-5.1774,-5.1222,-5.0645,-5.0067,-4.959,-4.959,-4.959,-4.959,-4.959,-4.959,-4.959,-4.959,-4.959,-4.959,-4.959,-4.959,-4.959,-4.959,-4.959,-4.959,-4.959,-4.959,-4.959,-4.959,-4.959,-4.949,-4.9113,-4.8586,-4.8033,-4.7481,-4.6954,-4.6527,-4.6351,-4.6301,-4.6301,-4.6301,-4.6301,-4.6301,-4.6301,-4.6301,-4.6301,-4.6301,-4.6301,-4.6301,-4.6301,-4.6301,-4.6301,-4.6301,-4.6301,-4.6301,-4.6301,-4.6301,-4.6301,-4.6301,-4.6301,-4.6301,-4.6301,-4.6301,-4.6301,-4.6361,-4.8358,-4.982,0.0,-4.2986,-4.3037,-4.3237,-4.3966,-4.4694,-4.4895,-4.5648,-4.6301,-4.6301,-4.6301,-4.5999,-4.489,-4.4103,-4.3606,-4.3169,-4.2856,0.0,0.0,0.0,0.0,-4.4293,0.0,0.0,0.0,0.0,0.0,0.0,0.0,0.0,-4.6293,-4.6293,-4.7759,-5.0998,-5.041,-5.0928,-5.2861,-5.2929,-5.2929,-5.2929,-5.2929,-5.2929,-5.2929,-5.2929,-5.2929,0.0,0.0,0.0,0.0,-5.2026,-5.1473,-5.0896,-5.0318,-4.9891,-4.959,-4.959,-4.959,-4.959,-4.959,-4.959,-4.959,-4.959,-4.959,-4.959,-4.959,-4.959,-4.959,-4.959,-4.959,-4.959,-4.959,-4.959,-4.959,-4.959,-4.959,-4.9439,-4.8887,-4.8309,-4.7757,-4.7168,-4.6702,-4.6301,-4.6301,-4.6301,-4.6301,-4.6301,-4.6301,-4.6301,-4.6301,-4.6301,-4.6301,-4.6301,-4.6301,-4.6301,-4.6301,-4.6301,-4.6301,-4.6301,-4.6301,-4.6301,-4.6301,-4.6301,-4.6301,-4.6301,-4.6301,-4.6301,-4.6301,-4.6301,-4.6601,-4.7205,-4.9621,-5.1044,0.0,-4.3087,-4.3212,-4.374,-4.4267,-4.4819,-4.5372,-4.5924,0.0,-4.6301,-4.6301,-4.6301,-4.6301,-4.4951,-4.4436,-4.6059,-4.4397,-4.3562,0.0,-4.4833,0.0,0.0,-4.5495,0.0,0.0,0.0,0.0,0.0,0.0,0.0,-4.989,-4.9961,-5.0857,-5.2861,-5.1163,-5.1068,-5.2861,-5.2929,-5.2929,-5.2929,-5.2929,-5.2929,-5.2929,-5.2929,-5.2904,0.0,0.0,0.0,0.0,-5.1448,-5.0896,-5.0368,-4.9816,-4.959,-4.959,-4.959,-4.959,-4.959,-4.959,-4.959,-4.959,-4.959,-4.959,-4.959,-4.959,-4.959,-4.959,-4.959,-4.959,-4.959,-4.959,-4.959,-4.959,-4.959,-4.9565,-4.9389,-4.8837,-4.8259,-4.7707,-4.7179,-4.6652,-4.6301,-4.6301,-4.6301,-4.6301,-4.6301,-4.6301,-4.6301,-4.6301,-4.6301,-4.6301,-4.6301,-4.6301,-4.6301,-4.6301,-4.6301,-4.6301,-4.6301,-4.6301,-4.6301,-4.6301,-4.6301,-4.6301,-4.6301,-4.6301,-4.6301,-4.6301,-4.6421,-4.7146,-4.8532,-5.0101,-5.1618,-4.4267,0.0,-4.4267,-4.4392,-4.4869,-4.5321,0.0,-4.5924,-4.6301,-4.6301,-4.6301,-4.6301,-4.6301,-4.5999,-4.5793,-4.624,-4.6501,-4.6792,-4.7194,0.0,0.0,-4.6496,-4.8026,-4.8942,0.0,0.0,0.0,0.0,0.0,-4.9534,-4.9961,-4.9961,-5.0857,-5.2861,-5.2491,-5.2421,-5.2929,-5.2929,-5.2929,-5.2929,-5.2929,-5.2929,-5.2929,-5.2929,-5.2703,0.0,0.0,0.0,-5.1423,-5.0845,-5.0544,-5.0368,-4.9816,-4.959,-4.959,-4.959,-4.959,-4.959,-4.959,-4.959,-4.959,-4.959,-4.959,-4.959,-4.959,-4.959,-4.959,-4.959,-4.959,-4.959,-4.959,-4.959,-4.959,-4.959,-4.9264,-4.8812,-4.8234,-4.7682,-4.7154,-4.6602,-4.6401,-4.6301,-4.6301,-4.6301,-4.6301,-4.6301,-4.6301,-4.6301,-4.6301,-4.6301,-4.6301,-4.6301,-4.6301,-4.6301,-4.6301,-4.6301,-4.6301,-4.6301,-4.6301,-4.6301,-4.6301,-4.6301,-4.6301,-4.6301,-4.6301,-4.6301,-4.6301,-4.7416,-4.8152,-4.8532,-5.1236,-5.2615,-4.502,-4.4819,-4.4694,-4.4945,-4.5246,-4.5547,-4.5799,-4.61,-4.6301,-4.6301,-4.6301,-4.6301,-4.6301,-4.6301,-4.6301,-4.6301,-4.7205,0.0,0.0,0.0,-4.9242,-4.8191,-4.9454,0.0,0.0,0.0,0.0,0.0,0.0,-5.1303,-5.1303,-5.1303,-5.1816,-5.2861,-5.2929,-5.2929,-5.2929,-5.2929,-5.2929,-5.2929,-5.2929,-5.2929,-5.2929,-5.2678,-5.2377,0.0,0.0,0.0,-5.087,-5.0544,-5.0268,-5.0017,-4.9715,-4.959,-4.959,-4.959,-4.959,-4.959,-4.959,-4.959,-4.959,-4.959,-4.959,-4.959,-4.959,-4.959,-4.959,-4.959,-4.959,-4.959,-4.959,-4.959,-4.954,-4.9264,-4.8987,-4.856,-4.7732,-4.733,-4.6979,-4.6426,-4.6301,-4.6301,-4.6301,-4.6301,-4.6301,-4.6301,-4.6301,-4.6301,-4.6301,-4.6301,-4.6301,-4.6301,-4.6301,-4.6301,-4.6301,-4.6301,-4.6301,-4.6301,-4.6301,-4.6301,-4.6301,-4.6301,-4.6301,-4.6301,-4.6301,-4.6636,-4.7324,-4.8094,-4.9194,-5.0574,-5.2241,-5.3361,-4.5623,-4.5246,-4.4995,-4.5497,-4.5623,-4.5723,-4.62,0.0,0.0,0.0,0.0,0.0,0.0,-4.6301,0.0,0.0,0.0,0.0,-4.9439,-4.959,-4.959,-4.959,0.0,0.0,0.0,0.0,0.0,0.0,0.0,-5.2929,-5.2929,-5.2929,-5.2929,-5.2929,-5.2929,-5.2879,-5.2804,-5.2879,-5.2929,-5.2929,-5.2854,-5.2804,-5.2779,-5.2226,-5.1925,-5.1825,0.0,0.0,-5.0293,-5.0293,-5.0017,-4.959,-4.959,-4.959,-4.959,-4.959,-4.959,-4.959,-4.959,-4.959,-4.959,-4.959,-4.959,-4.959,-4.959,-4.959,-4.959,-4.959,-4.959,-4.959,-4.959,-4.954,-4.9339,-4.8887,-4.8636,-4.8259,-4.733,-4.7079,-4.6878,-4.6401,-4.6301,-4.6301,-4.6301,-4.6301,-4.6301,-4.6301,-4.6301,-4.6301,-4.6301,-4.6301,-4.6301,-4.6301,-4.6301,-4.6301,-4.6301,-4.6301,-4.6301,-4.6301,-4.6301,-4.6301,-4.6301,-4.6301,-4.6301,-4.6301,-4.6541,-4.7265,-4.8474,-4.8965,-5.0463,-5.3016,-5.3256,-5.4016,-4.6175,-4.6125,-4.6075,-4.615,-4.6175,-4.62,-4.6301,-4.6301,0.0,0.0,0.0,0.0,0.0,-4.6301,-4.6476,0.0,0.0,-4.8862,0.0,0.0,-4.959,-4.959,0.0,0.0,0.0,0.0,0.0,0.0,0.0,-5.2929,-5.2929,-5.2929,-5.2929,-5.2929,-5.2929,-5.2703,-5.2226,-5.2703,-5.2929,-5.2929,-5.2452,-5.2226,-5.2201,-5.1649,-5.1147,-5.067,0.0,-5.0243,-4.9715,-4.9715,-4.9665,-4.959,-4.959,-4.959,-4.959,-4.959,-4.959,-4.959,-4.959,-4.959,-4.959,-4.959,-4.959,-4.959,-4.959,-4.959,-4.959,-4.959,-4.959,-4.959,-4.959,-4.9238,-4.8887,-4.8786,-4.8058,-4.733,-4.7179,-4.6753,-4.6401,-4.6326,-4.6301,-4.6301,-4.6301,-4.6301,-4.6301,-4.6301,-4.6301,-4.6301,-4.6301,-4.6301,-4.6301,-4.6301,-4.6301,-4.6301,-4.6301,-4.6301,-4.6301,-4.6301,-4.6301,-4.6301,-4.6301,-4.6301,-4.6301,-4.6301,-4.7534,-4.8268,-4.8532,-5.1071,-5.2591,-5.3016,-5.4304,-5.4976,-4.6301,-4.6301,-4.6301,-4.6301,-4.6301,-4.6301,-4.6301,-4.6301,0.0,0.0,0.0,0.0,0.0,0.0,-4.6577,-4.7405,0.0,-4.8962,-4.9515,-4.959,-4.959,0.0,0.0,0.0,0.0,0.0,0.0,0.0,0.0,0.0,-5.2051,-5.2051,-5.2051,-5.2051,-5.2051,-5.1925,-5.1649,-5.1925,-5.2051,-5.2026,-5.1774,-5.1649,-5.1649,-5.1071,-5.067,-5.0393,0.0,-4.9816,-4.959,-4.959,-4.959,-4.959,-4.959,-4.959,-4.959,-4.959,-4.959,-4.959,-4.959,-4.959,-4.959,-4.959,-4.959,-4.959,-4.959,-4.9389,-4.9163,-4.9163,-4.9163,-4.9163,-4.9163,-4.8736,-4.8234,-4.7958,-4.7506,-4.6993,-4.6753,-4.6502,-4.6301,-4.6301,-4.6301,-4.6301,-4.6301,-4.6301,-4.6301,-4.6301,-4.6301,-4.6301,-4.6301,-4.6301,-4.6301,-4.6301,-4.6301,-4.6301,-4.6301,-4.6301,-4.6301,-4.6301,-4.6301,-4.6301,-4.6301,-4.6301,-4.6301,-4.6301,-4.6968,-4.771,-4.8474,-5.0685,-5.2187,-5.3016,-5.4509,-5.5179,-4.6301,-4.6301,-4.6301,-4.6301,-4.6301,-4.6301,-4.6301,-4.6301,-4.6301,0.0,0.0,0.0,0.0,-4.6527,0.0,-4.7782,-4.851,-4.9113,-4.954,-4.959,-4.959,0.0,0.0,0.0,0.0,0.0,0.0,0.0,0.0,0.0,-5.1272,-5.1272,-5.1272,-5.1272,-5.1272,-5.1222,-5.1071,-5.1071,-5.1147,-5.1272,-5.1147,-5.1071,-5.1046,-5.0494,-5.0218,-5.0193,-4.9766,-4.959,-4.959,-4.959,-4.959,-4.959,-4.959,-4.959,-4.959,-4.959,-4.959,-4.959,-4.959,-4.959,-4.959,-4.959,-4.959,-4.9565,-4.9439,-4.9113,-4.8736,-4.8611,-4.8485,-4.841,-4.8535,-4.8159,-4.7631,-4.723,-4.6968,-4.6828,-4.6401,-4.6301,-4.6301,-4.6301,-4.6301,-4.6301,-4.6301,-4.6301,-4.6301,-4.6301,-4.6301,-4.6301,-4.6301,-4.6301,-4.6301,-4.6301,-4.6301,-4.6301,-4.6301,-4.6301,-4.6301,-4.6301,-4.6301,-4.6301,-4.6301,-4.6301,-4.6301,-4.6301,-4.6636,-4.7534,-4.9022,-5.0491,-5.1997,-5.3518,-5.4692,-5.5179,-4.6301,-4.6301,-4.6301,-4.6301,-4.6301,-4.6301,-4.6301,-4.6301,0.0,-4.6301,0.0,0.0,0.0,-4.7129,-4.7807,-4.7908,-4.8812,-4.954,-4.959,0.0,0.0,0.0,0.0,0.0,0.0,0.0,0.0,0.0,0.0,0.0,-5.1272,-5.1272,-5.1272,-5.1272,-5.1272,-5.1021,-5.0494,-5.0469,-5.0745,-5.1272,-5.0745,-5.0469,-5.0469,-4.9916,-4.9665,-4.9665,-4.9615,-4.959,-4.959,-4.959,-4.959,-4.959,-4.959,-4.959,-4.959,-4.959,-4.959,-4.959,-4.959,-4.959,-4.959,-4.959,-4.959,-4.949,-4.8987,-4.8812,-4.8661,-4.8134,-4.7631,-4.7355,-4.7857,-4.7581,-4.7179,-4.7093,-4.6753,-4.6351,-4.6326,-4.6301,-4.6301,-4.6301,-4.6301,-4.6301,-4.6301,-4.6301,-4.6301,-4.6301,-4.6301,-4.6301,-4.6301,-4.6301,-4.6301,-4.6301,-4.6301,-4.6301,-4.6301,-4.6301,-4.6301,-4.6301,-4.6301,-4.6301,-4.6301,-4.6301,-4.6301,-4.6301,-4.7652,-4.908,-5.0546,-5.2051,-5.3571,-5.5027,-5.5128,-5.5179,-4.6301,-4.6968,-4.7416,-4.6541,-4.6968,0.0,0.0,-4.6301,-4.6301,-4.6301,-4.6301,0.0,0.0,0.0,-4.7908,-4.7908,-4.8862,-4.959,0.0,0.0,0.0,0.0,0.0,0.0,0.0,0.0,0.0,0.0,0.0,0.0,-5.0243,-5.0243,-5.0243,-5.0243,-5.0243,-5.0117,-4.9916,-4.9916,-5.0017,-5.0218,-5.0017,-4.9916,-4.9891,-4.969,-4.959,-4.959,-4.959,-4.959,-4.959,-4.959,-4.959,-4.959,-4.959,-4.959,-4.959,-4.959,-4.959,-4.959,-4.959,-4.959,-4.954,-4.9188,-4.9088,-4.8962,-4.841,-4.8008,-4.7707,-4.7481,-4.7054,-4.6753,-4.728,-4.7029,-4.6627,-4.6627,-4.6451,-4.6301,-4.6301,-4.6301,-4.6301,-4.6301,-4.6301,-4.6301,-4.6301,-4.6301,-4.6301,-4.6301,-4.6301,-4.6301,-4.6301,-4.6301,-4.6301,-4.6301,-4.6301,-4.6301,-4.6301,-4.6301,-4.6301,-4.6301,-4.6301,-4.6301,-4.6301,-4.6301,-4.6301,-4.6301,-4.7769,-4.8736,-4.9338,-5.1809,-5.3308,-5.386,-5.4743,-5.5179,-4.6968,-4.7769,-4.8358,-4.7802,0.0,0.0,-4.7205,-4.6636,-4.6301,-4.6301,-4.6301,-4.6301,-4.6301,0.0,0.0,0.0,-4.8862,0.0,0.0,0.0,0.0,0.0,0.0,0.0,0.0,0.0,0.0,0.0,0.0,0.0,0.0,-4.959,-4.959,-4.959,-4.959,-4.959,-4.959,-4.959,-4.959,-4.959,-4.959,-4.959,-4.959,-4.959,-4.959,-4.959,-4.959,-4.959,-4.959,-4.959,-4.959,-4.959,-4.959,-4.959,-4.959,-4.959,-4.959,-4.9565,-4.9389,-4.9339,-4.9238,-4.8686,-4.851,-4.8385,-4.7832,-4.7405,-4.7043,-4.6928,-4.6602,-4.6401,-4.6778,-4.6602,-4.6301,-4.6301,-4.6301,-4.6301,-4.6301,-4.6301,-4.6301,-4.6301,-4.6301,-4.6301,-4.6301,-4.6301,-4.6301,-4.6301,-4.6301,-4.6301,-4.6301,-4.6301,-4.6301,-4.6301,-4.6301,-4.6301,-4.6301,-4.6301,-4.6301,-4.6301,-4.6755,-4.6815,-4.6301,-4.6755,-4.6968,-4.6968,-4.8416,-4.9395,-4.993,-5.1972,-5.3256,-5.3727,-5.4743,-5.5179,-4.8532,-4.8532,-4.8908,-5.0324,0.0,0.0,-4.8532,-4.7357,-4.6301,-4.6301,-4.6301,-4.6301,-4.6301,0.0,0.0,-4.7908,0.0,0.0,0.0,0.0,0.0,0.0,0.0,0.0,0.0,0.0,0.0,0.0,0.0,0.0,0.0,-4.959,-4.959,-4.959,-4.959,-4.959,-4.959,-4.959,-4.959,-4.959,-4.959,-4.959,-4.959,-4.959,-4.959,-4.959,-4.959,-4.959,-4.959,-4.959,-4.959,-4.959,-4.959,-4.959,-4.959,-4.959,-4.959,-4.9515,-4.8962,-4.8761,-4.8661,-4.8083,-4.7908,-4.7807,-4.728,-4.7068,-4.7004,-4.6476,-4.6301,-4.6301,-4.6301,-4.6301,-4.6301,-4.6301,-4.6301,-4.6301,-4.6301,-4.6301,-4.6301,-4.6301,-4.6301,-4.6301,-4.6301,-4.6301,-4.6301,-4.6301,-4.6301,-4.6301,-4.6301,-4.6301,-4.6301,-4.6301,-4.6301,-4.6301,-4.6301,-4.6301,-4.6301,-4.6301,-4.771,-4.7802,-4.6361,-4.7769,-4.8532,-4.8532,-4.9988,-5.1481,-5.3016,-5.3016,-5.3756,-5.5179,-5.5179,-5.5179,-4.9791,-5.0851,0.0,-5.0878,0.0,0.0,0.0,-4.8908,0.0,0.0,-4.6301,-4.6301,-4.6301,0.0,0.0,0.0,0.0,0.0,0.0,0.0,0.0,0.0,0.0,0.0,0.0,0.0,0.0,0.0,0.0,0.0,0.0,-4.959,-4.959,-4.959,-4.959,-4.959,-4.959,-4.959,-4.959,-4.959,-4.959,-4.959,-4.959,-4.959,-4.959,-4.959,-4.959,-4.959,-4.959,-4.959,-4.959,-4.959,-4.959,-4.959,-4.954,-4.9163,-4.9012,-4.8937,-4.836,-4.8159,-4.8083,-4.7531,-4.7355,-4.7255,-4.6728,-4.6552,-4.6527,-4.6351,-4.6301,-4.6301,-4.6301,-4.6301,-4.6301,-4.6301,-4.6301,-4.6301,-4.6301,-4.6301,-4.6301,-4.6301,-4.6301,-4.6301,-4.6301,-4.6301,-4.6301,-4.6301,-4.6301,-4.6301,-4.6301,-4.6301,-4.6301,-4.6301,-4.6301,-4.6301,-4.6301,-4.6301,-4.6755,-4.7743,-4.8268,-4.83,-4.786,-4.9281,-5.0045,-5.0045,-5.1564,-5.2562,-5.3016,-5.4016,-5.4743,-5.5179,-5.5179,-5.5179,-5.14,-5.2295,0.0,-5.2562,-5.2722,-5.2751,-5.1835,0.0,0.0,0.0,0.0,-4.7044,-4.6723,-4.733,0.0,0.0,0.0,0.0,0.0,0.0,0.0,0.0,0.0,0.0,0.0,0.0,0.0,0.0,0.0,0.0,0.0,-4.959,-4.959,-4.959,-4.959,-4.959,-4.959,-4.959,-4.959,-4.959,-4.959,-4.959,-4.959,-4.959,-4.959,-4.959,-4.959,-4.959,-4.959,-4.959,-4.959,-4.9565,-4.9364,-4.9264,-4.9188,-4.8636,-4.8435,-4.836,-4.7782,-4.7606,-4.7506,-4.6979,-4.6803,-4.6753,-4.6401,-4.6301,-4.6301,-4.6301,-4.6301,-4.6301,-4.6301,-4.6301,-4.6301,-4.6301,-4.6301,-4.6301,-4.6301,-4.6301,-4.6301,-4.6301,-4.6301,-4.6301,-4.6301,-4.6301,-4.6301,-4.6301,-4.6301,-4.6301,-4.6301,-4.6301,-4.6301,-4.6301,-4.6301,-4.6541,-4.7146,-4.7146,-4.7802,-4.9281,-4.996,-5.0296,-5.0296,-5.1126,-5.1618,-5.1618,-5.3121,-5.386,-5.386,-5.4743,-5.5179,-5.5179,-5.5179,-5.5179,-5.3174,0.0,0.0,-5.4845,-5.42,0.0,-5.3174,-5.2105,-5.0657,-4.9022,0.0,-4.8484,-4.7647,0.0,0.0,0.0,0.0,0.0,0.0,0.0,0.0,0.0,0.0,0.0,0.0,0.0,0.0,0.0,0.0,0.0,0.0,-4.959,-4.959,-4.959,-4.959,-4.959,-4.959,-4.959,-4.959,-4.959,-4.959,-4.959,-4.959,-4.959,-4.959,-4.959,-4.959,-4.9565,-4.9515,-4.9515,-4.949,-4.9389,-4.8887,-4.8686,-4.8636,-4.8058,-4.7832,-4.7757,-4.723,-4.7054,-4.6979,-4.6476,-4.6301,-4.6301,-4.6301,-4.6301,-4.6301,-4.6301,-4.6301,-4.6301,-4.6301,-4.6301,-4.6301,-4.6301,-4.6301,-4.6301,-4.6301,-4.6301,-4.6301,-4.6301,-4.6301,-4.6301,-4.6301,-4.6301,-4.6301,-4.6301,-4.6301,-4.6301,-4.6301,-4.6301,-4.6361,-4.6481,-4.6481,-4.7087,-4.8589,-4.8705,-4.9365,-5.0823,-5.2213,-5.3069,-5.3174,-5.3174,-5.3174,-5.3174,-5.4509,-5.5179,-5.5179,-5.5179,-5.5179,-5.5179,-5.5179,-5.5179,-5.4406,-5.4743,0.0,0.0,-5.4976,-5.4743,-5.4743,-5.4458,-5.3437,-5.0768,-5.0212,-5.0348,0.0,0.0,0.0,0.0,0.0,0.0,0.0,0.0,0.0,0.0,0.0,0.0,0.0,0.0,0.0,0.0,0.0,0.0,-4.959,-4.959,-4.959,-4.959,-4.959,-4.959,-4.959,-4.959,-4.959,0.0,-4.959,-4.959,-4.959,-4.959,-4.959,-4.959,-4.959,-4.9339,-4.8962,-4.8962,-4.8686,-4.8259,-4.8134,-4.8083,-4.8033,-4.7506,-4.7305,-4.723,-4.6677,-4.6502,-4.6476,-4.6351,-4.6301,-4.6301,-4.6301,-4.6301,-4.6301,-4.6301,-4.6301,-4.6301,-4.6301,-4.6301,-4.6301,-4.6301,-4.6301,-4.6301,-4.6301,-4.6301,-4.6301,-4.6301,-4.6301,-4.6301,-4.6301,-4.6301,-4.6301,-4.6301,-4.6301,-4.6301,-4.6301,-4.6301,-4.6755,-4.7919,-4.8035,-4.8621,-5.0101,-5.0212,-5.0878,-5.2402,-5.2804,-5.3518,-5.4692,-5.4743,-5.4743,-5.4743,-5.5027,-5.5179,-5.5179,-5.5179,-5.5179,-5.5179,-5.5179,-5.5179,-5.4976,0.0,0.0,-5.5179,0.0,-5.5179,-5.5179,-5.5179,-5.4743,-5.3174,0.0,0.0,0.0,0.0,0.0,0.0,0.0,0.0,0.0,0.0,0.0,0.0,0.0,0.0,0.0,0.0,0.0,0.0,0.0,-4.959,-4.959,-4.959,-4.959,-4.959,-4.959,-4.959,-4.959,-4.959,-4.959,-4.959,-4.959,-4.9464,-4.9213,-4.9464,-4.9439,-4.9213,-4.9213,-4.8887,-4.836,-4.836,-4.8184,-4.7883,-4.7631,-4.7531,-4.7481,-4.6928,-4.6753,-4.6702,-4.6401,-4.6301,-4.6301,-4.6301,-4.6301,-4.6301,-4.6301,-4.6301,-4.6301,-4.6301,-4.6301,-4.6301,-4.6301,-4.6301,-4.6301,-4.6301,-4.6301,-4.6301,-4.6301,-4.6301,-4.6301,-4.6301,-4.6301,-4.6301,-4.6301,-4.6301,-4.6301,-4.6301,-4.6301,-4.6541,-4.7265,-4.7357,-4.7919,-4.9395,-4.9565,-5.0184,-5.1672,-5.1781,-5.2455,-5.3964,-5.4068,-5.4406,-5.5179,-5.5179,-5.5179,-5.5179,-5.5179,-5.5179,-5.5179,-5.5179,-5.5179,-5.5179,-5.5179,-5.5179,-5.5179,0.0,-5.5179,-5.5179,-5.5179,0.0,-5.5179,-5.5179,-5.5179,0.0,0.0,0.0,0.0,0.0,0.0,0.0,0.0,0.0,0.0,0.0,0.0,0.0,0.0,0.0,0.0,0.0,0.0,0.0,0.0,-4.959,-4.959,-4.959,-4.959,-4.959,-4.959,-4.959,-4.959,-4.9515,-4.9464,-4.9464,-4.9364,-4.9063,-4.8636,-4.9088,-4.9063,-4.8611,-4.8611,-4.8309,-4.7782,-4.7782,-4.7732,-4.7581,-4.7154,-4.6943,-4.6928,-4.6476,-4.6301,-4.6301,-4.6301,-4.6301,-4.6301,-4.6301,-4.6301,-4.6301,-4.6301,-4.6301,-4.6301,-4.6301,-4.6301,-4.6301,-4.6301,-4.6301,-4.6301,-4.6301,-4.6301,-4.6301,-4.6301,-4.6301,-4.6301,-4.6301,-4.6301,-4.6301,-4.6301,-4.6301,-4.6301,-4.6301,-4.6541,-4.7146,-4.83,-4.8705,-4.9451,-5.0933,-5.1098,-5.1727,-5.3256,-5.3361,-5.3912,-5.5128,-5.5179,-5.5179,-5.5179,-5.5179,-5.5179,-5.5179,-5.5179,-5.5179,-5.5179,-5.5179,-5.5179,-5.5179,-5.5179,-5.5179,0.0,0.0,-5.5179,0.0,-5.5179,-5.5179,0.0,0.0,0.0,0.0,0.0,0.0,0.0,0.0,0.0,0.0,0.0,0.0,0.0,0.0,0.0,0.0,0.0,0.0,0.0,0.0,0.0,0.0,-4.959,-4.959,-4.959,-4.959,-4.959,-4.959,-4.959,-4.959,-4.959,-4.9113,-4.8887,-4.8887,-4.836,-4.8083,-4.8033,-4.8109,-4.8083,-4.8033,-4.8033,-4.7732,-4.723,-4.723,-4.6954,-4.6527,-4.6451,-4.6426,-4.6401,-4.6326,-4.6301,-4.6301,-4.6301,-4.6301,-4.6301,-4.6301,-4.6301,-4.6301,-4.6301,-4.6301,-4.6301,-4.6301,-4.6301,-4.6301,-4.6301,-4.6301,-4.6301,-4.6301,-4.6301,-4.6301,-4.6301,-4.6301,-4.6301,-4.6301,-4.6301,-4.6301,-4.6301,-4.6301,-4.6301,-4.6301,-4.7357,-4.8268,-4.8474,-4.9621,-5.0989,-5.2509,-5.2669,-5.3279,-5.4794,-5.4926,-5.4976,-5.5179,-5.5179,-5.5179,-5.5179,-5.5179,-5.5179,-5.5179,-5.5179,-5.5179,-5.5179,-5.5179,-5.5179,-5.5179,-5.5179,-5.5179,-5.5179,-5.5179,-5.5179,0.0,-5.5179,-5.5179,0.0,0.0,0.0,0.0,0.0,0.0,0.0,0.0,0.0,0.0,0.0,0.0,0.0,0.0,0.0,0.0,0.0,0.0,0.0,0.0,0.0,0.0,-4.9961,-4.9552,-4.8699,-4.8661,-4.8661,-4.8661,-4.8661,-4.8661,-4.8661,-4.841,-4.8284,-4.8284,-4.7732,-4.7481,-4.7456,-4.7154,-4.7179,-4.7481,-4.7481,-4.7179,-4.6677,-4.6677,-4.6527,-4.6301,-4.6301,-4.6301,-4.6301,-4.6301,-4.6301,-4.6301,-4.6301,-4.6301,-4.6301,-4.6301,-4.6301,-4.6301,-4.6301,-4.6301,-4.6301,-4.6301,-4.6301,-4.6301,-4.6301,-4.6301,-4.6301,-4.6301,-4.6301,-4.6301,-4.6301,-4.6301,-4.6301,-4.6301,-4.6301,-4.6301,-4.6301,-4.6301,-4.6301,-4.6301,-4.7534,-4.8474,-4.8474,-5.0518,-5.2241,-5.291,-5.3756,-5.4509,-5.5128,-5.5179,-5.5179,-5.5179,-5.5179,-5.5179,-5.5179,-5.5179,-5.5179,-5.5179,-5.5179,-5.5179,-5.5179,-5.5179,-5.5179,-5.5179,-5.5179,-5.5179,0.0,0.0,-5.5179,-5.5179,-5.5179,0.0,0.0,0.0,0.0,0.0,0.0,0.0,0.0,0.0,0.0,0.0,0.0,0.0,0.0,0.0,0.0,0.0,0.0,0.0,0.0,0.0,0.0,0.0,-5.0426,-4.9672,-4.8564,-4.8094,-4.7908,-4.7908,-4.7908,-4.7908,-4.7908,-4.7782,-4.7631,-4.7506,-4.7104,-4.6928,-4.6903,-4.6502,-4.6527,-4.6928,-4.6928,-4.6702,-4.6301,-4.6301,-4.6301,-4.6301,-4.6301,-4.6301,-4.6301,-4.6301,-4.6301,-4.6301,-4.6301,-4.6301,-4.6301,-4.6301,-4.6301,-4.6301,-4.6301,-4.6301,-4.6301,-4.6301,-4.6301,-4.6301,-4.6301,-4.6301,-4.6301,-4.6301,-4.6301,-4.6301,-4.6301,-4.6301,-4.6301,-4.6301,-4.6301,-4.6301,-4.6301,-4.6301,-4.6421,-4.6815,-4.8126,-4.9194,-4.9592,-5.1917,-5.3571,-5.3571,-5.4509,-5.5179,-5.5179,-5.5179,-5.5179,-5.5179,-5.5179,-5.5179,-5.5179,-5.5179,-5.5179,-5.5179,-5.5179,-5.5179,-5.5179,-5.5179,-5.5179,-5.5179,-5.5179,-5.5179,0.0,-5.5179,0.0,0.0,0.0,0.0,0.0,0.0,0.0,0.0,0.0,0.0,0.0,0.0,0.0,0.0,0.0,0.0,0.0,0.0,0.0,0.0,0.0,0.0,0.0,0.0,0.0,0.0,-5.0993,-5.0127,-5.0067,-4.8661,-4.7908,-4.7908,-4.7908,-4.7908,-4.7908,-4.7431,-4.6903,-4.6401,-4.6376,-4.6351,-4.6351,-4.6326,-4.6326,-4.6351,-4.6351,-4.6326,-4.6301,-4.6301,-4.6301,-4.6301,-4.6301,-4.6301,-4.6301,-4.6301,-4.6301,-4.6301,-4.6301,-4.6301,-4.6301,-4.6301,-4.6301,-4.6301,-4.6301,-4.6301,-4.6301,-4.6301,-4.6301,-4.6301,-4.6301,-4.6301,-4.6301,-4.6301,-4.6301,-4.6301,-4.6301,-4.6301,-4.6301,-4.6301,-4.6301,-4.6301,-4.6301,-4.6301,-4.6755,-4.821,-4.9621,-5.1098,-5.2562,-5.4119,-5.5078,-5.5078,-5.5128,-5.5179,-5.5179,-5.5179,-5.5179,-5.5179,-5.5179,-5.5179,-5.5179,-5.5179,-5.5179,-5.5179,-5.5179,-5.5179,-5.5179,-5.5179,-5.5179,-5.5179,-5.5179,-5.5179,0.0,0.0,0.0,0.0,0.0,0.0,0.0,0.0,0.0,0.0,0.0,0.0,0.0,0.0,0.0,0.0,0.0,0.0,0.0,0.0,0.0,0.0,0.0,0.0,0.0,0.0,0.0,0.0,0.0,-5.1571,-5.0585,-4.9139,-4.8306,-4.8306,-4.7399,-4.6878,-4.6878,-4.6702,-4.6502,-4.6301,-4.6301,-4.6301,-4.6301,-4.6301,-4.6301,-4.6301,-4.6301,-4.6301,-4.6301,-4.6301,-4.6301,-4.6301,-4.6301,-4.6301,-4.6301,-4.6301,-4.6301,-4.6301,-4.6301,-4.6301,-4.6301,-4.6301,-4.6301,-4.6301,-4.6301,-4.6301,-4.6301,-4.6301,-4.6301,-4.6301,-4.6301,-4.6301,-4.6301,-4.6301,-4.6301,-4.6541,-4.7534,-4.6968,-4.6301,-4.6301,-4.6301,-4.6301,-4.6301,-4.7087,-4.786,-4.8416,-5.0574,-5.1997,-5.1618,-5.3675,-5.4845,-5.3912,-5.4641,-5.5179,-5.5179,-5.5179,-5.5179,-5.5179,-5.5179,-5.5179,-5.5179,-5.5179,-5.5179,-5.5179,-5.5179,-5.5179,-5.5179,-5.5179,-5.5179,-5.5179,-5.5179,-5.5179,-5.5179,0.0,0.0,0.0,0.0,0.0,0.0,0.0,0.0,0.0,0.0,0.0,0.0,0.0,0.0,0.0,0.0,0.0,0.0,0.0,0.0,0.0,0.0,0.0,0.0,0.0,0.0,0.0,0.0,0.0,-5.1536,-5.0072,-4.9022,-4.8532,-4.7087,-4.6301,-4.6301,-4.6301,-4.6301,-4.6301,-4.6301,-4.6301,-4.6301,-4.6301,-4.6301,-4.6301,-4.6301,-4.6301,-4.6301,-4.6301,-4.6301,-4.6301,-4.6301,-4.6301,-4.6301,-4.6301,-4.6301,-4.6301,-4.6301,-4.6301,-4.6301,-4.6301,-4.6301,-4.6301,-4.6301,-4.6301,-4.6301,-4.6301,-4.6301,-4.6421,-4.6934,-4.7416,-4.7802,-4.7802,-4.7802,-4.8068,-4.9022,-4.8094,-4.7205,-4.7684,-4.7802,-4.7802,-4.7802,-4.8563,-4.9395,-4.9903,-5.1755,-5.2804,-5.2266,-5.3964,-5.4794,-5.386,-5.4641,-5.5179,-5.5179,-5.5179,-5.5179,-5.5179,-5.5179,-5.5179,-5.5179,-5.5179,-5.5179,-5.5179,-5.5179,-5.5179,-5.5179,-5.5179,-5.5179,-5.5179,-5.5179,-5.5179,0.0,0.0,0.0,0.0,0.0,0.0,0.0,0.0,0.0,0.0,0.0,0.0,0.0,0.0,0.0,0.0,0.0,0.0,0.0,0.0,0.0,0.0,0.0,0.0,0.0,0.0,0.0,0.0,-5.386,-5.3069,-5.3069,-5.159,-5.0045,-4.8532,-4.7087,-4.6361,-4.6301,-4.6301,-4.6301,-4.6301,-4.6301,-4.6301,-4.6301,-4.6301,-4.6301,-4.6301,-4.6301,-4.6301,-4.6301,-4.6301,-4.6301,-4.6301,-4.6301,-4.6301,-4.6301,-4.6301,-4.6301,-4.6361,-4.6361,-4.6361,-4.6361,-4.6421,-4.6361,-4.6301,-4.6361,-4.6361,-4.6361,-4.6361,-4.6421,-4.6755,-4.8184,-4.9621,-5.0713,-5.0713,-5.0713,-5.0713,-5.0768,-4.9621,-4.9022,-5.0435,-5.0713,-5.0713,-5.0713,-5.0768,-5.1263,-5.2804,-5.3016,-5.3571,-5.5027,-5.5179,-5.5179,-5.5179,-5.5179,-5.5179,-5.5179,-5.5179,-5.5179,-5.5179,-5.5179,-5.5179,-5.5179,-5.5179,-5.5179,-5.5179,-5.5179,-5.5179,-5.5179,-5.5179,-5.5179,-5.5179,-5.5179,-5.5179,-5.5179,0.0,0.0,0.0,0.0,0.0,0.0,0.0,0.0,0.0,0.0,0.0,0.0,0.0,0.0,0.0,0.0,0.0,0.0,0.0,0.0,0.0,0.0,0.0,0.0,0.0,0.0,0.0,-5.4794,-5.459,-5.459,-5.3174,-5.1181,-4.8589,-4.8094,-4.7357,-4.6301,-4.6301,-4.6301,-4.6301,-4.6301,-4.6301,-4.6301,-4.6301,-4.6301,-4.6301,-4.6301,-4.6301,-4.6301,-4.6301,-4.6301,-4.6301,-4.6301,-4.6301,-4.6301,-4.6301,-4.6968,-4.786,-4.786,-4.786,-4.8094,-4.911,-4.8009,-4.6481,-4.7593,-4.786,-4.786,-4.786,-4.8678,-4.9565,-4.9988,-5.038,-5.0713,-5.0713,-5.0713,-5.0989,-5.2105,-5.2026,-5.1564,-5.0823,-5.0713,-5.0713,-5.0713,-5.1618,-5.2509,-5.2963,-5.3912,-5.4743,-5.5128,-5.5179,-5.5179,-5.5179,-5.5179,-5.5179,-5.5179,-5.5179,-5.5179,-5.5179,-5.5179,-5.5179,-5.5179,-5.5179,-5.5179,-5.5179,-5.5179,-5.5179,-5.5179,-5.5179,-5.5179,-5.5179,-5.5179,-5.5179,0.0,0.0,0.0,0.0,0.0,0.0,-5.5179,-5.5179,0.0,0.0,0.0,0.0,0.0,0.0,0.0,0.0,0.0,0.0,0.0,0.0,0.0,0.0,0.0,0.0,0.0,-5.5179,-5.5179,-5.5179,-5.5179,-5.5179,-5.5179,-5.3808,-5.2187,-5.0407,-4.9137,-4.8094,-4.7265,-4.6576,-4.6301,-4.6301,-4.6301,-4.6301,-4.6301,-4.6301,-4.6301,-4.6301,-4.6301,-4.6636,-4.7205,-4.7205,-4.6874,-4.6301,-4.6301,-4.6695,-4.7205,-4.7205,-4.8126,-4.9395,-4.9395,-4.9395,-4.9565,-5.0435,-4.9565,-4.83,-4.9194,-4.9395,-4.9395,-4.9395,-5.0491,-5.1672,-5.1672,-5.2105,-5.2587,-5.2587,-5.2587,-5.2828,-5.3727,-5.3912,-5.3623,-5.2775,-5.2587,-5.2587,-5.2587,-5.3332,-5.3912,-5.3912,-5.4641,-5.5179,-5.5179,-5.5179,-5.5179,-5.5179,-5.5179,-5.5179,-5.5179,-5.5179,-5.5179,-5.5179,-5.5179,-5.5179,-5.5179,-5.5179,-5.5179,-5.5179,-5.5179,-5.5179,-5.5179,-5.5179,-5.5179,-5.5179,-5.5179,-5.5179,0.0,0.0,0.0,0.0,0.0,0.0,-5.5179,-5.5179,-5.5179,0.0,0.0,0.0,0.0,0.0,0.0,0.0,0.0,0.0,0.0,0.0,0.0,0.0,0.0,0.0,-5.5179,-5.5179,-5.5179,-5.5179,-5.5179,-5.5179,-5.5179,-5.3964,-5.3174,-5.3016,-5.0407,-4.8935,-4.8762,-4.7298,-4.6541,-4.6541,-4.6361,-4.6301,-4.6301,-4.6481,-4.6541,-4.6541,-4.6695,-4.7534,-4.8736,-4.8736,-4.7977,-4.6815,-4.6815,-4.7593,-4.8736,-4.8736,-4.9678,-5.0989,-5.0989,-5.0989,-5.0989,-5.1153,-5.0989,-5.0768,-5.0933,-5.0989,-5.0989,-5.1153,-5.2159,-5.3256,-5.3256,-5.4252,-5.5179,-5.5179,-5.5179,-5.5179,-5.5179,-5.5179,-5.5179,-5.5179,-5.5179,-5.5179,-5.5179,-5.5179,-5.5179,-5.5179,-5.5179,-5.5179,-5.5179,-5.5179,-5.5179,-5.5179,-5.5179,-5.5179,-5.5179,-5.5179,-5.5179,-5.5179,-5.5179,-5.5179,-5.5179,-5.5179,-5.5179,-5.5179,-5.5179,-5.5179,-5.5179,-5.5179,-5.5179,-5.5179,-5.5179,-5.5179,0.0,0.0,0.0,0.0,0.0,0.0,-5.5179,-5.5179,-5.5179,0.0,0.0,0.0,0.0,0.0,0.0,0.0,0.0,0.0,0.0,0.0,0.0,0.0,0.0,0.0,-5.5179,-5.5179,-5.5179,-5.5179,-5.5179,-5.5179,-5.5179,-5.4926,-5.4252,-5.3016,-5.2402,-5.1509,-5.0268,-4.8793,-4.8094,-4.8035,-4.6874,-4.6301,-4.6361,-4.7534,-4.8094,-4.8152,-4.9338,-4.9988,-5.0268,-5.0268,-5.0101,-4.982,-4.982,-5.0045,-5.0268,-5.0268,-5.1236,-5.2562,-5.2562,-5.2562,-5.2722,-5.3964,-5.2669,-5.0933,-5.2159,-5.2562,-5.2775,-5.4016,-5.4509,-5.4743,-5.4743,-5.4976,-5.5179,-5.5179,-5.5179,-5.5179,-5.5179,-5.5179,-5.5179,-5.5179,-5.5179,-5.5179,-5.5179,-5.5179,-5.5179,-5.5179,-5.5179,-5.5179,-5.5179,-5.5179,-5.5179,-5.5179,-5.5179,-5.5179,-5.5179,-5.5179,-5.5179,-5.5179,-5.5179,-5.5179,-5.5179,-5.5179,-5.5179,-5.5179,-5.5179,-5.5179,-5.5179,-5.5179,-5.5179,-5.5179,-5.5179,-5.4929,0.0,0.0,0.0,-5.5179,0.0,0.0,0.0,-5.5179,-5.5179,0.0,0.0,0.0,0.0,0.0,0.0,0.0,0.0,0.0,0.0,0.0,0.0,0.0,0.0,0.0,-5.5179,-5.5179,-5.5179,-5.5179,-5.5179,-5.5179,-5.5179,-5.5179,-5.4845,-5.4119,-5.3361,-5.2615,-5.1835,-5.0324,-4.9621,-4.9565,-4.8851,-4.8505,-4.8505,-4.9281,-4.9621,-4.9621,-5.038,-5.1153,-5.1835,-5.1835,-5.2266,-5.2775,-5.1263,-5.1153,-5.1835,-5.1835,-5.2775,-5.4068,-5.4068,-5.4068,-5.4252,-5.4976,-5.4171,-5.3121,-5.386,-5.4068,-5.4252,-5.4976,-5.5179,-5.5179,-5.5179,-5.5179,-5.5179,-5.5179,-5.5179,-5.5179,-5.5179,-5.5179,-5.5179,-5.5179,-5.5179,-5.5179,-5.5179,-5.5179,-5.5179,-5.5179,-5.5179,-5.5179,-5.5179,-5.5179,-5.5179,-5.5179,-5.5179,-5.5179,-5.5179,-5.5179,-5.5179,-5.5179,-5.5179,-5.5179,-5.5179,-5.5179,-5.5179,-5.5179,-5.5179,-5.5179,-5.5179,-5.4848,-5.4848,-5.5179,-5.4848,-5.4538,0.0,0.0,0.0,0.0,0.0,-5.5179,0.0,0.0,0.0,0.0,0.0,0.0,0.0,0.0,0.0,0.0,0.0,0.0,0.0,0.0,0.0,0.0,0.0,0.0,0.0,-5.5179,-5.5179,-5.5179,-5.5179,-5.5179,-5.5179,-5.5179,-5.5179,-5.5179,-5.4016,-5.3413,-5.3413,-5.1889,-5.1153,-5.1153,-5.0878,-5.0713,-5.0713,-5.0989,-5.1153,-5.1153,-5.1427,-5.2266,-5.3413,-5.3413,-5.4119,-5.4976,-5.2534,-5.232,-5.3413,-5.3413,-5.42,-5.5179,-5.5179,-5.5179,-5.5179,-5.5179,-5.5179,-5.5179,-5.5179,-5.5179,-5.5179,-5.5179,-5.5179,-5.5179,-5.5179,-5.5179,-5.5179,-5.5179,-5.5179,-5.5179,-5.5179,-5.5179,-5.5179,-5.5179,-5.5179,-5.5179,-5.5179,-5.5179,-5.5179,-5.5179,-5.5179,-5.5179,-5.5179,-5.5179,-5.5179,-5.5179,-5.5179,-5.5179,-5.5179,-5.5179,-5.5179,-5.5179,-5.5179,-5.5179,-5.5179,-5.5179,-5.5179,-5.5179,-5.5179,-5.5149,-5.5039,-5.4458,-5.4458,-5.4958,-5.4318,-5.3941,0.0,0.0,0.0,0.0,-5.5179,0.0,0.0,0.0,-5.5179,-5.5179,0.0,0.0,0.0,0.0,0.0,0.0,0.0,0.0,0.0,0.0,0.0,0.0,0.0,0.0,0.0,-5.5179,-5.5179,-5.5179,-5.5179,-5.5179,-5.5179,-5.5179,-5.5179,-5.5179,-5.5027,-5.4976,-5.4976,-5.3466,-5.2751,-5.2751,-5.1318,-5.0713,-5.0768,-5.2105,-5.2751,-5.2804,-5.4119,-5.4794,-5.4976,-5.4976,-5.5027,-5.5179,-5.4794,-5.4794,-5.4976,-5.4976,-5.5078,-5.5179,-5.5179,-5.5179,-5.5179,-5.5179,-5.5179,-5.5179,-5.5179,-5.5179,-5.5179,-5.5179,-5.5179,-5.5179,-5.5179,-5.5179,-5.5179,-5.5179,-5.5179,-5.5179,-5.5179,-5.5179,-5.5179,-5.5179,-5.5179,-5.5179,-5.5179,-5.5179,-5.5179,-5.5179,-5.5179,-5.5179,-5.5179,-5.5179,-5.5179,-5.5179,-5.5179,-5.5179,-5.5179,-5.5179,-5.5179,-5.5179,-5.5179,-5.5179,-5.5179,-5.5179,-5.5179,-5.5179,-5.5179,-5.4929,-5.4318,-5.4238,-5.4238,-5.4318,-5.363,-5.2991,0.0,0.0,0.0,0.0,0.0,0.0,-5.5179,0.0,-5.5179,0.0,0.0,0.0,0.0,0.0,0.0,0.0,-5.4999,0.0,0.0,0.0,0.0,0.0,0.0,0.0,0.0,0.0,0.0,0.0,-5.5179,-5.5179,-5.5179,-5.5179,-5.5179,-5.5179,-5.5179,-5.5179,-5.5179,-5.459,-5.4304,-5.4252,-5.3623,-5.3332,-5.3332,-5.3964,-5.4304,-5.4304,-5.4926,-5.5179,-5.5179,-5.5179,-5.5179,-5.5179,-5.5179,-5.5179,-5.5179,-5.5179,-5.5179,-5.5179,-5.5179,-5.5179,-5.5179,-5.5179,-5.5179,-5.5179,-5.5179,-5.5179,-5.5179,-5.5179,-5.5179,-5.5179,-5.5179,-5.5179,-5.5179,-5.5179,-5.5179,-5.5179,-5.5179,-5.5179,-5.5179,-5.5179,-5.5179,-5.5179,-5.5179,-5.5179,-5.5179,-5.5179,-5.5179,-5.5179,-5.5179,-5.5179,-5.5179,-5.5179,-5.5179,-5.5179,-5.5179,-5.5179,-5.5179,-5.5179,-5.5179,-5.5179,-5.5179,-5.5179,-5.5179,-5.5179,-5.4818,-5.4458,-5.4209,-5.3405,-5.3043,-5.3013,-5.2767,-5.2444,-5.5179,0.0,0.0,0.0,0.0,0.0,0.0,0.0,0.0,0.0,0.0,0.0,0.0,0.0,0.0,0.0,0.0,-5.5119,0.0,0.0,0.0,0.0,0.0,0.0,0.0,0.0,0.0,-5.5179,-5.5179,-5.5179,-5.5179,-5.5179,-5.5179,-5.5179,-5.5179,-5.5179,-5.5179,-5.5179,-5.5179,-5.5179,-5.5179,-5.5179,-5.5179,-5.5179,-5.5179,-5.5179,-5.5179,-5.5179,-5.5179,-5.5179,-5.5179,-5.5179,-5.5179,-5.5179,-5.5179,-5.5179,-5.5179,-5.5179,-5.5179,-5.5179,-5.5179,-5.5179,-5.5179,-5.5179,-5.5179,-5.5179,-5.5179,-5.5179,-5.5179,-5.5179,-5.5179,-5.5179,-5.5179,-5.5179,-5.5179,-5.5179,-5.5179,-5.5179,-5.5179,-5.5179,-5.5179,-5.5179,-5.5179,-5.5179,-5.5179,-5.5179,-5.5179,-5.5179,-5.5179,-5.5179,-5.5179,-5.5179,-5.5179,-5.5179,-5.5179,-5.5179,-5.5179,-5.5179,-5.5179,-5.5179,-5.5179,-5.5179,-5.5099,-5.4929,-5.4458,-5.3991,-5.3635,-5.2648,-5.2145,-5.1931,-5.1931,-5.1931,0.0,0.0,0.0,-5.5179,0.0,0.0,0.0,0.0,-5.5179,0.0,0.0,0.0,0.0,0.0,0.0,0.0,0.0,0.0,0.0,0.0,0.0,0.0,0.0,0.0,0.0,0.0,0.0,-5.5179,-5.5179,-5.5179,-5.5179,-5.5179,-5.5179,-5.5179,-5.5179,-5.5179,-5.5179,-5.5179,-5.5179,-5.5179,-5.5179,-5.5179,-5.5179,-5.5179,-5.5179,-5.5179,-5.5179,-5.5179,-5.5179,-5.5179,-5.5179,-5.5179,-5.5179,-5.5179,-5.5179,-5.5179,-5.5179,-5.5179,-5.5179,-5.5179,-5.5179,-5.5179,-5.5179,-5.5179,-5.5179,-5.5179,-5.5179,-5.5179,-5.5179,-5.5179,-5.5179,-5.5179,-5.5179,-5.5179,-5.5179,-5.5179,-5.5179,-5.5179,-5.5179,-5.5179,-5.5179,-5.5179,-5.5179,-5.5179,-5.5179,-5.5179,-5.5179,-5.5179,-5.5179,-5.5179,-5.5179,-5.5179,-5.5179,-5.5179,-5.5179,-5.5179,-5.5179,-5.5179,-5.5179,-5.5179,-5.5179,-5.5179,-5.4899,-5.4238,-5.4209,-5.3565,-5.2265,-5.2205,-5.1854,-5.1229,-5.1229,-5.1229,0.0,0.0,-5.5179,-5.5179,0.0,0.0,0.0,0.0,0.0,0.0,0.0,0.0,0.0,0.0,0.0,0.0,0.0,0.0,0.0,0.0,0.0,0.0,0.0,0.0,0.0,0.0,0.0,-5.5179,-5.5179,-5.5179,-5.5179,-5.5179,-5.5179,-5.5179,-5.5179,-5.5179,-5.5179,-5.5179,-5.5179,-5.5179,-5.5179,-5.5179,-5.5179,-5.5179,-5.5179,-5.5179,-5.5179,-5.5179,-5.5179,-5.5179,-5.5179,-5.5179,-5.5179,-5.5179,-5.5179,-5.5179,-5.5179,-5.5179,-5.5179,-5.5179,-5.5179,-5.5179,-5.5179,-5.5179,-5.5179,-5.5179,-5.5179,-5.5179,-5.5179,-5.5179,-5.5179,-5.5179,-5.5179,-5.5179,-5.5179,-5.5179,-5.5179,-5.5179,-5.5179,-5.5179,-5.5179,-5.5179,-5.5179,-5.5179,-5.5179,-5.5179,-5.5179,-5.5179,-5.5179,-5.5179,-5.5179,-5.5179,-5.5179,-5.5179,-5.5179,-5.5179,-5.5179,-5.5179,-5.5179,-5.5179,-5.5179,-5.476,-5.4461,-5.4202,-5.3298,-5.264,-5.2175,-5.1717,-5.1443,-5.1229,-5.1229,-5.1229,-5.5179,-5.5179,0.0,-5.5179,-5.5179,0.0,-5.5179,0.0,0.0,0.0,0.0,0.0,0.0,0.0,0.0,0.0,0.0,0.0,0.0,-5.4999,0.0,0.0,0.0,0.0,0.0,0.0,-5.494,-5.5179,-5.5179,-5.5179,0.0,0.0,-5.5179,-5.5179,-5.5179,-5.5179,-5.5179,-5.5179,-5.5179,-5.5179,-5.5179,-5.5179,-5.5179,-5.5179,-5.5179,-5.5179,-5.5179,-5.5179,-5.5179,-5.5179,-5.5179,-5.5179,-5.5179,-5.5029,-5.488,-5.5089,-5.5179,-5.5179,-5.5179,-5.5029,-5.485,-5.485,-5.485,-5.485,-5.485,-5.4999,-5.5179,-5.5179,-5.5179,-5.5179,-5.5179,-5.5179,-5.5179,-5.5179,-5.5179,-5.5179,-5.5179,-5.5179,-5.5179,-5.5179,-5.5179,-5.5179,-5.5179,-5.5179,-5.5179,-5.5179,-5.5179,-5.5179,-5.5179,-5.5179,-5.5179,-5.5179,-5.5179,-5.5179,-5.5179,-5.5179,-5.5179,-5.5179,-5.5179,-5.5089,-5.485,-5.4431,-5.4012,-5.3514,-5.2613,-5.2085,-5.1824,-5.1396,-5.1229,-5.1229,-5.1229,-5.1229]}]]